[[{"header":{"parameterUnit":"m.s-1","parameterCategory":1,"la1":30.6,"la2":28.766,"lo1":-90.7593,"lo2":-88.6598,"dy":0.0162,"dx":0.0183,"nx":116,"ny":114,"refTime":"2023-06-01T12:00:00:Z","depth":0,"parameterNumber":2,"parameterNumberName":"U-component_of_WINDS"},"data":[0.0,0.0,0.0,0.0,0.0,0.0,0.0,0.0,0.0,0.0,0.0,0.0,0.0,0.0,0.0,0.0,0.0,0.0,0.0,0.0,0.0,0.0,0.0,0.0,0.0,0.0,0.0,0.0,0.0,0.0,0.0,0.0,0.0,0.0,0.0,0.0,0.0,0.0,0.0,0.0,0.0,0.0,0.0,0.0,0.0,0.0,0.0,0.0,0.0,0.0,0.0,0.0,0.0,0.0,0.0,0.0,0.0,0.0,0.0,0.0,0.0,0.0,0.0,0.0,0.0,0.0,0.0,0.0,0.0,0.0,0.0,0.0,0.0,0.0,0.0,0.0,0.0,0.0,0.0,0.0,0.0,0.0,0.0,0.0,0.0,0.0,0.0,0.0,0.0,0.0,0.0,0.0,0.0,0.0,0.0,0.0,0.0,0.0,0.0,0.0,0.0,0.0,0.0,0.0,0.0,0.0,0.0,0.0,0.0,0.0,0.0,0.0,0.0,0.0,0.0,0.0,0.0,0.0,0.0,0.0,0.0,0.0,0.0,0.0,0.0,0.0,0.0,0.0,0.0,0.0,0.0,0.0,0.0,0.0,0.0,0.0,0.0,0.0,0.0,0.0,0.0,0.0,0.0,0.0,0.0,0.0,0.0,0.0,0.0,0.0,0.0,0.0,0.0,0.0,0.0,0.0,0.0,0.0,0.0,0.0,0.0,0.0,0.0,0.0,0.0,0.0,0.0,0.0,0.0,0.0,0.0,0.0,0.0,0.0,0.0,0.0,0.0,0.0,0.0,0.0,0.0,0.0,0.0,0.0,0.0,0.0,0.0,0.0,0.0,0.0,0.0,0.0,0.0,0.0,0.0,0.0,0.0,0.0,0.0,0.0,0.0,0.0,0.0,0.0,0.0,0.0,0.0,0.0,0.0,0.0,0.0,0.0,0.0,0.0,0.0,0.0,0.0,0.0,0.0,0.0,0.0,0.0,0.0,0.0,0.0,0.0,0.0,0.0,0.0,0.0,0.0,0.0,0.0,0.0,0.0,0.0,0.0,0.0,0.0,0.0,0.0,0.0,0.0,0.0,0.0,0.0,0.0,0.0,0.0,0.0,0.0,0.0,0.0,0.0,0.0,0.0,0.0,0.0,0.0,0.0,0.0,0.0,0.0,0.0,0.0,0.0,0.0,0.0,0.0,0.0,0.0,0.0,0.0,0.0,0.0,0.0,0.0,0.0,0.0,0.0,0.0,0.0,0.0,0.0,0.0,0.0,0.0,0.0,0.0,0.0,0.0,0.0,0.0,0.0,0.0,0.0,0.0,0.0,0.0,0.0,0.0,0.0,0.0,0.0,0.0,0.0,0.0,0.0,0.0,0.0,0.0,0.0,0.0,0.0,0.0,0.0,0.0,0.0,0.0,0.0,0.0,0.0,0.0,0.0,0.0,0.0,0.0,0.0,0.0,0.0,0.0,0.0,0.0,0.0,0.0,0.0,0.0,0.0,0.0,0.0,0.0,0.0,0.0,0.0,0.0,0.0,0.0,0.0,0.0,0.0,0.0,0.0,0.0,0.0,0.0,0.0,0.0,0.0,0.0,0.0,0.0,0.0,0.0,0.0,0.0,0.0,0.0,0.0,0.0,0.0,0.0,0.0,0.0,0.0,0.0,0.0,0.0,0.0,0.0,0.0,0.0,0.0,0.0,0.0,0.0,0.0,0.0,0.0,0.0,0.0,0.0,0.0,0.0,0.0,0.0,0.0,0.0,0.0,0.0,0.0,0.0,0.0,0.0,0.0,0.0,0.0,0.0,0.0,0.0,0.0,0.0,0.0,0.0,0.0,0.0,0.0,0.0,0.0,0.0,0.0,0.0,0.0,0.0,0.0,0.0,0.0,0.0,0.0,0.0,0.0,0.0,0.0,0.0,0.0,0.0,0.0,0.0,0.0,0.0,0.0,0.0,0.0,0.0,0.0,0.0,0.0,0.0,0.0,0.0,0.0,0.0,0.0,0.0,0.0,0.0,0.0,0.0,0.0,0.0,0.0,0.0,0.0,0.0,0.0,0.0,0.0,0.0,0.0,0.0,0.0,0.0,0.0,0.0,0.0,0.0,0.0,0.0,0.0,0.0,0.0,0.0,0.0,0.0,0.0,0.0,0.0,0.0,0.0,0.0,0.0,0.0,0.0,0.0,0.0,0.0,0.0,0.0,0.0,0.0,0.0,0.0,0.0,0.0,0.0,0.0,0.0,0.0,0.0,0.0,0.0,0.0,0.0,0.0,0.0,0.0,0.0,0.0,0.0,0.0,0.0,0.0,0.0,0.0,0.0,0.0,0.0,0.0,0.0,0.0,0.0,0.0,0.0,0.0,0.0,0.0,0.0,0.0,0.0,0.0,0.0,0.0,0.0,0.0,0.0,0.0,0.0,0.0,0.0,0.0,0.0,0.0,0.0,0.0,0.0,0.0,0.0,0.0,0.0,0.0,0.0,0.0,0.0,0.0,0.0,0.0,0.0,0.0,0.0,0.0,0.0,0.0,0.0,0.0,0.0,0.0,0.0,0.0,0.0,0.0,0.0,0.0,0.0,0.0,0.0,0.0,0.0,0.0,0.0,0.0,0.0,0.0,0.0,0.0,0.0,0.0,0.0,0.0,0.0,0.0,0.0,0.0,0.0,0.0,0.0,0.0,0.0,0.0,0.0,0.0,0.0,0.0,0.0,0.0,0.0,0.0,0.0,0.0,0.0,0.0,0.0,0.0,0.0,0.0,0.0,0.0,0.0,0.0,0.0,0.0,0.0,0.0,0.0,0.0,0.0,0.0,0.0,0.0,0.0,0.0,0.0,0.0,0.0,0.0,0.0,0.0,0.0,0.0,0.0,0.0,0.0,0.0,0.0,0.0,0.0,0.0,0.0,0.0,0.0,0.0,0.0,0.0,0.0,0.0,0.0,0.0,0.0,0.0,0.0,0.0,0.0,0.0,0.0,0.0,0.0,0.0,0.0,0.0,0.0,0.0,0.0,0.0,0.0,0.0,0.0,0.0,0.0,0.0,0.0,0.0,0.0,0.0,0.0,0.0,0.0,0.0,0.0,0.0,0.0,0.0,0.0,0.0,0.0,0.0,0.0,0.0,0.0,0.0,0.0,0.0,0.0,0.0,0.0,0.0,0.0,0.0,0.0,0.0,0.0,0.0,0.0,0.0,0.0,0.0,0.0,0.0,0.0,0.0,0.0,0.0,0.0,0.0,0.0,0.0,0.0,0.0,0.0,0.0,0.0,0.0,0.0,0.0,0.0,0.0,0.0,0.0,0.0,0.0,0.0,0.0,0.0,0.0,0.0,0.0,0.0,0.0,0.0,0.0,0.0,0.0,0.0,0.0,0.0,0.0,0.0,0.0,0.0,0.0,0.0,0.0,0.0,0.0,0.0,0.0,0.0,0.0,0.0,0.0,0.0,0.0,0.0,0.0,0.0,0.0,0.0,0.0,0.0,0.0,0.0,0.0,0.0,0.0,0.0,0.0,0.0,0.0,0.0,0.0,0.0,0.0,0.0,0.0,0.0,0.0,0.0,0.0,0.0,0.0,0.0,0.0,0.0,0.0,0.0,0.0,0.0,0.0,0.0,0.0,0.0,0.0,0.0,0.0,0.0,0.0,0.0,0.0,0.0,0.0,0.0,0.0,0.0,0.0,0.0,0.0,0.0,0.0,0.0,0.0,0.0,0.0,0.0,0.0,0.0,0.0,0.0,0.0,0.0,0.0,0.0,0.0,0.0,0.0,0.0,0.0,0.0,0.0,0.0,0.0,0.0,0.0,0.0,0.0,0.0,0.0,0.0,0.0,0.0,0.0,0.0,0.0,0.0,0.0,0.0,0.0,0.0,0.0,0.0,0.0,0.0,0.0,0.0,0.0,0.0,0.0,0.0,0.0,0.0,0.0,0.0,0.0,0.0,0.0,0.0,0.0,0.0,0.0,0.0,0.0,0.0,0.0,0.0,0.0,0.0,0.0,0.0,0.0,0.0,0.0,0.0,0.0,0.0,0.0,0.0,0.0,0.0,0.0,0.0,0.0,0.0,0.0,0.0,0.0,0.0,0.0,0.0,0.0,0.0,0.0,0.0,0.0,0.0,0.0,0.0,0.0,0.0,0.0,0.0,0.0,0.0,0.0,0.0,0.0,0.0,0.0,0.0,0.0,0.0,0.0,0.0,0.0,0.0,0.0,0.0,0.0,0.0,0.0,0.0,0.0,0.0,0.0,0.0,0.0,0.0,0.0,0.0,0.0,0.0,0.0,0.0,0.0,0.0,0.0,0.0,0.0,0.0,0.0,0.0,0.0,0.0,0.0,0.0,0.0,0.0,0.0,0.0,0.0,0.0,0.0,0.0,0.0,0.0,0.0,0.0,0.0,0.0,0.0,0.0,0.0,0.0,0.0,0.0,0.0,0.0,0.0,0.0,0.0,0.0,0.0,0.0,0.0,0.0,0.0,0.0,0.0,0.0,0.0,0.0,0.0,0.0,0.0,0.0,0.0,0.0,0.0,0.0,0.0,0.0,0.0,0.0,0.0,0.0,0.0,0.0,0.0,0.0,0.0,0.0,0.0,0.0,0.0,0.0,0.0,0.0,0.0,0.0,0.0,0.0,0.0,0.0,0.0,0.0,0.0,0.0,0.0,0.0,0.0,0.0,0.0,0.0,0.0,0.0,0.0,0.0,0.0,0.0,0.0,0.0,0.0,0.0,0.0,0.0,0.0,0.0,0.0,0.0,0.0,0.0,0.0,0.0,0.0,0.0,0.0,0.0,0.0,0.0,0.0,0.0,0.0,0.0,0.0,0.0,0.0,0.0,0.0,0.0,0.0,0.0,0.0,0.0,0.0,0.0,0.0,0.0,0.0,0.0,0.0,0.0,0.0,0.0,0.0,0.0,0.0,0.0,0.0,0.0,0.0,0.0,0.0,0.0,0.0,0.0,0.0,0.0,0.0,0.0,0.0,0.0,0.0,0.0,0.0,0.0,0.0,0.0,0.0,0.0,0.0,0.0,0.0,0.0,0.0,0.0,0.0,0.0,0.0,0.0,0.0,0.0,0.0,0.0,0.0,0.0,0.0,0.0,0.0,0.0,0.0,0.0,0.0,0.0,0.0,0.0,0.0,0.0,0.0,0.0,0.0,0.0,0.0,0.0,0.0,0.0,0.0,0.0,0.0,0.0,0.0,0.0,0.0,0.0,0.0,0.0,0.0,0.0,0.0,0.0,0.0,0.0,0.0,0.0,0.0,0.0,0.0,0.0,0.0,0.0,0.0,0.0,0.0,0.0,0.0,0.0,0.0,0.0,0.0,0.0,0.0,0.0,0.0,0.0,0.0,0.0,0.0,0.0,0.0,0.0,0.0,0.0,0.0,0.0,0.0,0.0,0.0,0.0,0.0,0.0,0.0,0.0,0.0,0.0,0.0,0.0,0.0,0.0,0.0,0.0,0.0,0.0,0.0,0.0,0.0,0.0,0.0,0.0,0.0,0.0,0.0,0.0,0.0,0.0,0.0,0.0,0.0,0.0,0.0,0.0,0.0,0.0,0.0,0.0,0.0,0.0,0.0,0.0,0.0,0.0,0.0,0.0,0.0,0.0,0.0,0.0,0.0,0.0,0.0,0.0,0.0,0.0,0.0,0.0,0.0,0.0,0.0,0.0,0.0,0.0,0.0,0.0,0.0,0.0,0.0,0.0,0.0,0.0,0.0,0.0,0.0,0.0,0.0,0.0,0.0,0.0,0.0,0.0,0.0,0.0,0.0,0.0,0.0,0.0,0.0,0.0,0.0,0.0,0.0,0.0,0.0,0.0,0.0,0.0,0.0,0.0,0.0,0.0,0.0,0.0,0.0,0.0,0.0,0.0,0.0,0.0,0.0,0.0,0.0,0.0,0.0,0.0,0.0,0.0,0.0,0.0,0.0,0.0,0.0,0.0,0.0,0.0,0.0,0.0,0.0,0.0,0.0,0.0,0.0,0.0,0.0,0.0,0.0,0.0,0.0,0.0,0.0,0.0,0.0,0.0,0.0,0.0,0.0,0.0,0.0,0.0,0.0,0.0,0.0,0.0,0.0,0.0,0.0,0.0,0.0,0.0,-1.6457,0.0,0.0,0.0,0.0,0.0,0.0,0.0,0.0,0.0,0.0,0.0,0.0,0.0,0.0,0.0,0.0,0.0,0.0,0.0,0.0,0.0,0.0,0.0,0.0,0.0,0.0,0.0,0.0,0.0,0.0,0.0,0.0,0.0,0.0,0.0,0.0,0.0,0.0,1.6603,1.6655,1.6559,1.6387,1.8207,2.0381,2.2731,0.0,0.0,0.0,0.0,0.0,0.0,0.0,0.0,0.0,0.0,0.0,0.0,0.0,0.0,0.0,0.0,0.0,0.0,0.0,0.0,0.0,0.0,0.0,0.0,0.0,0.0,0.0,0.0,0.0,0.0,0.0,0.0,0.0,0.0,0.0,0.0,0.0,0.0,0.0,0.0,0.0,0.0,0.0,0.0,0.0,0.0,0.0,0.0,0.0,0.0,0.0,0.0,0.0,0.0,0.0,0.0,0.0,0.0,0.0,0.0,0.0,0.0,0.0,0.0,0.0,0.0,0.0,0.0,0.0,0.0,0.0,-1.5958,0.0,0.0,0.0,0.0,0.0,0.0,0.0,0.0,0.0,0.0,0.0,0.0,0.0,0.0,0.0,0.0,0.0,0.0,0.0,0.0,0.0,0.0,0.0,1.7845,1.8147,1.7922,1.8123,1.8316,0.0,0.0,0.0,0.0,0.0,0.0,1.5139,1.4567,1.4376,1.4513,1.3544,1.3231,1.3485,1.4451,1.661,1.963,1.9072,0.0,0.0,0.0,0.0,0.0,0.0,0.0,0.0,0.0,0.0,0.0,0.0,0.0,0.0,0.0,0.0,0.0,0.0,0.0,0.0,0.0,0.0,0.0,0.0,0.0,0.0,0.0,0.0,0.0,0.0,0.0,0.0,0.0,0.0,0.0,0.0,0.0,0.0,0.0,0.0,0.0,0.0,0.0,0.0,0.0,0.0,0.0,0.0,0.0,0.0,0.0,0.0,0.0,0.0,0.0,0.0,0.0,0.0,0.0,0.0,0.0,0.0,0.0,-1.7654,-1.8092,-1.8051,-1.8385,-1.7872,-1.684,-1.675,-1.6395,-1.5822,0.0,0.0,0.0,0.0,0.0,0.0,0.0,0.0,0.0,0.0,0.0,0.0,0.0,0.0,0.0,0.0,0.0,0.0,0.0,0.0,0.0,0.0,1.733,1.7581,1.7487,1.7678,1.7505,1.6757,0.0,0.0,0.0,0.0,0.0,1.4131,1.3142,1.2589,1.256,1.1784,1.1506,1.1694,1.0593,1.1175,1.3205,1.4988,1.5989,1.6261,0.0,0.0,0.0,0.0,0.0,0.0,0.0,0.0,0.0,0.0,0.0,0.0,0.0,0.0,0.0,0.0,0.0,0.0,0.0,0.0,0.0,0.0,0.0,0.0,0.0,0.0,0.0,0.0,0.0,0.0,0.0,0.0,0.0,0.0,0.0,0.0,0.0,0.0,0.0,0.0,0.0,-1.3044,-1.2967,0.0,0.0,0.0,0.0,0.0,0.0,0.0,0.0,0.0,0.0,0.0,0.0,0.0,0.0,-1.3998,-1.5239,-1.6313,-1.7081,-1.7578,-1.806,-1.8529,-1.8521,-1.8204,-1.7656,-1.7645,0.0,-1.5349,-1.5746,0.0,0.0,0.0,0.0,0.0,0.0,0.0,0.0,0.0,0.0,0.0,0.0,0.0,0.0,0.0,0.0,0.0,0.0,0.0,0.0,0.0,1.721,1.7488,1.7404,1.757,1.7359,1.6612,1.6449,0.0,0.0,0.0,1.357,1.2413,1.2182,1.2023,1.1975,1.1393,1.0721,0.998,0.8851,0.8354,0.8357,0.9499,1.163,1.4334,1.4084,0.0,0.0,0.0,0.0,0.0,0.0,0.0,0.0,0.0,0.0,0.0,0.0,0.0,0.0,0.0,0.0,0.0,0.0,0.0,0.0,0.0,0.0,0.0,0.0,0.0,0.0,0.0,0.0,0.0,0.0,0.0,0.0,0.0,0.0,0.0,0.0,0.0,0.0,0.0,-1.2841,-1.3146,-1.2777,-1.2784,-1.2558,0.0,0.0,0.0,0.0,0.0,0.0,0.0,0.0,0.0,-1.3655,-1.3918,-1.4277,-1.4665,-1.5545,-1.6373,-1.7172,-1.7871,-1.8352,-1.8732,-1.9004,-1.8838,-1.8367,-1.8367,-1.7819,-1.6932,-1.6343,-1.5577,-1.4761,0.0,0.0,0.0,0.0,0.0,-1.3575,0.0,0.0,0.0,0.0,0.0,0.0,0.0,0.0,0.0,0.0,0.0,0.0,1.646,1.7075,1.7384,1.7015,1.7127,1.6896,1.6087,1.5558,1.4776,1.3606,1.3435,1.2767,1.1404,1.1659,1.1561,1.1038,1.0806,1.0002,0.8664,0.7999,0.6976,0.5636,0.5726,0.797,1.1668,1.1737,1.1704,1.1189,0.0,0.0,0.0,0.0,0.0,0.0,0.0,0.0,0.0,0.0,0.0,0.0,0.0,0.0,0.0,0.0,0.0,0.0,0.0,0.0,0.0,0.0,0.0,0.0,0.0,0.0,0.0,0.0,0.0,0.0,0.0,0.0,0.0,0.0,0.0,0.0,0.0,-1.2575,-1.3097,-1.2606,-1.2722,-1.2576,0.0,0.0,0.0,0.0,0.0,0.0,-1.1725,-1.2254,-1.3001,-1.3962,-1.4171,-1.45,-1.4978,-1.5559,-1.6224,-1.7055,-1.766,-1.8192,-1.8511,-1.8888,-1.8719,-1.8265,-1.8265,-1.8126,-1.7787,-1.6674,-1.6022,-1.5561,-1.4643,-1.4014,-1.3644,-1.4088,-1.4067,-1.3722,0.0,0.0,0.0,0.0,0.0,0.0,0.0,0.0,0.0,0.0,0.0,1.6913,1.5514,1.6687,1.715,1.5969,1.5881,1.5416,1.4293,1.3676,1.304,1.2304,1.2089,1.1968,1.1872,1.1634,1.0696,0.9053,0.946,0.9133,0.8128,0.7844,0.7102,0.6036,0.5395,0.5502,0.5993,0.4639,0.5593,0.7134,-0.2482,0.0,0.0,0.0,0.0,0.0,0.0,0.0,0.0,0.0,0.0,0.0,0.0,0.0,0.0,0.0,0.0,0.0,0.0,0.0,0.0,0.0,0.0,0.0,0.0,0.0,0.0,0.0,0.0,0.0,0.0,0.0,0.0,0.0,0.0,0.0,0.0,0.0,0.0,-1.2189,-1.2827,0.0,0.0,0.0,0.0,-1.0424,-1.0113,-0.9935,-0.9947,-1.1193,-1.1945,-1.2001,-1.3517,-1.426,-1.4126,-1.4784,-1.5659,-1.6958,-1.6708,-1.6982,-1.7785,-1.749,-1.7124,-1.6676,-1.6676,-1.6669,-1.6671,-1.6235,-1.5888,-1.5442,-1.3992,-1.3441,-1.3441,-1.3441,-1.3698,-1.3952,0.0,0.0,0.0,0.0,0.0,0.0,0.0,0.0,1.6045,1.5017,1.5608,1.6203,1.6367,1.6775,1.7023,1.6999,1.6202,1.5229,1.4149,1.3466,1.276,1.1833,1.1836,1.1808,1.1705,1.106,1.0558,1.0228,0.9703,0.8856,0.7822,0.7507,0.7047,0.6453,0.645,0.6474,0.6388,0.536,0.5304,0.5362,-0.0997,-0.2781,0.0,0.0,0.0,0.0,0.0,0.0,0.0,0.0,0.0,0.0,0.0,0.0,0.0,0.0,0.0,0.0,0.0,0.0,0.0,0.0,0.0,0.0,0.0,0.0,0.0,0.0,0.0,0.0,0.0,0.0,0.0,0.0,0.0,0.0,0.0,0.0,0.0,-1.2248,-1.2442,0.0,-1.1021,-1.0791,-1.0545,-1.0183,-1.0341,-1.0643,-1.0942,-1.1366,-1.178,-1.2354,-1.3276,-1.3818,-1.391,-1.4674,-1.519,-1.5646,-1.5923,-1.6169,-1.6465,-1.6757,-1.6649,-1.6373,-1.6497,-1.6462,-1.6359,-1.5851,-1.5708,-1.5743,-1.506,-1.4473,-1.4137,-1.4559,-1.4541,-1.4289,0.0,0.0,0.0,0.0,0.0,0.0,0.0,0.0,1.5558,1.4944,1.5412,1.6039,1.6673,1.6712,1.6823,1.7095,1.5811,1.4586,1.3743,1.2939,1.2234,1.1586,1.1643,1.1712,1.1796,1.123,1.0971,1.1028,1.0181,0.918,0.8045,0.7947,0.7628,0.726,0.7383,0.7511,0.7541,0.7003,0.6018,0.4455,0.0927,-0.0823,-0.2187,0.0,0.0,0.0,0.0,0.0,0.0,0.0,0.0,0.0,0.0,0.0,0.0,0.0,0.0,0.0,0.0,0.0,0.0,0.0,0.0,0.0,0.0,0.0,0.0,0.0,0.0,0.0,0.0,0.0,0.0,0.0,0.0,0.0,0.0,0.0,-1.292,-1.2006,-1.2251,-1.203,-1.0908,-1.0719,-1.0484,-1.0162,-1.0254,-1.0469,-1.085,-1.1101,-1.141,-1.1895,-1.2685,-1.3101,-1.3182,-1.4035,-1.4546,-1.4637,-1.5099,-1.5467,-1.5568,-1.5677,-1.5609,-1.542,-1.5537,-1.5312,-1.4767,-1.4503,-1.4266,-1.4283,-1.4852,-1.4865,-1.4504,-1.4956,-1.4526,-1.3701,0.0,0.0,0.0,0.0,0.0,0.0,0.0,1.5448,1.5238,1.5013,1.5915,1.6487,1.6245,1.6548,1.657,1.608,1.4586,1.3477,1.2933,1.1979,1.1432,1.1507,1.1512,1.1711,1.2187,1.2156,1.1787,1.1137,1.0832,1.0035,0.8745,0.9068,0.8985,0.8561,0.8158,0.8355,0.9042,0.8988,0.7365,0.4577,0.2581,0.3444,0.4914,0.0,0.0,0.0,0.0,0.0,0.0,0.0,0.0,0.0,0.0,0.0,0.0,0.0,0.0,0.0,0.0,0.0,0.0,0.0,0.0,0.0,0.0,0.0,0.0,0.0,0.0,0.0,0.0,0.0,0.0,0.0,0.0,0.0,-1.0593,-1.1505,-1.192,-1.1307,-1.2116,-1.2366,-1.1478,-1.1168,-1.0811,-1.0267,-0.9736,-0.937,-0.9452,-1.0314,-1.0782,-1.0682,-1.1726,-1.2098,-1.1875,-1.2865,-1.3531,-1.377,-1.4273,-1.4663,-1.4909,-1.4104,-1.3804,-1.3791,-1.3513,-1.2859,-1.2027,-1.217,-1.1667,-1.0964,-1.3311,-1.4184,-1.4184,-1.4184,-1.3357,-1.2172,0.0,0.0,0.0,0.0,0.0,0.0,1.6002,1.5551,1.5254,1.4918,1.5544,1.612,1.6389,1.6616,1.664,1.6396,1.4834,1.3629,1.2922,1.2008,1.1486,1.1572,1.1429,1.1767,1.2684,1.219,1.1979,1.2209,1.1028,0.9995,0.9135,0.9531,0.9728,0.9744,0.9994,1.0701,1.156,1.107,1.085,1.0542,0.7482,0.5651,0.4068,0.0,0.0,0.0,0.0,0.0,0.0,0.0,0.0,0.0,0.0,0.0,0.0,0.0,0.0,0.0,0.0,0.0,0.0,0.0,0.0,0.0,0.0,0.0,0.0,0.0,0.0,0.0,0.0,0.0,0.0,0.0,-1.0317,-1.0775,-1.1247,-1.1831,-1.1775,-1.0397,-1.0386,-1.0086,-0.9221,-0.8851,-0.9009,-0.9579,-0.9569,-0.9502,-0.9551,-0.9845,-0.9938,-0.9938,-1.09,-1.1443,-1.1389,-1.2342,-1.2858,-1.2753,-1.2674,-1.2669,-1.2465,-1.1927,-1.1626,-1.1477,-1.1477,-1.1202,-1.0785,-1.0935,-1.0923,-1.0764,-1.1601,-1.1898,-1.1898,-1.2099,-1.2076,-1.2062,0.0,0.0,0.0,0.0,0.0,0.0,1.6512,1.5787,1.5284,1.5072,1.5599,1.6106,1.6454,1.6288,1.6163,1.6245,1.4537,1.3264,1.2647,1.1876,1.147,1.1571,1.1556,1.2073,1.3195,1.2573,1.2343,1.2603,1.1776,1.0731,0.9503,1.0331,1.0782,1.0875,1.1388,1.207,1.2772,1.2523,1.2838,1.3382,1.1141,0.8527,0.5506,0.0817,-0.3099,-0.644,-0.9426,-1.2687,-1.6027,-1.8469,0.0,0.0,0.0,0.0,0.0,0.0,0.0,0.0,0.0,0.0,0.0,0.0,0.0,0.0,0.0,0.0,0.0,0.0,0.0,0.0,0.0,0.0,0.0,0.0,-1.0936,-1.1438,-1.181,-1.2099,-1.1679,-1.0441,-1.0189,-0.981,-0.9158,-0.8878,-0.8979,-0.947,-0.9567,-0.9628,-0.9628,-0.9628,-0.9628,-0.9628,-1.0207,-1.0498,-1.0498,-1.1565,-1.1981,-1.1859,-1.1988,-1.189,-1.1568,-1.1104,-1.0859,0.0,-1.0566,-1.0182,-0.9643,-0.9363,-0.9008,0.0,0.0,0.0,0.0,0.0,-1.0825,-1.1235,0.0,0.0,0.0,0.0,0.0,0.0,1.7151,1.6055,1.5328,1.5359,1.5764,1.6118,1.6281,1.5691,1.5409,1.5651,1.3935,1.2641,1.221,1.1692,1.146,1.1572,1.1841,1.2474,1.3588,1.3074,1.2741,1.2555,1.2597,1.1713,1.0014,1.1248,1.1866,1.1913,1.2477,1.2953,1.3316,1.3671,1.4093,1.4502,1.3836,1.1481,0.8083,0.5796,0.1747,-0.2929,-0.4132,-0.7326,-1.1602,-1.5802,0.0,0.0,0.0,0.0,0.0,0.0,0.0,0.0,0.0,0.0,0.0,0.0,0.0,0.0,0.0,0.0,0.0,0.0,0.0,0.0,0.0,0.0,0.0,0.0,-1.1907,-1.2295,-1.2326,-1.2155,-1.1734,-1.0901,-1.0692,-1.0502,-1.0212,-1.0015,-0.9821,-0.9628,-0.9525,-0.9426,-0.9426,0.0,0.0,0.0,0.0,-0.9426,-0.9426,-1.0493,-1.097,-1.1035,-1.1417,-1.1584,-1.1365,-1.0863,-1.0497,-1.0323,-0.9951,-0.9302,-0.8361,-0.7631,-0.6563,-0.5788,-0.8986,-1.0129,-1.0025,-0.9427,-0.9545,0.0,0.0,0.0,0.0,0.0,0.0,0.0,1.718,1.6159,1.5418,1.5134,1.5123,1.5065,1.4912,1.4701,1.451,1.4293,1.3564,1.2835,1.2182,1.2023,1.1985,1.2158,1.2211,1.2464,1.3016,1.2954,1.2752,1.2414,1.1898,1.1604,1.1578,1.1921,1.2214,1.2623,1.3697,1.4531,1.5065,1.5429,1.6233,1.7086,1.5223,1.2354,0.9059,0.8231,0.5423,0.1701,0.0436,-0.2491,-0.6101,-0.9025,-1.1774,-1.4654,-1.86,-2.0012,0.0,0.0,0.0,0.0,0.0,0.0,0.0,0.0,0.0,0.0,0.0,0.0,0.0,0.0,0.0,0.0,0.0,0.0,0.0,-1.2058,-1.2569,-1.2811,-1.2455,-1.2569,-1.2047,-1.0418,-0.9768,-0.9399,-0.9106,-0.8909,-0.9015,-0.9821,-0.892,-0.8322,-0.8322,-0.7521,0.0,-0.7021,-0.7822,-0.8322,-0.8322,-0.9418,-0.9841,-0.9786,0.0,0.0,-0.9254,-0.8865,-0.8591,-0.8493,-0.7546,-0.7048,-0.6645,-0.5707,-0.5175,-0.517,-0.5776,-0.6112,-0.6427,-0.7389,-0.7951,-0.8247,0.0,0.0,0.0,0.0,0.0,0.0,1.81,1.6619,1.5551,1.5329,1.5138,1.4913,1.4726,1.4348,1.4045,1.3763,1.3097,1.2635,1.2657,1.2278,1.2223,1.268,1.2516,1.2598,1.2964,1.2983,1.2941,1.2871,1.2529,1.2246,1.2012,1.2458,1.2783,1.3086,1.4382,1.5175,1.5486,1.6197,1.6722,1.7071,1.599,1.3794,1.1024,0.9541,0.7373,0.4916,0.3279,0.0697,-0.2434,-0.5503,-0.8006,-1.0814,-1.6282,-1.8298,-1.9126,0.0,0.0,0.0,0.0,0.0,0.0,0.0,0.0,0.0,0.0,0.0,0.0,0.0,0.0,-1.3512,-1.2671,0.0,-1.2781,-1.3002,-1.336,-1.357,-1.3182,-1.2997,-1.2268,-1.0783,-1.0293,-0.9866,-0.9681,-0.9158,-0.8981,-0.9397,-0.8583,-0.7928,-0.763,-0.7129,-0.6699,-0.6339,-0.6831,-0.7095,-0.7124,-0.7611,-0.7863,-0.7784,-0.7614,-0.7353,-0.7184,-0.6956,-0.6802,-0.6706,-0.6189,-0.579,-0.5521,-0.4353,-0.3836,-0.3725,-0.3598,-0.4359,-0.5463,-0.6114,-0.6433,-0.6719,0.0,0.0,0.0,0.0,0.0,0.0,0.0,1.7188,1.5772,1.5566,1.5248,1.4972,1.4761,1.4195,1.374,1.3484,1.271,1.2479,1.3018,1.2494,1.2418,1.2972,1.2722,1.274,1.3065,1.3151,1.3171,1.316,1.3323,1.3084,1.2496,1.3191,1.3494,1.3563,1.4952,1.5562,1.5685,1.655,1.686,1.6699,1.6449,1.52,1.3142,1.0398,0.8441,0.6931,0.5124,0.2857,0.0252,-0.3012,-0.4822,-0.6865,-1.3258,-1.5828,-1.7166,-2.0644,-2.1698,0.0,0.0,0.0,0.0,0.0,0.0,0.0,0.0,-1.6741,-1.6257,-1.5406,-1.4811,-1.4348,-1.4006,-1.3731,-1.3568,-1.3725,-1.3915,-1.3929,-1.3785,-1.3165,-1.2427,-1.1361,-1.1016,-1.0766,-1.0568,-0.9719,-0.9077,-0.8975,-0.8119,-0.7496,-0.7096,-0.6822,-0.6479,-0.5869,-0.606,-0.6112,-0.5921,-0.6086,-0.6156,-0.6131,-0.6007,-0.5844,-0.5644,-0.5638,-0.5596,-0.5416,-0.5237,-0.4966,-0.4459,-0.3474,-0.2763,-0.2439,-0.2439,-0.3481,-0.5082,-0.5122,-0.5226,-0.5412,0.0,0.0,0.0,0.0,0.0,0.0,0.0,0.0,1.6398,1.5461,1.5051,1.4671,1.4257,1.3873,1.348,1.3029,1.2827,1.2661,1.2496,1.2636,1.2711,1.2686,1.2895,1.3008,1.29,1.327,1.3251,1.2764,1.3173,1.366,1.4145,1.4204,1.4442,1.4746,1.5739,1.6269,1.6461,1.7203,1.777,1.8012,1.651,1.5469,1.4489,1.1171,0.8823,0.7233,0.626,0.4397,0.2151,0.0183,-0.1096,-0.2602,-0.6417,-0.9703,-1.2831,-1.6561,-1.9119,-2.0762,-2.081,-1.9557,-1.8476,-1.9558,-1.8946,-1.8106,0.0,-1.767,-1.6846,-1.593,-1.5638,-1.5432,-1.4697,-1.4497,-1.4281,-1.4121,-1.3781,-1.3411,-1.3205,-1.2934,-1.2395,-1.1379,-1.1094,-1.0844,-1.0631,-0.969,-0.9194,-0.9244,-0.7527,-0.6471,-0.6371,-0.5584,-0.4794,-0.4213,-0.5087,-0.5373,-0.4878,-0.5746,-0.6112,-0.6001,-0.5967,-0.5766,-0.5578,-0.5564,-0.5559,-0.5559,-0.4695,-0.3821,-0.3026,-0.2867,-0.268,-0.2692,-0.2692,-0.2779,-0.3137,-0.4049,-0.4461,-0.455,0.0,0.0,0.0,0.0,0.0,0.0,0.0,0.0,0.0,1.5757,1.5589,1.5269,1.4314,1.3648,1.3232,1.3025,1.2908,1.2938,1.312,1.3007,1.304,1.3343,1.3205,1.3107,1.3084,1.3224,1.3488,1.379,1.3634,1.3931,1.4678,1.4678,1.4796,1.4932,1.6098,1.6588,1.6727,1.7365,1.7604,1.7503,1.6305,1.5377,1.4357,1.1833,0.9833,0.8069,0.6312,0.467,0.0,0.1928,0.0565,-0.1017,-0.3938,-0.5026,-0.6718,-1.4314,-1.5898,-1.6025,-1.9814,-2.0189,-1.953,-1.9684,-1.9789,-1.9686,-1.8863,-1.8313,-1.7686,-1.683,-1.611,-1.5515,-1.5239,-1.488,-1.4539,-1.4247,-1.4099,-1.3896,-1.3343,-1.2921,-1.236,-1.1543,-1.0543,-0.9952,-0.9831,-0.8741,-0.8041,-0.7919,-0.6871,-0.6091,-0.5871,-0.5429,-0.4888,-0.4173,-0.4639,-0.456,-0.3862,-0.4269,-0.4406,-0.4108,-0.407,-0.4032,-0.3916,-0.3916,-0.3916,-0.3912,-0.3444,-0.2863,-0.2126,-0.2051,-0.1887,-0.1594,-0.1573,-0.1578,-0.1768,-0.2918,-0.3341,-0.3389,0.0,0.0,0.0,0.0,0.0,0.0,0.0,0.0,0.0,0.0,1.6441,1.6131,1.4716,1.3684,1.3141,1.3141,1.3012,1.3067,1.3374,1.316,1.3133,1.3417,1.3248,1.3153,1.3074,1.3326,1.3771,1.4437,1.4009,1.4263,1.5032,1.5032,1.5158,1.5352,1.6216,1.6675,1.6878,1.7216,1.7153,1.677,1.6131,1.5057,1.3708,1.2202,1.0506,0.8727,0.6425,0.4835,0.3652,0.2787,0.162,0.0157,-0.1931,-0.2069,-0.3235,-1.2068,-1.4287,-1.479,-1.9039,-2.0362,-2.0436,-1.9945,-2.044,-2.0709,-1.931,-1.8756,-1.8308,-1.721,-1.6266,-1.5538,-1.5251,-1.4825,-1.439,-1.3987,-1.4111,-1.3979,-1.3395,-1.2961,-1.236,-1.1577,-1.0223,-0.9345,-0.9183,-0.7878,-0.7041,-0.7151,-0.6465,-0.5839,-0.5546,-0.5575,-0.5329,-0.4623,-0.4593,-0.4212,-0.3594,-0.3569,-0.3381,-0.3028,-0.301,-0.2999,-0.2999,-0.2916,-0.2759,-0.2689,-0.2479,-0.207,-0.1677,-0.1459,-0.1142,-0.0755,-0.0742,-0.0742,-0.0915,-0.1832,-0.2151,-0.2133,0.0,0.0,0.0,0.0,0.0,0.0,0.0,0.0,0.0,0.0,0.0,0.0,0.0,1.3973,1.3198,1.3198,1.3129,1.2955,1.2662,1.2847,1.2796,1.2283,1.2915,1.3141,1.2822,1.3634,1.4003,1.3902,1.426,1.4797,1.5395,1.5395,1.5751,1.6374,1.6192,1.6437,1.6987,1.6698,1.6514,1.6394,1.6039,1.4658,1.2669,1.2104,1.0673,0.8756,0.7025,0.5254,0.3661,0.2811,0.2209,0.1656,0.0554,-0.1365,-0.4207,-0.9297,-1.5292,-2.0067,-1.897,-1.9522,-2.0436,-2.0621,-2.0692,-2.0456,-1.9609,-1.9137,-1.8424,-1.6853,-1.6134,-1.5439,-1.4455,-1.4233,-1.4012,-1.3352,-1.3325,-1.3378,-1.3247,-1.2763,-1.2172,-1.1271,-1.0231,-0.9494,0.0,-0.7442,-0.6692,-0.7428,-0.6373,-0.5746,-0.566,-0.5855,-0.5634,-0.5076,-0.4978,-0.4743,-0.42,-0.4114,-0.403,-0.3865,-0.3864,-0.3903,-0.3822,-0.3412,-0.3044,-0.2692,-0.2016,-0.168,-0.1681,-0.1091,-0.0839,-0.084,-0.0839,-0.0745,-0.0731,-0.0731,-0.0824,-0.0839,0.0,0.0,0.0,0.0,0.0,0.0,0.0,0.0,0.0,0.0,0.0,0.0,0.0,0.0,0.0,0.0,1.3163,1.3129,1.3012,1.3067,1.3071,1.2927,1.2896,1.2853,1.2807,1.3118,1.3443,1.3713,1.4164,1.4614,1.5161,1.5225,1.5371,1.5645,1.6234,1.6414,1.6269,1.6552,1.6546,1.627,1.4933,1.4033,1.3369,1.1694,1.0257,0.8981,0.0,0.6352,0.5442,0.4036,0.3363,0.2981,0.2087,0.3122,0.335,-0.323,-0.9519,-1.517,-1.8906,-2.0499,-2.1097,-2.1241,-2.1523,-2.1475,-2.059,-1.9658,-1.8555,-1.7179,-1.5879,-1.4813,-1.4118,-1.3778,-1.3523,-1.3328,-1.3564,-1.3586,-1.3285,-1.306,-1.2544,-1.1582,-1.075,-1.0127,0.0,0.0,0.0,-0.7333,-0.681,-0.6291,-0.5866,-0.5733,-0.5545,-0.5292,-0.5326,-0.4979,-0.4351,-0.4383,-0.4269,-0.3854,-0.3824,-0.381,-0.3808,-0.3589,-0.3454,-0.3367,-0.2406,-0.1794,-0.1362,-0.0466,0.0155,0.0549,0.054,0.0539,0.0542,0.0533,0.0544,0.0482,0.0,0.0,0.0,0.0,0.0,0.0,0.0,0.0,0.0,0.0,0.0,0.0,0.0,0.0,0.0,0.0,0.0,1.3198,1.3198,1.3232,1.3196,1.3057,1.3024,1.2764,1.2345,1.2542,1.2644,1.2658,1.3149,1.3784,1.456,1.4689,1.4993,1.5465,1.6162,1.621,1.5775,1.6199,1.6125,1.5553,1.4146,1.346,1.3042,1.1331,1.0114,0.0,0.8011,0.7362,0.6799,0.5055,0.4414,0.4237,0.3513,0.4752,0.561,0.1269,-0.5139,-1.1591,-1.5187,-1.8727,-2.1449,-2.1433,-2.1485,-2.1295,-2.0386,-1.9329,-1.8172,-1.6833,-1.5434,-1.4299,-1.3681,-1.3302,-1.305,-1.2929,-1.3247,-1.3381,-1.3063,-1.2878,-1.2526,-1.1781,-1.1304,-1.0971,-1.0653,-0.9857,0.0,-0.7484,-0.7252,-0.6763,-0.5919,-0.5715,-0.5557,-0.5602,-0.5423,-0.5183,-0.4799,-0.4789,-0.4651,-0.4233,-0.4233,-0.4153,-0.3992,-0.3897,-0.3812,-0.3629,-0.2519,-0.1853,-0.1371,-0.0,0.0809,0.1194,0.1174,0.1179,0.1194,0.1174,0.1191,0.115,0.0,0.0,0.0,0.0,0.0,0.0,0.0,0.0,0.0,0.0,0.0,0.0,0.0,0.0,0.0,0.0,0.0,0.0,1.3198,1.3323,1.3173,1.2638,1.318,1.2871,1.1527,1.1948,1.1787,1.0891,1.1454,1.2413,1.3663,1.3871,1.4618,1.5846,1.5936,1.5767,1.536,1.5694,1.5268,1.4326,1.369,1.2796,1.1844,1.1073,1.014,0.9199,0.8675,0.8193,0.7572,0.5776,0.5275,0.5371,0.4981,0.4023,0.3238,0.4246,-0.1832,-0.8777,-0.829,-1.4349,-2.0826,-2.1,-2.0689,-2.0106,-1.9006,-1.8215,-1.7327,-1.5745,-1.4766,-1.3914,-1.309,-1.2776,-1.2492,-1.21,-1.2506,-1.2741,-1.2557,-1.2283,-1.213,-1.1979,-1.1968,-1.1939,-1.1822,-1.18,0.0,-0.8161,0.0,-0.7166,-0.5919,-0.5788,-0.5742,-0.5855,-0.5465,-0.5295,-0.5521,-0.5292,-0.5124,-0.5015,-0.5018,-0.4779,-0.4457,-0.428,-0.4006,-0.362,-0.2424,-0.1962,-0.1745,0.0363,0.109,0.1018,0.109,0.109,0.1091,0.1163,0.1164,0.117,0.0,0.0,0.0,0.0,0.0,0.0,0.0,0.0,0.0,0.0,0.0,0.0,0.0,0.0,0.0,0.0,0.0,0.0,1.345,1.3425,1.3242,1.2826,1.2971,1.2579,1.1579,1.2141,1.1903,1.0891,1.1899,1.271,1.3328,1.3173,1.3861,1.5126,1.4858,1.4765,1.4807,1.4674,1.4494,1.4136,1.2677,1.2057,1.1848,1.0724,0.9769,0.899,0.8341,0.7731,0.7139,0.6542,0.6639,0.7159,0.7946,0.9856,1.1265,0.8699,0.7729,0.5309,-0.4669,-0.9342,-1.2807,-1.8858,-2.0139,-1.9643,-1.8526,-1.7706,-1.673,-1.4979,-1.4175,-1.3495,-1.2464,-1.2358,-1.2545,-1.2724,-1.3197,-1.3568,-1.3568,-1.3494,-1.323,-1.2629,-1.2771,-1.2674,-1.1945,-1.2243,0.0,0.0,-0.8976,-0.8077,-0.7175,-0.6165,-0.5677,-0.5707,-0.5654,-0.5574,-0.5388,-0.5167,-0.5123,-0.5246,-0.5093,-0.4937,-0.4854,-0.4738,-0.4608,-0.4445,-0.3311,-0.2712,-0.2394,-0.0837,-0.0278,-0.0353,0.0693,0.0557,-0.0141,0.0763,0.1129,0.1091,0.0,0.0,0.0,0.0,0.0,0.0,0.0,0.0,0.0,0.0,0.0,0.0,0.0,0.0,0.0,0.0,0.0,0.0,0.0,1.3621,1.3424,1.3275,1.3089,1.2591,1.1726,1.2005,1.1593,1.0427,1.1958,1.2807,1.3002,1.3345,1.4003,1.488,1.4437,1.4237,1.4215,1.3902,1.3626,0.0,0.0,1.144,1.1256,1.038,0.9607,0.8958,0.8553,0.8211,0.7828,0.7627,0.7914,0.8629,0.9896,1.2681,1.5303,1.4378,1.3546,1.0651,0.0175,-0.5221,-0.9739,-1.7549,-1.8996,-1.8284,-1.7068,-1.6281,-1.5448,-1.424,-1.3522,-1.2925,-1.2478,-1.2428,-1.2502,-1.2687,-1.3197,-1.3586,-1.3651,-1.3569,-1.3381,-1.3164,-1.329,-1.3215,-1.2579,-1.2709,-1.2503,0.0,-1.0512,-0.9155,-0.7778,-0.698,-0.627,-0.5801,-0.5738,-0.5632,-0.5401,-0.5378,-0.5378,-0.5401,-0.5246,-0.5171,-0.5087,-0.4887,-0.4806,-0.4743,0.0,-0.3574,-0.3231,-0.1225,-0.0814,-0.1444,-0.1356,-0.102,-0.0549,0.0474,0.0825,0.0844,0.0,0.0,0.0,0.0,0.0,0.0,0.0,0.0,0.0,0.0,0.0,0.0,0.0,0.0,0.0,0.0,0.0,0.0,0.0,0.0,1.368,1.3655,1.3263,1.2687,1.1801,1.1808,1.1217,0.9966,1.1774,1.2643,1.2651,1.3597,1.4264,1.4721,1.4109,1.3746,1.351,1.3162,1.278,1.2407,1.1642,1.1065,1.0615,0.0,0.9703,0.9011,0.8921,0.8915,0.8914,0.8685,0.9111,0.991,1.1259,1.3857,1.6947,1.9829,1.7572,1.2621,0.5392,-0.1134,-0.7883,-1.6175,-1.7541,-1.6549,-1.5314,-1.4559,-1.3979,-1.3501,-1.2833,-1.241,-1.268,-1.2546,-1.2424,-1.2434,-1.2878,-1.3296,-1.3369,-1.322,-1.3279,-1.3432,-1.363,-1.3669,-1.3367,-1.3209,-1.3175,-1.3151,-1.2024,-1.0415,-0.8291,-0.7865,-0.7232,-0.6128,-0.574,-0.5594,-0.5687,-0.572,-0.572,-0.561,-0.5375,-0.5295,-0.5289,-0.4955,-0.4757,-0.4695,0.0,0.0,-0.4108,-0.1477,-0.1209,-0.249,-0.3787,-0.2969,-0.0873,0.0067,0.0404,0.0404,0.0,0.0,0.0,0.0,0.0,0.0,0.0,0.0,0.0,0.0,1.7912,1.6831,0.0,0.0,0.0,0.0,0.0,0.0,0.0,0.0,0.0,1.3305,1.3123,1.2598,1.1754,1.1826,1.1549,1.0878,1.1448,1.1894,1.2215,1.2072,1.2659,1.3841,1.2541,1.2257,1.268,1.2244,1.2108,1.22,1.1871,1.1634,1.1437,1.1113,0.0,0.0,0.8433,0.8454,0.8863,0.9039,1.0081,1.1516,1.2666,1.5336,1.8511,2.1197,2.3223,2.1817,0.9098,0.4798,0.0745,-1.2516,-1.6034,-1.5846,-1.4373,-1.3916,-1.3535,-1.2562,-1.2442,-1.2374,-1.1823,-1.1881,-1.2158,-1.259,-1.3094,-1.3514,-1.3668,-1.3949,-1.3931,-1.3575,-1.4221,-1.4351,-1.3572,-1.385,-1.3726,0.0,0.0,-1.1753,-1.0423,-0.874,-0.7293,-0.6298,-0.5806,-0.5651,-0.5917,-0.5642,-0.5563,-0.5685,-0.5466,-0.5315,-0.5159,-0.5061,-0.4854,-0.4507,0.0,0.0,-0.4167,-0.2948,-0.3017,-0.3966,-0.418,-0.3565,-0.2278,-0.0537,-0.0134,-0.0336,0.0,0.0,0.0,0.0,0.0,0.0,0.0,2.1078,2.0788,2.0123,1.9097,1.7864,1.6352,1.6136,0.0,0.0,0.0,0.0,0.0,0.0,0.0,1.3929,1.3431,1.2977,1.2531,1.2652,1.2454,1.1865,0.0,1.3073,1.2748,1.2949,1.3269,1.3586,1.2329,1.211,1.2658,1.169,1.1307,1.1362,1.146,1.1039,1.0472,1.1006,0.0,0.0,0.8604,0.8633,0.9063,0.9299,1.0473,1.1984,1.2657,1.5683,1.9361,2.123,2.4072,2.4434,1.439,0.9268,0.4187,-0.6584,-1.2055,-1.4457,-1.3201,-1.2678,-1.2407,-1.1976,-1.1801,-1.1702,-1.1647,-1.183,-1.2007,-1.2119,-1.2781,-1.3438,-1.3918,-1.4064,-1.4363,-1.4735,-1.5055,-1.5105,-1.4807,-1.4609,-1.4186,-1.3542,0.0,-1.1979,-1.0703,-0.8694,-0.7343,-0.676,-0.6099,-0.584,-0.5911,-0.5692,-0.5728,-0.5874,-0.558,-0.5439,-0.528,-0.5127,-0.4916,-0.4477,-0.4671,0.0,-0.4233,-0.3825,-0.3892,-0.4303,-0.4311,-0.4036,-0.3489,-0.2552,-0.188,-0.1208,0.0,0.0,0.0,0.0,0.0,0.0,0.0,2.2168,2.2016,2.1302,1.9967,1.8594,1.7249,1.6573,1.6303,0.0,0.0,0.0,0.0,0.0,0.0,0.0,0.0,0.0,1.2892,0.0,0.0,1.2346,1.3495,0.0,0.0,0.0,0.0,0.0,1.1947,1.1748,1.2128,1.1147,1.0606,0.0,0.0,1.0268,0.9306,0.0,0.0,0.0,0.0,0.9089,0.9503,0.9557,1.063,1.1994,1.1751,1.5205,1.9515,2.0525,2.3296,2.4605,1.8125,1.2927,0.7237,-0.1466,-0.7341,-1.1149,-1.1758,-1.1478,-1.1176,-1.1456,-1.1214,-1.1058,-1.153,-1.1789,-1.1842,-1.164,-1.2327,-1.3176,-1.3901,-1.4003,-1.4556,-1.5857,-1.5931,-1.5931,-1.6105,-1.5517,-1.4887,-1.441,0.0,0.0,-1.0462,-0.881,-0.7667,-0.7149,-0.6588,-0.6149,-0.5823,-0.5823,-0.5813,-0.5935,-0.5673,-0.5535,-0.5421,-0.5197,-0.485,-0.4508,-0.4632,0.0,0.0,-0.43,-0.43,-0.4303,-0.4308,-0.4308,-0.4303,-0.4308,-0.3429,-0.2079,0.0,0.0,0.0,0.0,0.0,0.0,0.0,2.2111,2.1935,2.2233,2.0193,1.8418,1.7544,1.6771,1.6344,0.0,0.0,0.0,0.0,0.0,0.0,0.0,0.0,0.0,0.0,0.0,0.0,1.1575,1.1457,0.0,0.0,0.0,0.0,0.0,0.0,0.9893,0.9947,1.0392,0.0,0.0,0.0,0.0,0.0,0.0,0.0,0.0,0.0,0.959,1.0301,0.9919,1.0776,1.1732,1.003,1.373,1.8755,1.9194,2.2367,2.421,1.7217,1.5888,1.3315,0.0203,-0.2777,-0.409,-1.0004,-1.0711,-1.0303,-1.0874,-1.1023,-1.1088,-1.1071,-1.142,-1.1716,-1.1624,-1.1986,-1.2589,-1.3518,-1.3811,-1.4405,-1.5743,-1.6459,-1.6825,-1.66,-1.6715,-1.6228,-1.4673,0.0,0.0,-1.0257,-0.9752,-0.8832,-0.742,-0.7026,-0.6463,-0.5807,-0.5807,-0.5748,-0.563,-0.5616,-0.5474,-0.5345,-0.5069,-0.4849,-0.4584,0.0,0.0,0.0,-0.43,-0.43,-0.43,-0.4303,-0.4303,-0.43,-0.4303,-0.3692,-0.3015,0.0,0.0,0.0,0.0,0.0,0.0,2.2168,2.2506,2.2797,2.3087,2.1066,1.8957,1.7204,1.5583,1.4792,0.0,0.0,0.0,0.0,0.0,0.0,0.0,0.0,0.0,0.0,0.0,1.0441,1.0557,1.0132,0.0,0.0,0.0,0.0,0.0,0.0,0.8735,0.8855,0.8753,0.0,0.0,0.0,0.0,0.0,0.0,0.0,0.0,0.0,0.0,0.9193,0.9191,1.0161,1.1245,1.0293,1.302,1.6655,1.7291,2.0843,2.4128,2.2216,1.9512,1.4998,0.5738,0.0869,-0.3336,-0.9787,-1.0609,-1.0165,-1.0765,-1.0842,-1.0856,-1.1093,-1.1327,-1.1409,-1.1035,-1.1679,-1.2348,-1.2789,-1.3724,-1.4797,-1.603,-1.6775,-1.7179,-1.7288,-1.6862,-1.5962,-1.4462,0.0,0.0,-1.151,-1.0374,-0.9396,-0.8564,-0.7992,-0.7292,-0.6443,-0.6372,-0.6158,-0.5721,-0.5562,-0.543,-0.5306,-0.5237,-0.5024,-0.4703,0.0,0.0,0.0,-0.4364,-0.43,-0.43,-0.43,-0.43,-0.43,-0.43,-0.4097,-0.3825,0.0,0.0,0.0,0.0,0.0,2.0862,2.1267,2.2242,2.2952,2.3,2.0158,1.7391,1.5491,1.2215,1.009,1.007,0.0,0.0,0.0,0.0,0.0,0.0,0.0,0.0,0.0,0.0,0.8378,0.8113,0.7933,0.7711,0.0,0.0,0.6903,0.6849,0.0,0.0,0.0,0.0,0.0,0.0,0.0,0.0,0.0,0.0,0.0,0.0,0.0,0.0,0.0,0.0,0.0,1.0373,1.0151,1.1895,1.4259,1.564,1.948,2.3486,2.448,2.2352,1.786,0.9674,0.4565,-0.0573,-0.8814,-1.0182,-0.9848,-1.0331,-1.0478,-1.0605,-1.0895,-1.1206,-1.1256,-1.073,-1.1472,-1.222,-1.2469,-1.3511,-1.4722,-1.5985,-1.6597,-1.7053,-1.7345,-1.6612,-1.5663,0.0,0.0,0.0,0.0,-1.1212,-1.0212,-0.946,-0.8877,-0.8166,-0.7316,-0.6985,-0.6593,-0.6048,-0.5673,-0.5413,-0.5313,-0.5242,-0.5119,-0.49,0.0,0.0,0.0,-0.4498,-0.4431,-0.4364,-0.4364,-0.4364,-0.43,-0.43,-0.43,-0.43,0.0,0.0,0.0,0.0,0.0,0.0,1.954,2.0997,2.1984,2.1655,1.6743,1.2928,1.206,0.612,0.1666,0.0246,0.0,0.0,0.0,0.0,0.0,0.0,0.0,0.0,0.0,0.0,0.4549,0.3987,0.4425,0.4421,0.3937,0.3019,0.2625,0.2651,0.0,0.0,0.0,0.0,0.0,0.0,0.0,0.0,0.0,0.0,0.0,0.0,0.0,0.0,0.0,0.0,0.0,0.0,0.0,1.0101,1.1664,1.4398,1.8432,2.1987,2.1869,2.398,2.3183,1.0635,0.8511,0.6139,-0.66,-0.9238,-0.9062,-0.9279,-0.9913,-1.038,-1.0322,-1.0905,-1.1256,-1.0856,-1.1409,-1.2126,-1.2711,-1.3209,-1.407,-1.5644,-1.5988,-1.6198,-1.6503,-1.598,-1.5548,0.0,0.0,0.0,0.0,-1.2266,-1.1524,-0.9837,-0.9582,-0.9069,-0.8166,-0.7507,-0.7051,-0.6658,-0.5939,-0.5554,-0.5362,-0.5226,-0.509,0.0,0.0,0.0,0.0,-0.4764,-0.4694,-0.4625,-0.4625,-0.4495,-0.43,-0.43,-0.43,-0.43,0.0,0.0,0.0,0.0,0.0,0.0,0.0,1.5203,1.3532,1.427,0.8776,0.4125,0.2323,0.0077,-0.2258,-0.4597,0.0,0.0,0.0,0.0,0.0,0.0,0.0,0.0,0.0,0.0,0.0913,0.1519,0.049,-0.0054,-0.0215,-0.0489,-0.1289,-0.2397,-0.2613,-0.3257,0.0,0.0,0.0,0.0,0.0,0.0,0.0,0.0,0.0,0.0,0.0,0.0,0.0,0.0,0.0,0.0,0.0,0.0,0.0,1.3167,1.6251,1.9175,2.07,2.2314,2.1666,1.3786,0.9825,0.5699,-0.261,-0.6946,-0.9231,-0.9399,-1.0349,-1.0994,-1.0478,-1.1358,-1.1881,-1.0946,-1.1644,-1.2319,-1.2436,-1.3817,-1.5023,-1.5593,-1.6289,-1.6554,0.0,0.0,0.0,0.0,0.0,0.0,0.0,-1.2527,-1.1398,-1.0247,-1.0316,-0.9876,-0.8816,-0.8665,-0.8355,-0.7707,-0.6859,-0.64,-0.6268,-0.5679,0.0,0.0,0.0,0.0,0.0,-0.4586,-0.4443,-0.4301,-0.4173,-0.4163,-0.4175,-0.4175,-0.423,-0.43,0.0,0.0,0.0,0.0,0.0,0.0,0.0,1.001,0.7903,0.6946,0.1926,-0.2237,-0.4025,-0.6229,-0.8415,-1.0531,0.0,0.0,0.0,0.0,0.0,0.0,0.0,0.0,0.0,-0.3832,-0.3597,-0.3093,-0.3934,-0.4517,-0.473,-0.508,-0.5779,-0.6694,-0.729,-0.8008,0.0,0.0,0.0,0.0,0.0,0.0,-0.6613,0.0,0.0,0.0,0.0,0.0,0.0,0.0,0.0,0.0,0.0,0.0,0.0,0.0,1.4298,1.6702,1.9078,2.0967,2.0876,1.512,1.0308,0.5378,-0.0731,-0.5901,-0.9439,-0.9439,-1.032,-1.0954,-1.0439,-1.1155,-1.1601,-1.0925,-1.1669,-1.2349,-1.2401,-1.3862,-1.4985,-1.5241,-1.5731,-1.59,0.0,0.0,0.0,0.0,0.0,0.0,0.0,0.0,-1.1807,-1.053,-1.0541,-1.0188,-0.9402,-0.9364,-0.8989,-0.8413,-0.7663,-0.7075,-0.6552,-0.6043,0.0,0.0,0.0,0.0,0.0,-0.5126,-0.4927,-0.4366,-0.4421,-0.4411,-0.437,-0.4414,-0.442,-0.4501,0.0,0.0,0.0,0.0,0.0,0.0,0.0,0.0,0.4179,-0.0325,-0.422,-0.6961,-0.7966,-1.2546,-1.5983,-1.7004,0.0,0.0,0.0,0.0,0.0,0.0,0.0,0.0,-0.9714,-0.8848,-0.8669,-0.9134,-0.8736,-0.8826,-0.9485,-1.0386,-1.0672,-1.0515,-1.1935,-1.2699,0.0,0.0,0.0,0.0,0.0,0.0,0.0,0.0,0.0,0.0,0.0,0.0,0.0,0.0,0.0,0.0,0.0,0.0,0.0,0.0,0.0,0.0,0.0,1.9869,2.0701,1.499,1.02,0.5346,-0.059,-0.5895,0.0,-0.9395,-1.0018,-1.0498,-1.0409,-1.0603,-1.0833,-1.0916,-1.1531,-1.2156,-1.2625,-1.3569,-1.4405,-1.4743,-1.4751,0.0,-1.4697,0.0,0.0,0.0,0.0,0.0,0.0,0.0,-1.2546,-1.0816,-1.0353,-1.0079,-0.9877,-0.9503,-0.9205,-0.8894,-0.8323,-0.7487,-0.6554,-0.6371,0.0,0.0,0.0,0.0,0.0,-0.6186,-0.5871,-0.4663,-0.5076,-0.5026,-0.4763,-0.4827,-0.4822,-0.4795,0.0,0.0,0.0,0.0,0.0,0.0,0.0,0.0,0.0,0.0,-1.3099,-1.6297,-1.6649,-1.7506,-1.835,0.0,0.0,0.0,0.0,0.0,0.0,0.0,0.0,0.0,-1.3066,-1.2556,-1.2062,-1.1659,-1.2119,-1.2616,-1.3066,-1.3422,-1.4316,-1.5659,-1.6023,-1.6609,0.0,0.0,0.0,0.0,0.0,0.0,0.0,0.0,0.0,0.0,-1.0629,-0.6643,0.0,0.0,0.0,0.0,0.0,0.0,0.0,0.0,1.162,1.2689,1.5808,0.0,1.9697,1.5287,1.1004,0.6283,0.0,-0.5342,-0.9392,-1.0086,-1.1099,-1.1675,-1.1089,-1.1323,-1.1516,-1.1184,-1.1581,-1.2313,-1.3493,-1.4844,-1.5695,-1.5623,-1.5747,-1.5432,-1.4413,0.0,0.0,0.0,0.0,0.0,0.0,0.0,-1.2452,-1.126,-1.0637,-1.0134,-0.9729,-0.9741,-0.9708,-0.9649,-0.8819,-0.8269,-0.7909,-0.72,0.0,0.0,0.0,0.0,-0.5595,-0.5903,-0.5625,-0.5,-0.4688,-0.4559,-0.4566,-0.4601,-0.4629,-0.4747,0.0,0.0,0.0,0.0,0.0,0.0,0.0,0.0,0.0,0.0,0.0,0.0,0.0,0.0,0.0,0.0,0.0,0.0,0.0,0.0,0.0,0.0,0.0,-1.6128,-1.5986,-1.5611,-1.5238,-1.4877,-1.5331,-1.5691,-1.5973,-1.6309,-1.6956,-1.7834,-1.8516,-1.9401,0.0,0.0,0.0,0.0,-2.081,0.0,0.0,0.0,0.0,0.0,-1.4726,-1.1345,0.0,-0.6039,-0.3018,0.0743,0.0,0.0,0.0,0.0,1.0069,1.1377,1.5613,1.8147,1.8689,1.4954,1.072,0.5862,-0.0239,-0.5738,-0.9698,-1.0168,-1.1004,-1.1496,-1.0888,-1.1394,-1.1848,-1.1627,-1.2222,-1.3063,-1.4129,-1.4869,-1.5313,-1.5369,-1.5464,-1.5219,0.0,0.0,0.0,0.0,0.0,0.0,0.0,0.0,-1.2719,-1.1792,-1.1183,-1.0423,-0.9564,-0.9771,-0.9812,-0.9642,-0.9253,-0.8777,-0.8311,-0.7734,0.0,0.0,0.0,0.0,-0.5765,-0.6237,-0.5995,-0.5296,-0.5148,-0.5114,-0.5166,-0.5143,-0.5125,-0.5234,0.0,0.0,0.0,0.0,0.0,0.0,0.0,0.0,0.0,0.0,0.0,0.0,0.0,0.0,0.0,0.0,0.0,0.0,0.0,0.0,0.0,0.0,0.0,-1.8815,-1.8468,-1.8129,-1.7997,-1.8048,-1.8009,-1.8062,-1.8271,-1.8806,-1.8964,-1.8846,-2.0164,-2.1297,0.0,0.0,0.0,0.0,-2.2452,0.0,0.0,0.0,0.0,0.0,0.0,0.0,0.0,-1.14,-0.7905,-0.4025,-0.1502,0.0,0.0,0.0,0.0,0.0,1.5184,1.753,1.7861,1.4765,1.0477,0.5373,-0.0753,-0.63,-1.0092,-1.0134,-1.0565,-1.0864,-1.0524,-1.1204,-1.1879,-1.2141,-1.3082,-1.3961,-1.4582,-1.452,-1.4466,-1.4535,-1.457,0.0,0.0,0.0,0.0,0.0,0.0,0.0,0.0,0.0,0.0,-1.2108,-1.1496,-1.0681,-0.9489,-0.971,-0.9705,-0.9384,-0.9475,-0.9123,-0.833,-0.8072,-0.7424,0.0,0.0,0.0,-0.5876,-0.68,-0.6538,-0.5596,-0.5927,-0.598,-0.5861,-0.5883,-0.5851,-0.5788,0.0,0.0,0.0,0.0,0.0,0.0,0.0,0.0,0.0,0.0,0.0,0.0,0.0,0.0,0.0,0.0,0.0,0.0,0.0,0.0,0.0,-2.2078,-2.1338,-2.0686,-2.0128,-1.9763,-1.9579,-1.966,-1.9354,-1.9485,-2.0019,-2.0174,-2.0534,-2.1117,-2.1694,-2.2113,-2.2485,0.0,0.0,0.0,0.0,0.0,0.0,0.0,0.0,0.0,0.0,0.0,0.0,-1.4514,-1.2163,-0.8967,-0.6554,0.0,0.0,0.0,0.0,0.0,1.1916,1.5533,1.7797,1.6207,1.2265,0.7141,0.0802,-0.5547,-1.0197,-1.0518,-1.1013,-1.1365,-1.1238,-1.1217,-1.148,-1.232,-1.3605,-1.4661,-1.5044,-1.5067,-1.4801,-1.4037,0.0,0.0,0.0,0.0,0.0,0.0,0.0,0.0,0.0,0.0,0.0,-1.1462,-1.0795,-1.0305,-0.9929,-0.9629,-0.9432,-0.9379,-0.933,-0.9118,-0.8851,-0.8507,-0.8139,0.0,0.0,-0.7204,-0.686,-0.6945,-0.672,-0.6296,-0.5897,-0.5766,-0.5727,-0.5715,-0.5726,-0.5807,0.0,0.0,0.0,0.0,0.0,0.0,0.0,0.0,0.0,0.0,0.0,0.0,0.0,0.0,0.0,0.0,0.0,0.0,0.0,0.0,-2.3719,-2.3368,-2.2935,-2.217,-2.1069,-2.0733,-2.0634,-2.0745,-2.0499,-2.0583,-2.1007,-2.115,-2.1538,-2.2153,-2.2502,-2.2797,-2.3069,-2.3534,-2.3764,0.0,0.0,0.0,0.0,0.0,0.0,0.0,0.0,0.0,0.0,0.0,-1.6349,-1.3044,-1.1153,0.0,0.0,0.0,0.0,0.0,0.6475,1.1619,1.6068,1.6815,1.2756,0.6166,-0.2896,-0.7602,-1.0103,-1.0379,-1.0909,-1.1335,-1.1251,-1.171,-1.2385,-1.3301,-1.372,-1.4025,-1.4425,-1.4199,-1.3888,0.0,0.0,0.0,0.0,0.0,0.0,0.0,0.0,0.0,0.0,0.0,0.0,0.0,-1.0904,-1.0479,-1.0322,-0.9554,-0.9277,-0.9413,-0.9263,-0.9075,-0.8762,-0.8531,-0.819,-0.7768,0.0,-0.7244,-0.6987,-0.6755,-0.6631,-0.6477,-0.6184,-0.6099,-0.6056,-0.5787,-0.561,-0.5539,0.0,0.0,0.0,0.0,0.0,0.0,0.0,0.0,0.0,0.0,0.0,0.0,0.0,0.0,0.0,0.0,0.0,0.0,0.0,0.0,-2.4447,-2.4225,-2.3968,-2.3176,-2.1802,-2.1589,-2.1458,-2.1401,-2.1291,-2.1306,-2.1584,-2.1869,-2.2254,-2.2712,-2.2989,-2.3305,-2.3656,-2.404,-2.4229,0.0,0.0,0.0,0.0,0.0,0.0,0.0,0.0,0.0,0.0,0.0,0.0,0.0,0.0,0.0,0.0,-0.8204,-0.5353,-0.1961,0.1684,0.787,1.3588,1.4885,1.1621,0.5793,-0.3031,-0.7609,-1.0079,-1.0324,-1.0889,-1.1341,-1.141,-1.2315,-1.3291,-1.4128,-1.3803,-1.3607,-1.4022,-1.3565,-1.3297,0.0,0.0,0.0,0.0,0.0,0.0,0.0,0.0,0.0,0.0,0.0,0.0,0.0,-1.0608,-1.0273,-1.0193,-0.9282,-0.8984,-0.9357,-0.9183,-0.9003,-0.876,-0.8454,-0.8044,-0.7607,-0.7339,-0.7111,-0.6907,-0.6696,-0.6611,-0.6568,-0.6361,-0.6239,-0.6062,-0.5701,-0.5437,-0.5265,0.0,0.0,0.0,0.0,0.0,0.0,0.0,0.0,0.0,0.0,0.0,0.0,0.0,0.0,0.0,0.0,0.0,0.0,0.0,0.0,-2.4809,-2.4822,-2.4226,-2.3476,-2.2548,-2.2398,-2.2034,-2.1477,-2.1493,-2.1584,-2.1781,-2.2281,-2.2695,-2.2996,-2.3323,-2.3678,-2.4097,-2.4355,-2.4556,-2.47,-2.4942,0.0,0.0,0.0,0.0,0.0,0.0,0.0,0.0,0.0,0.0,0.0,0.0,0.0,-1.367,-1.2772,-0.8388,-0.3314,-0.0589,0.5553,1.0653,0.8347,0.8126,0.8108,0.6727,-0.215,-1.0254,-1.0746,-1.1338,-1.1897,-1.2317,-1.2941,-1.3534,-1.4033,-1.4192,-1.431,-1.4585,0.0,0.0,0.0,0.0,0.0,0.0,0.0,0.0,0.0,0.0,0.0,0.0,0.0,0.0,0.0,0.0,-0.8829,-0.902,-0.8528,-0.8593,-0.9281,-0.8978,-0.8987,-0.9297,-0.8388,-0.799,-0.7997,-0.7338,-0.6999,-0.6979,-0.6907,-0.6872,-0.6829,-0.6233,-0.5669,-0.5188,-0.5145,-0.5096,-0.5005,0.0,0.0,0.0,0.0,0.0,0.0,0.0,0.0,0.0,0.0,0.0,0.0,0.0,0.0,0.0,0.0,0.0,0.0,0.0,-2.5264,-2.5154,-2.5086,-2.4714,-2.4276,-2.3739,-2.3257,-2.2905,-2.2686,-2.2635,-2.2538,-2.2446,-2.2832,-2.3135,-2.3346,-2.3705,-2.4004,-2.4247,-2.4559,-2.476,-2.4902,-2.5044,0.0,0.0,0.0,0.0,0.0,0.0,0.0,0.0,0.0,-2.3852,-2.2836,-2.1814,-1.9473,-1.69,-1.6217,-1.2675,-0.8521,-0.611,0.1111,0.8078,0.8656,1.0593,1.0568,0.374,-0.1675,-0.6155,-0.9266,-1.0767,-1.174,-1.2591,-1.3138,-1.3523,-1.3636,-1.3766,-1.3904,-1.3938,0.0,0.0,0.0,0.0,0.0,0.0,0.0,0.0,0.0,0.0,0.0,0.0,0.0,0.0,0.0,0.0,-0.8906,-0.8727,-0.8228,-0.8206,-0.8749,-0.8768,-0.8889,-0.9063,-0.8306,-0.803,-0.8077,-0.7509,-0.7202,-0.7076,-0.6689,-0.652,-0.6398,-0.5787,-0.5443,-0.5178,-0.4879,-0.4792,-0.4748,0.0,0.0,0.0,0.0,0.0,0.0,0.0,0.0,0.0,0.0,0.0,0.0,0.0,0.0,0.0,0.0,0.0,0.0,-2.552,-2.5453,-2.5364,-2.5297,-2.5086,-2.486,-2.4625,-2.4118,-2.3726,-2.3486,-2.3437,-2.3282,-2.3117,-2.3346,-2.357,-2.3783,-2.4081,-2.4335,-2.4538,-2.476,-2.4961,-2.5111,-2.5168,-2.5284,0.0,0.0,0.0,0.0,0.0,0.0,0.0,0.0,-2.4683,-2.3777,-2.3047,-2.1492,-1.9662,-1.8532,-1.6094,-1.3221,-1.0908,-0.2948,0.5295,0.7692,1.249,1.4392,0.5936,0.1125,-0.2638,-0.6361,-0.9608,-1.1959,-1.2699,-1.3104,-1.3323,-1.3391,-1.3339,-1.331,0.0,0.0,0.0,0.0,0.0,0.0,0.0,0.0,0.0,0.0,0.0,0.0,0.0,0.0,0.0,0.0,0.0,-0.8607,-0.829,-0.7918,-0.7864,-0.8081,-0.8488,-0.8775,-0.8896,-0.8268,-0.8041,-0.8173,-0.7681,-0.7335,-0.7083,-0.6647,-0.6258,-0.5873,-0.5394,-0.5135,-0.4918,-0.4574,-0.4403,-0.4399,0.0,0.0,0.0,0.0,0.0,0.0,0.0,0.0,0.0,0.0,0.0,0.0,0.0,0.0,0.0,0.0,0.0,0.0,-2.5603,-2.5473,-2.5434,-2.5507,-2.5255,-2.51,-2.5096,-2.4915,-2.4435,-2.3705,-2.3635,-2.3681,-2.3815,-2.3803,-2.3983,-2.4318,-2.4442,-2.4689,-2.4993,-2.4993,-2.5115,-2.5302,-2.5365,-2.5479,-2.5609,0.0,0.0,0.0,0.0,0.0,0.0,0.0,-2.5266,-2.4976,-2.3712,-2.285,-2.1877,-1.973,-1.8261,-1.6759,-1.433,-0.6136,0.2202,0.4313,1.2846,1.9727,1.6015,0.737,-0.0349,-0.2064,-0.7857,-1.2637,-1.2662,-1.2803,-1.3,-1.3344,-1.3019,0.0,0.0,0.0,0.0,0.0,0.0,0.0,0.0,0.0,0.0,0.0,0.0,0.0,0.0,0.0,0.0,0.0,0.0,0.0,-0.7618,-0.7607,-0.7525,-0.7412,-0.8074,-0.861,-0.8959,-0.8255,-0.81,-0.8393,-0.79,-0.7419,-0.6914,-0.6914,-0.6264,-0.5308,-0.514,-0.4797,-0.4276,-0.4148,-0.402,-0.3924,0.0,0.0,0.0,0.0,0.0,0.0,0.0,0.0,0.0,0.0,0.0,0.0,0.0,0.0,0.0,0.0,0.0,0.0,-2.5603,-2.5527,-2.551,-2.5561,-2.5443,-2.5345,-2.5226,-2.5146,-2.4801,-2.4265,-2.4247,-2.4174,-2.4081,-2.4229,-2.4372,-2.4519,-2.476,-2.4915,-2.508,-2.5165,-2.5283,-2.5383,-2.5441,-2.5513,-2.5593,0.0,0.0,0.0,0.0,0.0,0.0,0.0,0.0,0.0,-2.481,-2.3596,-2.2027,-2.057,-1.9073,-1.6756,-1.169,-0.4713,0.2271,0.695,1.4379,2.0585,2.0697,1.5183,0.7684,-0.0732,-0.3969,-0.6571,-1.0746,-1.2054,-1.2401,-1.2157,-1.2316,0.0,0.0,0.0,0.0,0.0,0.0,0.0,0.0,0.0,0.0,0.0,0.0,0.0,0.0,0.0,0.0,0.0,0.0,0.0,-0.7618,-0.7594,-0.7627,-0.7696,-0.7888,-0.8319,-0.8913,-0.8667,-0.8723,-0.9039,-0.8223,-0.7697,-0.7398,-0.6611,-0.5879,-0.5265,-0.5091,-0.4923,-0.4748,-0.4535,-0.4447,-0.4399,0.0,0.0,0.0,0.0,0.0,0.0,0.0,0.0,0.0,0.0,-2.5077,-2.5224,0.0,0.0,0.0,0.0,0.0,0.0,0.0,-2.5486,-2.5522,-2.5527,-2.5525,-2.5484,-2.5383,-2.5305,-2.5129,-2.482,-2.4718,-2.4598,-2.4519,-2.462,-2.4697,-2.4814,-2.5013,-2.5138,-2.5216,-2.5282,-2.5357,-2.5435,-2.547,-2.552,-2.5547,0.0,0.0,0.0,0.0,0.0,0.0,0.0,0.0,0.0,-2.5269,-2.4455,-2.3269,-2.2162,-2.1065,-1.9327,-1.5265,-0.7101,0.1208,0.4992,1.3655,2.1603,2.2779,1.8712,1.2141,0.3104,-0.0728,-0.3641,-0.7575,-1.0257,0.0,-1.1604,0.0,0.0,0.0,0.0,0.0,0.0,0.0,0.0,0.0,0.0,0.0,0.0,0.0,0.0,0.0,0.0,0.0,0.0,0.0,0.0,-0.7802,-0.7734,-0.7743,-0.7797,-0.7798,-0.8047,-0.8479,-0.8686,-0.8869,-0.9081,-0.7987,-0.7489,-0.7314,-0.6398,-0.5793,-0.548,-0.5313,-0.5231,-0.5183,-0.4966,-0.4874,-0.4874,0.0,0.0,0.0,0.0,0.0,0.0,0.0,0.0,0.0,0.0,-2.4659,-2.4776,0.0,0.0,0.0,0.0,0.0,0.0,0.0,0.0,-2.5526,-2.5418,-2.5523,-2.5564,-2.5515,-2.5453,-2.5388,-2.5329,-2.5056,-2.4962,-2.5032,-2.4968,-2.5006,-2.5122,-2.5192,-2.5292,-2.5402,-2.5351,-2.5402,-2.5503,-2.5504,-2.5498,-2.5461,-2.5343,0.0,0.0,0.0,0.0,0.0,0.0,0.0,0.0,-2.5276,-2.5191,-2.4954,-2.3904,-2.3398,-2.2924,-2.1833,-1.124,-0.024,0.0773,1.1913,2.2613,2.259,1.9108,1.4295,0.8691,0.2834,-0.1714,-0.3072,-0.6865,-0.996,0.0,0.0,0.0,0.0,0.0,0.0,0.0,0.0,0.0,0.0,0.0,0.0,0.0,0.0,0.0,0.0,0.0,0.0,0.0,0.0,0.0,-0.814,-0.7994,-0.7898,0.0,-0.7809,-0.7817,-0.7881,-0.8424,-0.8686,-0.8594,-0.7558,-0.7027,-0.6914,-0.6361,-0.6056,-0.5916,-0.5847,-0.5712,-0.562,-0.5437,-0.5389,-0.5389,0.0,0.0,0.0,0.0,0.0,0.0,0.0,0.0,0.0,0.0,0.0,0.0,0.0,0.0,0.0,0.0,0.0,0.0,0.0,0.0,-2.534,-2.5473,-2.5551,-2.5586,-2.5582,-2.5618,-2.5601,-2.5532,-2.5313,-2.5226,-2.5236,-2.5216,-2.5262,-2.5328,-2.5343,-2.5432,-2.5551,-2.5539,-2.5547,-2.5565,-2.5519,-2.5449,-2.535,-2.5302,-2.4839,0.0,0.0,0.0,0.0,0.0,0.0,0.0,-2.5375,-2.4824,-2.3949,-2.3092,-2.2161,-2.0708,-1.7322,-0.8159,0.1174,0.4342,1.4355,2.2756,2.0136,1.9901,1.875,1.3484,1.1227,0.8816,0.4179,0.2037,-0.0158,0.0,0.0,0.0,0.0,0.0,0.0,0.0,0.0,0.0,0.0,0.0,0.0,0.0,0.0,0.0,0.0,0.0,0.0,0.0,0.0,-0.8634,-0.8561,-0.829,-0.813,0.0,-0.7803,-0.7866,-0.8271,-0.8469,-0.8454,-0.83,-0.8054,-0.769,-0.7293,-0.716,-0.7076,-0.7034,-0.6745,-0.6617,-0.6568,-0.6209,-0.6076,-0.6076,0.0,0.0,0.0,0.0,0.0,0.0,0.0,0.0,0.0,0.0,0.0,0.0,0.0,0.0,0.0,0.0,0.0,0.0,0.0,0.0,-2.5216,-2.5447,-2.5488,-2.5534,-2.5597,-2.5625,-2.5658,-2.5654,-2.5535,-2.544,-2.5343,-2.5386,-2.5389,-2.5407,-2.5469,-2.5525,-2.5583,-2.5496,-2.5437,-2.5401,-2.5263,-2.5197,-2.5157,-2.5057,-2.4774,-2.4469,-2.4782,0.0,0.0,0.0,0.0,0.0,0.0,0.0,-2.3808,-2.2841,-2.2121,-2.0424,-1.4754,-0.6693,0.208,1.0218,1.6495,2.0212,1.8399,1.9206,1.9576,1.6861,1.4623,1.2274,0.9307,0.656,0.0,0.0,0.0,0.0,0.0,0.0,0.0,0.0,0.0,0.0,0.0,0.0,0.0,0.0,0.0,0.0,0.0,-0.8773,0.0,0.0,-0.8734,-0.8717,-0.8505,-0.829,-0.8187,-0.8187,-0.7792,-0.7779,-0.8166,-0.8496,-0.8583,-0.8428,-0.844,-0.8144,-0.7697,-0.7697,-0.7538,-0.7293,-0.7125,-0.6999,-0.6888,-0.6572,-0.6397,-0.6296,0.0,0.0,0.0,0.0,0.0,0.0,0.0,0.0,0.0,0.0,0.0,0.0,0.0,0.0,0.0,0.0,0.0,0.0,0.0,0.0,0.0,-2.5329,-2.5333,-2.5408,-2.5531,-2.5556,-2.5595,-2.5664,-2.5683,-2.5668,-2.5667,-2.5576,-2.5492,-2.5464,-2.5556,-2.5584,-2.5551,-2.5366,-2.5239,-2.5149,-2.4967,-2.491,-2.4921,-2.4775,-2.4832,-2.4947,-2.4757,-2.4738,-2.4799,-2.4847,0.0,0.0,0.0,0.0,-2.3493,-2.2577,-2.203,-2.0328,-1.3823,-0.6063,0.2947,1.4475,1.7408,1.7288,1.6617,1.7685,1.8728,1.8566,1.6003,1.3742,1.3672,1.0441,0.0,0.0,0.0,0.0,0.0,0.0,0.0,0.0,0.0,0.0,0.0,0.0,0.0,0.0,0.0,0.0,-0.8533,-0.8745,-0.8745,-0.8533,-0.8745,-0.8717,-0.8432,-0.8319,-0.8272,-0.8272,-0.7262,-0.6869,-0.6992,-0.6959,-0.7601,-0.8752,-0.7896,-0.7331,-0.6975,-0.6125,-0.5528,-0.511,-0.507,-0.5099,-0.5103,-0.4842,-0.5094,-0.5527,0.0,0.0,0.0,0.0,0.0,0.0,0.0,0.0,0.0,0.0,-2.3212,-2.3482,0.0,0.0,0.0,0.0,0.0,0.0,-2.466,0.0,0.0,-2.5061,-2.5107,-2.5187,-2.5247,-2.5363,-2.5454,-2.5531,-2.5584,-2.5996,-2.6677,-2.5996,-2.5664,-2.5662,-2.5618,-2.5548,-2.5429,-2.5271,-2.5149,-2.5031,-2.4943,-2.4847,-2.4741,-2.4756,-2.4666,-2.4508,-2.4642,-2.4564,-2.4428,-2.4642,-2.4189,0.0,0.0,0.0,-2.1578,-2.1482,-2.0143,-1.8033,-1.5077,-0.584,0.4472,1.0786,1.5033,1.6886,1.384,1.5647,1.7806,1.721,1.8053,1.8867,1.8757,0.0,0.0,0.0,0.0,0.0,0.0,0.0,0.0,0.0,0.0,0.0,0.0,0.0,0.0,0.0,0.0,0.0,-0.8999,-0.9026,-0.9054,-0.8999,-0.9026,-0.9026,-0.8999,-0.8645,-0.8495,-0.8505,-0.5202,-0.3494,-0.3205,-0.0637,-0.2983,-0.8885,-0.46,-0.2905,-0.289,0.1405,0.3224,0.3302,0.3416,0.3034,0.2449,0.2603,0.0452,-0.2566,0.0,0.0,0.0,0.0,0.0,0.0,0.0,0.0,0.0,0.0,0.0,-2.2898,0.0,0.0,0.0,-2.3899,-2.3937,-2.4135,-2.4561,-2.4768,-2.4898,-2.4934,-2.4968,-2.505,-2.5207,-2.5149,-2.5216,-2.5389,-2.5291,-2.5677,-2.6451,-2.5667,-2.5629,-2.6201,-2.616,-2.5764,-2.512,-2.5015,-2.493,-2.4823,-2.4636,-2.461,-2.4626,-2.451,-2.4459,-2.4459,-2.4561,-2.4461,-2.4339,-2.4613,-2.407,-2.3241,-2.2905,0.0,0.0,0.0,-1.7082,-1.2185,-0.5654,0.1721,0.8053,0.9916,1.2175,1.3649,1.2477,1.4211,1.608,1.6176,1.7648,1.9114,0.0,0.0,0.0,0.0,0.0,0.0,0.0,0.0,0.0,0.0,0.0,0.0,0.0,0.0,0.0,0.0,0.0,-0.2342,-0.2536,-0.2686,-0.2705,-0.256,-0.269,-0.269,-0.2536,-0.244,-0.2416,-0.248,-0.0866,-0.0,0.0195,0.1557,0.0375,-0.2625,-0.0246,0.0499,0.0316,0.3348,0.4281,0.3771,0.4227,0.3948,0.3301,0.356,0.2851,0.1775,0.0,0.0,0.0,0.0,0.0,0.0,0.0,0.0,0.0,0.0,0.0,0.0,0.0,0.0,0.0,0.0,-2.3646,-2.386,-2.4302,-2.458,-2.4742,-2.4813,-2.4823,-2.4883,-2.5022,-2.4917,-2.495,-2.5149,-2.5001,-2.5337,-2.6091,-2.5516,-2.5646,-2.6378,-2.6221,-2.5678,-2.4841,-2.4714,-2.461,-2.4528,-2.4302,-2.4302,-2.4426,-2.4266,-2.4284,-2.4392,-2.4426,-2.4321,-2.421,-2.4495,-2.3824,-2.2761,-2.2213,-2.1486,0.0,0.0,0.0,-0.7907,0.1764,0.6779,0.926,0.9087,1.0034,1.1212,1.1961,1.3395,1.477,1.5587,1.6913,1.8212,0.0,0.0,0.0,0.0,0.0,0.0,0.0,0.0,0.0,0.0,0.0,0.0,0.0,0.0,0.0,0.0,0.0,0.2692,0.2583,0.2377,0.2337,0.2503,0.2301,0.2301,0.2503,0.2391,0.2326,0.2287,0.3126,0.3572,0.3705,0.4614,0.5076,0.5097,0.4579,0.4086,0.3805,0.6237,0.6785,0.6117,0.6648,0.6529,0.6074,0.6293,0.6299,0.6206,0.0,0.0,0.0,0.0,0.0,0.0,0.0,0.0,0.0,0.0,0.0,0.0,-2.2591,-2.3042,-2.3324,-2.3392,-2.3236,-2.3348,-2.3816,-2.4266,-2.4551,-2.4615,-2.4631,0.0,-2.4554,-2.4654,-2.4727,-2.4719,-2.4719,-2.5191,-2.6097,-2.5994,-2.5882,-2.5718,-2.5215,-2.4873,-2.4681,-2.4428,-2.4246,-2.4117,-2.4037,-2.4019,-2.4041,-2.4154,-2.4172,-2.4133,-2.4266,-2.4096,-2.3878,-2.421,-2.3143,-2.1715,-2.1865,-2.0937,-1.9776,0.0,0.0,0.0,0.135,0.4479,0.5497,0.7127,0.9268,1.1265,1.233,1.339,1.4467,1.5659,1.6562,1.7329,0.0,0.0,0.0,0.0,0.0,0.0,0.0,0.0,0.0,0.0,0.0,0.0,0.0,0.0,0.0,0.0,0.0,0.2704,0.2514,0.2485,0.2413,0.2229,0.2202,0.2202,0.2229,0.221,0.221,0.2237,0.5549,0.7229,0.753,1.097,1.2647,1.2653,0.9806,0.829,0.8157,1.2935,1.4948,1.5014,1.4927,1.4911,1.4921,1.4796,1.2823,1.0206,0.0,0.0,0.0,0.0,0.0,0.0,0.0,0.0,0.0,0.0,0.0,0.0,0.0,-2.2203,-2.2599,-2.2746,-2.3049,-2.3353,-2.3649,-2.386,-2.4019,-2.4078,-2.4098,-2.4155,-2.4299,-2.4265,-2.4336,-2.4503,-2.4334,-2.4708,-2.556,-2.5003,-2.4856,-2.5118,-2.541,-2.5064,-2.4247,-2.4025,-2.3906,-2.3881,-2.3735,-2.3819,-2.4001,-2.3959,-2.3998,-2.4113,-2.4152,-2.3998,-2.3858,-2.4191,-2.3125,-2.1678,-2.1746,-2.0785,-1.8,-0.9659,-0.8381,-0.6956,0.5497,0.709,0.5538,0.6709,0.891,1.1025,1.2034,1.2933,1.3899,1.5242,1.6142,0.0,0.0,0.0,0.0,0.0,0.0,0.0,0.0,0.0,0.0,0.0,0.0,0.0,0.0,0.0,0.0,0.0,0.0,0.0,0.9815,0.9779,0.9633,0.9403,0.9356,0.9211,0.9002,0.9002,0.9029,0.9075,1.0338,1.1081,1.1395,1.2703,1.3329,1.3329,1.2171,1.1596,1.1718,1.4488,1.506,1.4313,1.5265,1.5352,1.5012,1.5448,1.5143,1.4551,0.0,0.0,0.0,0.0,0.0,0.0,0.0,0.0,0.0,-2.0426,0.0,0.0,0.0,0.0,-2.201,-2.2248,-2.273,-2.3129,-2.3392,-2.3544,-2.3671,-2.3714,-2.3678,-2.3744,-2.3888,-2.3785,-2.3844,-2.4024,-2.3883,-2.413,-2.4738,-2.4172,-2.4085,-2.4424,-2.4929,-2.4672,-2.3837,-2.3674,-2.3631,-2.3689,-2.3558,-2.3628,-2.3837,-2.3816,-2.3896,-2.4032,-2.4306,-2.4377,-2.4338,-2.4577,-2.375,-2.2533,-2.1994,-2.0841,-1.757,-0.6789,-0.7258,-0.8383,0.484,0.6045,0.4111,0.6508,0.8688,1.0657,1.2094,1.2805,1.3625,1.5211,1.609,0.0,0.0,0.0,0.0,0.0,0.0,0.0,0.0,0.0,0.0,0.0,0.0,0.0,0.0,0.0,0.0,0.0,0.0,0.0,1.4006,1.3927,1.3739,1.3477,1.3379,1.3226,1.3013,1.2979,1.2997,1.3034,1.3016,1.3122,1.3329,1.3379,1.3396,1.3396,1.3329,1.3312,1.3413,1.441,1.4259,1.3464,1.4446,1.4871,1.4958,1.5409,1.6201,1.7024,0.0,0.0,0.0,0.0,0.0,0.0,0.0,0.0,-2.015,-2.027,0.0,0.0,0.0,0.0,0.0,-2.1986,-2.232,-2.2634,-2.2947,-2.3259,-2.3477,-2.3544,-2.3414,-2.3346,-2.3259,-2.3212,-2.3212,-2.3282,-2.3335,-2.3491,-2.3692,-2.3671,-2.3649,-2.3566,-2.3649,-2.3649,-2.3584,-2.3445,-2.3435,-2.3481,-2.3534,-2.3529,-2.3575,-2.3765,-2.385,-2.3979,-2.4719,-2.5157,-2.5342,-2.5386,-2.4949,-2.4124,-2.2559,-2.1079,-1.865,-1.2267,-1.2392,-1.2196,0.0,0.0,0.0,0.6224,0.8543,1.0195,1.2553,1.3094,1.3657,1.5605,1.6391,0.0,0.0,0.0,0.0,0.0,0.0,0.0,0.0,0.0,0.0,0.0,0.0,0.0,0.0,0.0,0.0,0.0,0.0,1.4456,1.4223,1.4069,1.387,1.362,1.3479,1.3396,1.3396,1.3329,1.3312,1.3295,1.3227,1.321,1.321,1.3346,1.3413,1.3413,1.3479,1.3396,1.321,1.3138,1.319,1.3295,1.3189,1.4091,1.5459,1.5371,1.6253,1.7442,0.0,0.0,0.0,0.0,0.0,0.0,-1.9617,-1.9797,-1.994,0.0,0.0,0.0,-2.1264,-2.207,-2.2605,-2.2698,-2.2632,-2.2517,-2.2347,-2.2286,-2.2286,-2.2368,-2.2341,-2.2422,-2.2643,-2.2721,-2.288,-2.3165,-2.3038,-2.3129,-2.3399,-2.3164,-2.306,-2.3109,-2.3109,-2.3109,-2.3109,-2.3109,-2.3157,-2.3276,-2.389,-2.4242,-2.4384,-2.4577,-2.5114,-2.5677,-2.5183,-2.5607,-2.6276,-2.5629,-2.4986,-2.4099,-2.1976,-2.0603,-1.8496,-1.2079,-1.2209,-1.2559,-0.3835,0.0,0.0,0.0,0.0,0.0,1.213,1.3187,1.4119,1.5909,1.669,0.0,0.0,0.0,0.0,0.0,0.0,0.0,0.0,0.0,0.0,0.0,0.0,0.0,0.0,0.0,0.0,0.0,1.5734,1.525,1.453,1.4126,1.387,1.3754,1.3476,1.3329,1.3329,1.3208,1.3191,1.3295,1.3278,1.3312,1.3429,1.3559,1.3622,1.362,1.3728,1.3698,1.3543,1.3429,1.3396,1.348,1.3989,1.4465,1.4995,1.6184,1.6413,1.6275,0.0,0.0,0.0,0.0,0.0,-1.864,-1.9347,-1.9617,-1.9903,0.0,0.0,0.0,-2.1639,-2.2306,-2.2766,-2.2899,-2.2557,-2.2427,-2.269,-2.2394,-2.2198,-2.2258,-2.2228,-2.2332,-2.2637,-2.2259,-2.2466,-2.3267,-2.271,-2.2678,-2.3126,-2.2902,-2.2842,-2.2893,-2.2893,-2.2893,-2.2902,-2.2935,-2.3028,-2.3172,-2.4206,-2.4694,-2.4846,-2.5503,-2.6112,-2.6581,-2.6347,-2.6751,-2.7305,-2.6823,-2.5841,-2.452,-2.2797,-2.1437,-1.9764,-1.6038,-1.5795,-1.5442,-0.9428,-0.6964,-0.466,0.1116,0.0,0.0,1.2938,1.3513,1.3509,0.0,1.5753,0.0,0.0,0.0,0.0,0.0,0.0,0.0,0.0,0.0,0.0,0.0,0.0,0.0,0.0,0.0,0.0,1.7003,1.6749,1.6342,1.5651,1.4969,1.4562,1.4467,1.39,1.3588,1.3588,1.3477,1.3461,1.3542,1.3508,1.3526,1.356,1.3684,1.3715,1.362,1.3759,1.3774,1.3684,1.3606,1.3576,1.3578,1.3973,1.4384,1.4831,1.5728,1.5969,1.5896,0.0,0.0,-1.6238,-1.7146,-1.7639,-1.8216,-1.9037,-1.9538,-2.0034,0.0,-2.1084,-2.15,-2.2217,-2.2424,-2.2585,-2.2881,-2.239,-2.2474,-2.3468,-2.2998,-2.2719,-2.28,-2.2622,-2.2621,-2.2874,-2.1823,-2.1913,-2.3257,-2.2304,-2.2169,-2.2799,-2.2747,-2.2747,-2.2868,-2.2868,-2.2868,-2.2893,-2.2893,-2.2995,-2.3197,-2.4508,-2.5032,-2.5149,-2.6323,-2.6834,-2.7041,-2.7629,-2.8084,-2.8372,-2.8328,-2.6982,-2.5138,-2.4178,-2.2885,-2.1727,-2.1574,-2.0874,-1.9457,-1.6238,-1.4006,-1.0328,-0.0878,0.2313,0.0,1.3414,1.3718,1.298,0.0,0.0,0.0,0.0,0.0,0.0,0.0,0.0,0.0,0.0,0.0,0.0,0.0,0.0,0.0,0.0,1.9282,1.8865,1.7928,1.763,1.7358,1.7046,1.6233,1.5726,1.5586,1.4749,1.4254,1.4154,1.4061,1.3994,1.3891,1.3842,1.3754,1.3636,1.3776,1.3746,1.3557,1.3713,1.3741,1.3743,1.3759,1.3713,1.3605,1.3556,1.4034,1.4756,1.4693,1.5124,1.5731,0.0,-1.5603,-1.5976,-1.706,-1.7973,-1.8865,-1.962,-2.0026,-2.0531,-2.1326,-2.2133,-2.2844,-2.3553,-2.3769,-2.3742,-2.3452,-2.3241,-2.3105,-2.3044,-2.2814,-2.2715,-2.2715,-2.2277,-2.2025,-2.2027,-2.1375,-2.1278,-2.172,-2.162,-2.1777,-2.2169,-2.2169,-2.2298,-2.2579,-2.2579,-2.2712,-2.2893,-2.2893,-2.2995,-2.3249,-2.5009,-2.5775,-2.5935,-2.6388,-2.7124,-2.7845,-2.7207,-2.8053,-2.9319,-2.8208,-2.6706,-2.5033,-2.3521,0.0,0.0,-2.0985,-2.0804,-2.0744,-1.937,-1.6698,-1.3413,-0.9667,-0.2875,0.0,0.7896,1.2517,1.6353,0.0,1.8037,1.8172,0.0,0.0,0.0,0.0,0.0,0.0,0.0,0.0,0.0,0.0,0.0,0.0,0.0,2.0201,1.9786,1.889,1.7987,1.7425,1.7248,1.7015,1.683,1.6691,1.636,1.5807,1.5056,1.4869,1.4458,1.3827,1.3924,1.3896,1.3768,1.4015,1.4028,1.392,1.4096,1.4087,1.3938,1.4114,1.3987,1.3682,1.3682,1.3769,1.4024,1.4797,1.4695,1.4268,-1.5017,-1.5322,-1.5768,-1.6466,-1.7514,-1.8441,-1.9031,-1.9847,-2.07,-2.1532,-2.267,-2.3519,-2.3852,-2.4024,-2.4055,-2.3906,-2.3511,-2.3389,-2.3678,-2.3349,-2.3161,-2.3252,-2.3012,-2.2794,-2.2623,-2.2083,-2.2079,-2.2605,-2.2053,-2.2064,-2.2538,-2.2166,-2.2389,-2.3044,-2.2668,-2.2882,-2.3476,-2.305,-2.3431,-2.4304,-2.5075,-2.5497,-2.5732,-2.6473,-2.7157,-2.7643,-2.7121,-2.7691,-2.8567,-2.7918,-2.6943,0.0,-2.4536,-2.3599,-2.2698,0.0,-2.0988,-2.0783,-2.0204,-1.8701,0.0,-1.1943,0.0,0.0,0.0,0.9343,1.2249,1.6284,1.7106,1.7162,1.7329,1.7471,0.0,0.0,0.0,0.0,0.0,0.0,0.0,0.0,0.0,0.0,0.0,2.0435,2.0199,1.9735,1.9169,1.8764,1.8569,1.8165,1.7865,1.7664,1.7161,1.666,1.6155,1.5655,1.5171,1.4752,1.4337,1.4105,1.4042,1.418,1.4193,1.4114,1.427,1.4301,1.4198,1.4313,1.4232,1.4028,1.3877,1.3891,1.4044,1.4423,1.4306,1.4008,-1.4771,-1.528,-1.5818,-1.6114,-1.7112,-1.7996,-1.8544,-1.9608,-2.0699,-2.1672,-2.2934,-2.3754,-2.3739,-2.3882,-2.4085,-2.4307,-2.3723,-2.3657,-2.4471,-2.3952,-2.3685,-2.3819,-2.3701,-2.3484,-2.3205,-2.2613,-2.2659,-2.3389,-2.2374,-2.2264,-2.2998,-2.2321,-2.2507,-2.3369,-2.2925,-2.3158,-2.3859,-2.3511,-2.3999,-2.4989,-2.4944,-2.5198,-2.5758,-2.6578,-2.7027,-2.7204,-2.7234,-2.7354,-2.7496,-2.752,-2.7268,-2.6753,-2.5615,-2.4466,0.0,0.0,0.0,0.0,0.0,0.0,0.0,0.0,0.0,-0.8714,0.0,0.0,0.0,1.2745,1.3981,1.4236,1.5449,1.5839,0.0,0.0,0.0,0.0,0.0,0.0,0.0,0.0,0.0,0.0,0.0,2.0443,2.0379,2.032,2.0246,2.0106,1.9914,1.9304,1.8858,1.8584,1.7932,1.7455,1.7206,1.6559,1.6061,1.5692,1.4953,1.4508,1.4344,1.4356,1.4307,1.4257,1.4368,1.4411,1.4399,1.4411,1.4422,1.4399,1.4114,1.4127,1.4293,1.4074,1.4109,1.4213,-1.5191,-1.5849,-1.6497,-1.6686,-1.7597,-1.8639,-1.9567,-2.0024,-2.0699,-2.2044,-2.3007,-2.3538,-2.361,-2.3739,-2.4124,-2.4861,-2.4399,-2.4234,-2.4566,-2.4081,-2.3803,-2.3899,-2.31,-2.2586,-2.2443,-2.1664,-2.1372,-2.1595,-2.1288,-2.1649,-2.2669,-2.2202,-2.222,-2.2668,-2.3333,-2.3429,-2.3128,-2.4479,-2.4453,-2.3631,-2.4531,-2.5842,-2.7182,-2.6735,-2.6822,-2.7219,-2.7395,-2.7494,-2.7427,0.0,-2.7271,-2.745,0.0,-2.4841,-2.4832,-2.2494,0.0,0.0,0.0,0.0,0.0,0.0,-1.4596,0.0,-0.8291,0.0,0.1999,0.7611,0.0,1.1728,1.6758,0.0,0.0,0.0,0.0,0.0,0.0,0.0,0.0,0.0,0.0,0.0,0.0,0.0,2.0394,2.0385,2.0262,2.0208,2.0246,2.0049,1.9827,1.955,1.9388,1.8872,1.7982,1.789,1.7119,1.5692,1.5716,1.5279,1.4476,1.4537,1.4497,1.4374,1.4456,1.4451,1.4399,1.4474,1.4489,1.4478,1.438,1.4362,1.4375,1.435,1.435,1.435,-1.5405,-1.5925,-1.6405,-1.6629,-1.7508,-1.8376,-1.8932,-1.9812,-2.0764,-2.1752,-2.2536,-2.3215,-2.3626,-2.4,-2.4446,-2.4836,-2.4741,-2.4557,-2.4364,-2.399,-2.3867,-2.4021,-2.3438,-2.3069,-2.2879,-2.2845,-2.284,-2.2817,-2.2397,-2.2535,-2.3178,-2.2355,-2.2406,-2.3147,-2.311,-2.3532,-2.4242,-2.4531,-2.4883,-2.5244,-2.5365,-2.6267,0.0,-2.5887,-2.5553,-2.5891,-2.6007,-2.6121,-2.6273,0.0,-2.6695,0.0,0.0,0.0,0.0,-2.226,0.0,0.0,0.0,0.0,0.0,0.0,0.0,0.0,-1.1896,0.0,-0.3604,0.0,0.0,0.0,0.0,0.0,0.0,0.0,1.8716,0.0,0.0,0.0,0.0,0.0,0.0,0.0,0.0,0.0,0.0,0.0,0.0,2.0258,2.0235,2.0186,2.006,1.9824,1.9797,1.952,1.9026,1.853,1.7944,1.7323,1.6793,1.6156,1.5434,1.5336,1.5032,1.4578,1.4611,1.46,1.4585,1.4611,1.4622,1.4622,1.4578,1.4533,1.4451,1.4411,1.4399,1.4387,-1.5508,-1.6103,-1.6591,-1.6802,-1.7447,-1.8103,-1.8534,-1.9736,-2.0795,-2.1465,-2.2035,-2.2637,-2.3281,-2.4139,-2.4819,-2.5243,-2.541,-2.5228,-2.4656,-2.4088,-2.3746,-2.3623,-2.3377,-2.3152,-2.3056,-2.3462,-2.3723,-2.3732,-2.3131,-2.3098,-2.3586,-2.2504,-2.2473,-2.33,-2.3042,-2.3653,-2.4896,-2.4855,-2.5437,-2.6401,-2.6032,-2.6258,-2.6599,-2.5391,-2.4907,-2.4896,-2.5024,-2.5156,-2.5412,-2.6204,-2.624,0.0,-2.5735,0.0,-2.3638,0.0,0.0,0.0,-2.1968,0.0,0.0,0.0,0.0,0.0,0.0,0.0,0.0,0.0,0.0,0.0,0.0,0.0,1.7497,1.833,0.0,1.7917,0.0,0.0,0.0,0.0,0.0,0.0,0.0,0.0,0.0,0.0,2.0676,0.0,2.0253,2.0231,2.0139,1.9952,1.995,1.9873,1.9757,1.9138,1.8711,1.855,1.7812,1.7001,1.6121,1.598,1.5469,1.4734,1.4734,1.4714,1.4701,1.4701,1.4683,1.4683,1.4705,1.4645,1.4512,1.4492,1.4488,1.4488,-1.5448,-1.661,-1.7444,-1.7386,-1.7629,-1.813,-1.9006,-1.9898,-2.066,-2.1321,-2.1561,-2.186,-2.248,-2.3817,-2.5204,-2.6419,-2.6687,-2.643,-2.5691,-2.4452,-2.3281,-2.2388,-2.2296,-2.2271,-2.2414,-2.2596,-2.2858,-2.3341,-2.2497,-2.2649,-2.3586,-2.2504,-2.2203,-2.2583,-2.3395,-2.3905,-2.4234,-2.5754,-2.6277,-2.6015,-2.6131,-2.5628,-2.4864,0.0,-2.551,-2.4929,-2.5126,0.0,0.0,-2.557,-2.6184,0.0,0.0,0.0,0.0,0.0,0.0,0.0,0.0,0.0,0.0,-2.1702,0.0,0.0,0.0,0.0,-1.8276,0.0,0.0,0.0,0.5556,1.1661,1.5911,1.634,1.7559,0.0,0.0,0.0,0.0,0.0,0.0,0.0,0.0,0.0,0.0,2.0443,2.0405,2.0391,2.0394,2.0328,2.0234,2.0096,2.0022,1.9952,1.9877,1.9858,1.9452,1.8696,1.8648,1.7786,1.6191,1.6191,1.5676,1.4804,1.4804,1.4756,1.4701,1.4701,1.4654,1.4624,1.4747,1.4718,1.4595,1.4672,1.4701,1.4672,-1.4845,-1.5796,-1.6676,-1.7356,-1.7767,-1.8248,-1.9086,-1.9401,-2.0053,-2.1222,-2.214,-2.3294,-2.481,-2.6221,-2.7093,-2.705,-2.6946,-2.6279,-2.4805,-2.4063,-2.3322,-2.2463,-2.2673,-2.279,-2.2747,-2.3094,-2.3492,-2.3963,-2.3175,-2.305,-2.3586,-2.2504,-2.2186,-2.2515,-2.2853,-2.367,-2.4861,-2.564,-2.6517,-2.7358,-2.6713,-2.5726,-2.4682,0.0,0.0,-2.5049,-2.5206,-2.536,0.0,-2.5582,-2.5801,-2.5993,-2.5741,-2.5293,-2.4765,-2.4436,-2.3706,0.0,0.0,0.0,-2.2499,-2.2552,0.0,0.0,0.0,0.0,0.0,0.0,0.0,0.0,0.0,0.9306,1.4356,1.5528,1.6748,1.7794,0.0,0.0,0.0,0.0,0.0,0.0,0.0,0.0,0.0,2.2101,2.1565,2.1002,0.0,2.0376,2.0294,2.0171,2.013,2.0111,2.0037,2.0003,1.9869,1.9684,1.9554,1.8659,1.7121,1.7034,1.6222,1.4873,1.4873,1.4821,1.4766,1.4813,1.4747,1.4624,1.4804,1.4776,1.467,1.4785,1.4776,1.4701,-1.4085,-1.4914,-1.5853,-1.6933,-1.7788,-1.8464,-1.8905,-1.9274,-1.9912,-2.1135,-2.2009,-2.32,-2.4892,-2.6007,-2.6582,-2.6332,-2.6265,-2.5739,-2.4478,-2.3761,-2.3075,-2.246,-2.2642,-2.2748,-2.2723,-2.329,-2.3704,-2.3851,-2.3343,-2.3162,-2.3243,-2.2372,-2.2186,-2.2515,-2.2542,-2.3402,-2.4836,-2.512,-2.6086,-2.7356,-2.6615,-2.5633,0.0,0.0,-2.5012,-2.5118,0.0,-2.5432,-2.5595,-2.56,-2.5627,-2.5641,-2.5681,-2.5309,-2.4858,-2.4781,-2.4358,-2.402,-2.4547,-2.4038,0.0,-2.348,-2.2831,0.0,-2.3359,0.0,0.0,0.0,0.0,0.0,0.0,0.4973,1.0887,1.3714,1.5575,1.735,0.0,2.1465,0.0,0.0,0.0,0.0,0.0,0.0,2.3418,2.254,2.2042,2.1375,0.0,0.0,2.039,2.026,2.0263,2.0241,2.0204,2.0164,2.0188,2.0276,2.0134,1.9391,1.8131,1.7719,1.6774,1.5426,1.511,1.4914,1.4811,1.4875,1.4794,1.4666,1.4859,1.4849,1.4748,1.483,1.4813,1.4734,-1.3294,-1.413,-1.5128,-1.6312,-1.7655,-1.8572,-1.8649,0.0,-2.0275,-2.105,-2.1218,-2.1773,-2.2963,-2.3489,-2.3965,-2.4462,-2.4821,-2.4924,-2.4607,-2.3446,-2.2619,-2.2264,-2.2235,-2.2259,-2.2417,-2.3157,-2.3408,-2.3071,-2.3085,-2.2921,-2.2556,-2.2185,-2.2186,-2.2515,-2.2515,-2.3089,-2.4121,-2.4327,-2.5099,-2.6168,-2.5894,-2.5361,-2.4729,-2.4994,0.0,-2.5138,-2.5265,-2.5432,-2.5595,-2.5604,-2.5642,-2.5703,-2.5703,-2.5699,-2.5683,-2.5609,-2.5556,-2.5511,-2.5571,-2.4942,-2.4277,-2.4373,0.0,0.0,0.0,0.0,-2.4295,0.0,0.0,0.0,0.0,0.0,0.5883,1.1114,1.4123,1.714,2.0898,2.2539,2.3755,0.0,0.0,2.3774,2.2994,2.3011,2.2707,2.1828,2.1932,2.1581,0.0,0.0,0.0,2.0408,2.0395,2.0395,2.0408,2.0395,2.0409,2.0409,2.0405,1.9935,1.9068,1.8236,1.7333,1.6349,1.5542,1.503,1.4822,1.4881,1.4822,1.4718,1.4925,1.4933,1.4812,1.4813,1.4813,1.4804,-1.2941,-1.4388,-1.5799,-1.6436,-1.734,-1.821,0.0,0.0,0.0,0.0,-2.2197,-2.3018,-2.4422,-2.4792,-2.486,-2.4641,-2.445,-2.3986,-2.3178,-2.291,-2.2398,-2.1547,-2.2158,-2.2538,-2.2495,-2.3068,-2.321,-2.2884,-2.3011,-2.2817,-2.2296,-2.2096,-2.2186,-2.2515,-2.2515,-2.3089,-2.4121,-2.4533,-2.5147,-2.5836,-2.5817,-2.5391,0.0,0.0,-2.516,-2.5264,-2.5393,-2.5511,-2.5605,-2.5603,-2.564,-2.5697,-2.5696,-2.5691,-2.5679,-2.5552,-2.551,-2.5486,-2.5456,-2.5282,-2.4969,-2.4443,-2.4159,-2.4214,0.0,0.0,0.0,0.0,0.0,0.0,0.0,0.0,0.0,1.0354,1.4021,1.7183,2.0238,2.1515,0.0,2.4591,0.0,2.4101,2.467,2.4275,2.3599,2.2734,2.3347,2.2792,0.0,0.0,0.0,2.0527,2.0469,2.0469,2.0468,2.0427,2.0437,2.046,2.0419,1.9943,1.9085,1.8876,1.7936,1.6468,1.6235,1.5696,1.4947,1.5026,1.495,1.4794,1.5,1.5015,1.4944,1.4895,1.4913,1.4928,-1.2949,-1.4221,-1.5549,-1.6562,0.0,0.0,-1.8963,-1.9434,0.0,-2.17,-2.1937,0.0,-2.367,-2.3474,-2.3218,-2.3098,-2.2737,0.0,-2.2221,-2.2087,-2.191,-2.1632,-2.2068,-2.2331,-2.2449,-2.2994,-2.2975,-2.2284,-2.2817,-2.2623,-2.1714,-2.19,-2.2186,-2.2515,-2.2515,-2.2873,-2.3563,-2.4111,-2.4657,-2.5169,-2.5256,-2.5086,0.0,-2.5024,-2.5182,-2.5322,-2.5448,-2.5543,-2.5597,-2.5606,-2.5641,-2.5693,-2.5691,-2.5709,-2.5679,-2.5537,-2.5504,-2.548,-2.5418,-2.5429,-2.534,-2.4952,-2.4861,-2.5098,-2.6005,-2.5815,-2.5709,0.0,0.0,0.0,0.0,0.0,0.0,1.1118,1.5059,1.7781,2.0267,0.0,0.0,0.0,2.4574,0.0,2.5374,2.4408,2.3673,2.3533,2.4067,0.0,0.0,0.0,0.0,2.0509,2.0488,2.0488,2.047,2.0459,2.0468,2.0508,2.0466,2.0199,1.9698,1.9311,1.8397,1.7089,1.6715,1.5985,1.5093,1.5133,1.5056,1.4958,1.5094,1.5099,1.5042,1.5003,1.4995,1.4984,-1.3276,-1.404,-1.5047,-1.6487,-1.6865,0.0,0.0,-1.9576,0.0,-2.1486,0.0,-2.1078,-2.1889,-2.1043,-2.056,-2.0845,-2.0586,-2.077,-2.1523,-2.1226,-2.1309,-2.1918,-2.1841,-2.1955,-2.2303,-2.2832,-2.2594,-2.1436,-2.2452,-2.2269,-2.107,-2.1702,-2.2186,-2.2515,-2.2515,-2.2659,-2.2935,-2.3473,-2.4019,-2.45,-2.4566,-2.4673,-2.4832,-2.5024,-2.5182,-2.5322,-2.5459,-2.5531,-2.5586,-2.5593,-2.5636,-2.5697,-2.5696,-2.5691,-2.5679,-2.5547,-2.551,-2.5486,-2.5422,-2.5456,-2.5531,-2.5574,-2.5595,-2.5795,-2.6633,-2.6771,-2.6743,-2.6802,-2.6073,0.0,0.0,0.0,0.0,1.1248,1.5483,0.0,0.0,0.0,0.0,0.0,0.0,0.0,2.5409,2.4072,2.3454,2.4157,2.442,0.0,0.0,0.0,0.0,0.0,2.0438,0.0,2.0395,0.0,2.0484,2.049,2.049,2.0484,2.0462,1.9721,1.8835,1.7869,1.7092,1.6188,1.5209,1.5206,1.5168,1.5112,1.5182,1.5152,1.5101,1.5113,1.5085,1.503,-1.4016,-1.5125,-1.585,-1.5615,-1.6883,-1.8092,-1.8606,-1.9622,-2.0577,-2.1153,-2.0989,-2.0876,-2.1188,-2.0316,-1.9862,-2.0003,-2.0169,0.0,0.0,0.0,0.0,-2.1193,-2.1574,-2.1806,-2.1753,-2.212,-2.1748,-2.0626,-2.1626,-2.1639,-2.0782,-2.1595,-2.2186,-2.2515,-2.2515,-2.2859,-2.3455,-2.3692,0.0,-2.45,-2.4566,-2.4673,-2.4832,-2.5024,-2.5182,-2.5322,-2.5459,-2.5511,-2.5532,-2.5582,-2.5642,-2.5701,-2.5702,-2.5697,-2.5687,-2.5616,-2.5547,-2.5498,-2.5486,-2.5486,-2.5525,-2.5574,-2.5565,-2.5576,-2.5795,-2.5799,-2.5751,-2.5838,-2.5648,-2.3866,-1.8586,0.0,0.0,0.0,0.0,0.0,0.0,0.0,0.0,0.0,0.0,2.2964,0.0,2.4545,2.4131,2.4276,2.4924,0.0,0.0,0.0,0.0,0.0,0.0,0.0,0.0,0.0,0.0,2.041,2.041,2.0447,2.0483,2.0332,1.9392,1.7895,1.775,1.6755,1.5278,1.5229,1.5195,1.5176,1.5192,1.5188,1.5173,1.5176,1.5188,1.5157,-1.4429,-1.4887,-1.5273,-1.5278,0.0,0.0,0.0,-1.8449,0.0,-2.0464,-2.0022,-1.9648,-1.9629,-1.9297,-1.907,-1.897,-1.9154,-1.949,-1.9982,-2.0,-2.0213,-2.058,-2.0756,-2.091,-2.104,-2.1396,-2.1152,-2.0294,-2.1368,-2.1478,-2.0716,-2.1595,-2.2186,-2.2515,-2.2712,-2.3105,-2.361,0.0,0.0,-2.45,-2.4566,-2.4673,-2.4832,-2.5024,-2.5182,-2.5322,-2.5459,-2.5495,-2.5506,-2.5585,-2.5634,-2.5697,-2.5703,-2.57,-2.5694,-2.5612,-2.5574,-2.5535,-2.5467,-2.5473,-2.5511,-2.5537,-2.556,-2.5556,-2.5556,-2.5531,-2.5511,-2.5535,-2.5531,-2.3708,-1.7815,-1.0059,0.0,0.0,0.0,0.0,0.0,0.0,2.1562,0.0,0.0,0.0,0.0,0.0,0.0,0.0,0.0,0.0,0.0,0.0,0.0,0.0,0.0,0.0,0.0,0.0,0.0,2.1029,2.0571,2.0371,2.0441,2.0455,1.9523,1.7946,1.7958,1.696,1.5342,1.5311,1.5269,1.5211,1.5244,1.5229,1.5202,1.5197,1.5202,1.5255,-1.4306,-1.4347,-1.4504,-1.4927,-1.5061,0.0,-1.6172,-1.6998,-1.8065,-1.9561,-1.9083,-1.8567,-1.8449,-1.8422,-1.8363,-1.8157,-1.8273,-1.8652,-1.9217,-1.9053,-1.9199,-1.9719,-1.9755,-1.9858,-2.0049,-2.0509,-2.0491,-1.9996,-2.0973,-2.1201,-2.0699,-2.1444,-2.2027,-2.2426,0.0,0.0,0.0,0.0,-2.4135,-2.4446,-2.4566,-2.4676,-2.4808,-2.5031,-2.516,-2.5274,-2.5432,-2.5511,-2.5515,-2.5556,-2.5619,-2.5689,-2.5702,-2.5703,-2.5699,-2.5646,-2.5613,-2.5581,-2.5466,-2.5486,-2.5523,-2.5523,-2.556,-2.5556,-2.5507,-2.5493,-2.551,-2.5473,-2.5493,-2.3966,-1.8952,-1.3887,0.0,0.0,0.0,0.0,0.0,0.0,0.0,0.0,0.0,0.0,2.535,0.0,0.0,0.0,0.0,2.467,2.3649,2.4351,0.0,0.0,0.0,0.0,2.2584,0.0,2.1503,0.0,2.082,2.0456,2.0395,2.0394,1.9626,1.8241,1.8066,1.712,1.5667,1.5665,1.5615,1.55,1.5365,1.5283,1.5252,1.5438,1.55,1.5636,0.0,-1.3998,0.0,0.0,0.0,0.0,-1.558,-1.5909,-1.6723,-1.8423,-1.8634,-1.859,-1.8596,-1.8162,-1.7859,-1.7858,-1.8191,-1.8298,-1.8064,-1.8286,-1.8367,-1.8289,-1.8681,-1.8835,-1.8679,-1.9197,-1.939,0.0,-1.9771,-2.02,-2.0614,-2.0926,-2.146,0.0,0.0,0.0,0.0,-2.371,-2.3979,-2.4248,-2.4497,-2.4631,-2.4745,-2.5006,-2.5115,-2.516,-2.5415,-2.5511,-2.5499,-2.5505,-2.5552,-2.5616,-2.5683,-2.5701,-2.5702,-2.5682,-2.5657,-2.5595,-2.5578,-2.5595,-2.5585,-2.5591,-2.5546,-2.5511,-2.5496,-2.5493,-2.5476,-2.5422,-2.5467,-2.5318,-2.4719,-2.0404,-1.4795,0.0,0.0,0.0,0.0,0.0,2.1606,2.585,0.0,0.0,0.0,2.5216,0.0,0.0,2.3988,2.3498,2.2081,2.2888,0.0,2.1816,0.0,2.2841,2.2876,2.2316,0.0,2.1251,2.1155,2.0868,2.0402,2.0394,1.9915,1.9042,1.832,1.7417,1.6486,1.655,1.6541,1.6398,1.5669,1.5385,1.5477,1.6191,1.6509,1.6684,0.0,0.0,0.0,0.0,0.0,0.0,0.0,-1.4716,-1.5173,-1.5752,-1.6329,-1.6698,-1.6729,-1.6493,-1.6195,-1.594,-1.6149,-1.6431,-1.68,-1.6733,-1.6925,-1.7409,-1.7626,-1.7721,-1.7781,-1.8371,-1.8739,0.0,0.0,-2.0,-2.0379,-2.1055,0.0,0.0,0.0,-2.323,-2.3417,-2.3689,-2.3959,-2.421,-2.4357,-2.4532,-2.4714,-2.4902,-2.4975,-2.5019,-2.5274,-2.5388,-2.5387,-2.5468,-2.5535,-2.5609,-2.5681,-2.5699,-2.5703,-2.5703,-2.5672,-2.5658,-2.5603,-2.5609,-2.5585,-2.5546,-2.551,-2.5492,-2.5505,-2.5466,-2.5449,-2.5464,-2.5479,-2.5473,-2.5398,-2.1156,-1.7814,0.0,0.0,0.0,0.0,0.0,0.0,2.4657,0.0,2.4226,0.0,0.0,2.385,2.2785,0.0,2.3634,2.3488,2.3719,0.0,2.4502,0.0,2.4103,2.4524,2.3192,2.2523,2.2507,2.158,2.105,2.0868,2.0502,1.9919,1.9156,1.8359,1.7786,1.7443,1.7478,1.7452,1.7406,1.7087,1.6968,1.7007,1.7326,1.7465,1.7533,-1.1521,0.0,-1.2835,0.0,-1.3021,-1.3035,-1.3449,-1.3727,-1.3793,-1.3669,-1.4175,-1.469,-1.5078,-1.5056,-1.4926,-1.4686,-1.4801,-1.5108,-1.559,-1.544,-1.5664,-1.6329,-1.6511,0.0,-1.7076,-1.7652,-1.8147,-1.8525,-1.9207,0.0,0.0,0.0,0.0,0.0,-2.301,-2.323,-2.3324,-2.3624,-2.3881,-2.4135,-2.4266,-2.4479,-2.4711,-2.4851,-2.4902,-2.4942,-2.516,-2.5264,-2.5322,-2.5415,-2.5512,-2.5613,-2.5651,-2.5677,-2.5703,-2.5703,-2.5696,-2.5696,-2.564,-2.5621,-2.5585,-2.5566,-2.5526,-2.5492,-2.5479,-2.5444,-2.5422,-2.543,-2.5395,-2.5327,-2.5205,-2.2208,-2.0421,0.0,0.0,0.0,0.0,0.0,0.0,0.0,2.3116,0.0,2.4058,2.3622,2.2807,0.0,0.0,0.0,2.3571,0.0,0.0,0.0,0.0,0.0,0.0,0.0,2.3346,2.3225,2.2201,2.1532,2.1192,2.0604,1.992,1.9173,1.8885,1.8613,1.8377,1.8373,1.8389,1.8369,1.8098,1.7991,1.803,1.8278,1.8354,1.8354,-0.9038,-0.9678,-1.0579,-1.1614,-1.1819,-1.2059,-1.268,-1.2827,-1.2759,-1.2537,-1.2507,-1.2977,-1.4164,-1.4318,-1.4354,-1.4503,-1.4755,-1.4777,-1.4558,-1.4628,-1.4801,0.0,0.0,-1.5824,-1.6522,-1.6976,-1.7666,-1.8612,0.0,0.0,-2.01,0.0,0.0,-2.233,-2.273,-2.2995,-2.3126,-2.345,-2.3717,-2.3925,-2.4284,-2.4526,-2.4704,-2.4847,-2.4902,-2.4929,-2.5049,-2.5182,-2.5293,-2.5312,-2.543,-2.559,-2.5601,-2.5655,-2.57,-2.57,-2.5709,-2.5693,-2.5709,-2.5655,-2.5625,-2.5676,-2.5593,-2.5473,-2.5421,-2.5459,-2.5453,-2.5339,-2.5135,-2.4979,-2.4911,-2.4839,-2.2972,-1.7339,0.0,0.0,0.0,0.0,0.0,2.0014,0.0,0.0,2.4138,2.2706,0.0,0.0,0.0,0.0,0.0,0.0,0.0,2.3654,2.5096,0.0,2.4827,2.4835,2.4184,2.2813,2.3065,2.2476,2.1173,2.0637,1.9967,1.9241,2.017,2.0078,1.9275,1.9275,1.9275,1.9196,1.835,1.7994,1.8109,1.889,1.9194,1.9197,-0.868,-0.933,-1.0025,-1.0508,-1.0708,-1.0816,-1.0982,-1.1369,-1.1453,-1.088,-1.0967,-1.1233,-1.1507,-1.2539,-1.3276,0.0,-1.36,-1.3732,0.0,-1.4035,-1.4362,-1.4755,-1.5232,-1.578,-1.6436,-1.6947,-1.7516,-1.8173,0.0,0.0,0.0,-2.1197,-2.182,-2.2368,-2.2756,-2.3045,-2.3241,-2.3365,-2.358,-2.3919,-2.4117,-2.4355,-2.4578,-2.4719,-2.4764,-2.4779,-2.4915,-2.5031,-2.5103,-2.5203,-2.5363,-2.5529,-2.5532,-2.5609,-2.5703,-2.5702,-2.5696,-2.5709,-2.5693,-2.5648,-2.5609,-2.5632,-2.5566,-2.5493,-2.546,-2.5444,-2.5357,-2.5091,-2.4974,-2.4886,-2.471,-2.4479,-2.3738,-2.204,0.0,0.0,0.0,0.0,0.0,0.0,0.0,0.0,0.0,2.0426,0.0,0.0,0.0,0.0,0.0,0.0,0.0,0.0,2.5494,0.0,2.5906,2.4918,2.4361,2.4218,2.3363,2.2334,2.128,2.119,2.0768,2.0094,2.0394,2.0396,2.0192,2.0195,2.0195,2.0156,1.9821,1.97,1.9739,1.9989,2.0085,2.0087,-0.7817,-0.827,-0.8739,-0.9173,-0.9438,-0.9664,-0.9885,-1.0251,-1.0332,-0.9894,-1.0059,-1.013,-0.997,-1.1082,0.0,-1.2452,-1.2628,-1.2909,-1.3362,-1.3716,-1.414,-1.4663,-1.504,-1.5591,-1.6436,0.0,0.0,-1.8095,-1.8784,-1.9702,-2.0764,-2.1229,-2.1731,-2.2303,-2.273,-2.302,-2.3193,-2.3383,-2.362,-2.3917,-2.4057,-2.4229,-2.4444,-2.4594,-2.4657,-2.4689,-2.4847,-2.4968,-2.5056,-2.5168,-2.5311,-2.5467,-2.5479,-2.5578,-2.5672,-2.5684,-2.5701,-2.5698,-2.5693,-2.5651,-2.5601,-2.5598,-2.5551,-2.5499,-2.5441,-2.5311,-2.5143,-2.4934,-2.4704,-2.4492,-2.4332,-2.3988,-2.3599,-2.3178,0.0,-1.7136,-0.7206,0.0,0.0,0.0,0.0,0.0,0.0,1.8577,0.0,0.0,0.0,0.0,0.0,0.0,0.0,2.4936,2.5294,0.0,2.5867,2.4912,2.4489,2.4617,2.3717,2.3036,2.2557,2.2125,2.1543,2.0905,2.0616,2.0528,2.0564,2.0598,2.0601,2.0602,2.0547,2.0546,2.0527,2.0505,2.0506,2.0508,-0.6709,-0.6811,0.0,0.0,-0.8149,0.0,-0.9235,-0.9364,-0.9373,-0.9447,-0.9498,-0.9533,-0.9487,-0.9909,-1.061,-1.1566,0.0,0.0,0.0,-1.3515,-1.3941,-1.4571,-1.4606,0.0,-1.638,-1.6441,-1.7034,-1.8149,-1.9199,-2.0085,-2.0845,-2.115,-2.1598,-2.2124,-2.2651,-2.2927,-2.3028,-2.3504,-2.3768,-2.3896,-2.4036,-2.4153,-2.4303,-2.451,-2.4591,-2.4639,-2.4818,-2.4981,-2.5103,-2.5176,-2.5293,-2.5403,-2.5466,-2.5542,-2.5613,-2.5661,-2.5703,-2.5703,-2.5694,-2.5651,-2.5601,-2.5613,-2.556,-2.5464,-2.5313,-2.5091,-2.4888,-2.4851,-2.4335,-2.3864,-2.3764,-2.3414,-2.2698,-2.1299,-2.0568,-1.7199,-0.8691,0.0,0.0,0.0,0.0,0.0,0.0,1.7229,1.7135,0.0,0.0,0.0,0.0,0.0,2.3462,2.3216,2.4665,2.5342,2.5041,2.4927,2.4666,2.4287,2.4287,2.4449,2.4707,2.3438,2.2411,2.162,2.0953,2.0591,2.0503,2.0564,2.0593,2.0594,2.0602,2.0604,2.0585,2.0527,2.0508,2.0501,0.0,0.0,-0.6859,-0.7071,-0.7363,-0.7572,-0.7708,-0.7944,-0.8065,-0.7871,-0.8149,-0.8282,-0.8174,-0.8468,-0.9093,-1.0064,-1.0914,-1.1516,-1.1864,-1.2209,-1.2706,-1.3389,-1.3815,-1.4422,-1.5266,-1.5844,-1.6697,-1.7882,-1.8945,-1.9737,-2.0215,-2.0991,-2.1584,-2.1969,-2.2624,-2.3003,-2.3182,-2.3549,-2.3747,-2.3837,-2.4016,-2.4114,-2.4154,-2.4375,-2.4547,-2.4673,-2.4719,-2.4898,-2.5107,-2.512,-2.5261,-2.5412,-2.5418,-2.5492,-2.5605,-2.5622,-2.5662,-2.5703,-2.5703,-2.5693,-2.5671,-2.569,-2.5542,-2.5395,-2.5241,-2.5069,-2.4795,-2.4449,-2.4118,-2.3764,-2.3333,-2.2358,-2.1504,-2.1166,-1.8209,-1.3986,-0.8437,-0.5526,0.0,0.0,0.8998,1.0972,1.5541,1.6625,1.7577,0.0,0.0,0.0,0.0,0.0,2.2608,2.3172,2.444,2.5179,2.5371,2.5363,2.5296,2.52,2.5691,2.5685,2.5245,2.5371,2.4293,2.2363,2.2344,2.1634,2.05,2.0525,2.054,2.0594,2.0596,2.0597,2.0596,2.0527,2.0499,2.0492,-0.5411,-0.554,-0.5585,-0.565,-0.589,-0.6179,-0.6427,-0.6576,-0.6786,-0.7091,-0.726,-0.7389,-0.7419,-0.7729,-0.8156,-0.8672,-0.9799,-1.072,-1.1266,-1.1616,-1.2159,-1.2861,-1.3198,-1.3852,-1.5017,-1.5433,-1.6373,-1.7935,-1.8945,-1.9681,-2.0093,-2.0926,-2.1495,-2.184,-2.2419,-2.2764,-2.2943,-2.3277,-2.3513,-2.3671,-2.3795,-2.3919,-2.4077,-2.4284,-2.4478,-2.4673,-2.4764,-2.494,-2.5151,-2.5144,-2.525,-2.536,-2.5393,-2.5498,-2.5599,-2.5597,-2.5631,-2.5663,-2.5683,-2.5693,-2.5687,-2.5589,-2.5427,-2.5264,-2.5056,-2.4888,-2.4632,-2.4173,-2.3769,-2.3315,-2.2634,-2.1645,-2.0432,-1.8967,-1.5638,-1.1557,-0.667,-0.3141,0.0,0.7178,0.9114,1.1319,1.4869,1.6385,1.7676,1.891,0.0,0.0,2.056,2.1307,2.2132,2.3172,2.4225,2.5098,2.5762,2.5782,2.5893,2.618,2.6627,2.6775,2.6673,2.6296,2.5259,2.3684,2.2658,2.1759,2.0983,2.0639,2.0528,2.0562,2.0591,2.0588,2.056,2.0506,2.0457,2.0395,-0.3949,-0.4146,-0.4312,-0.4215,-0.4543,-0.4901,-0.5339,-0.537,-0.5679,-0.6552,-0.6506,-0.6534,-0.681,-0.7182,-0.745,-0.745,-0.8508,-0.9644,-1.0813,-1.1174,-1.1665,-1.2521,-1.2618,-1.3369,-1.4915,-1.5231,-1.6207,-1.7987,-1.893,-1.9645,-2.0139,-2.0827,-2.1277,-2.1617,-2.2136,-2.2439,-2.2571,-2.2943,-2.3259,-2.3455,-2.3455,-2.3649,-2.3978,-2.4136,-2.4371,-2.4639,-2.4818,-2.5013,-2.5203,-2.5206,-2.5252,-2.5332,-2.5387,-2.5499,-2.5593,-2.5613,-2.5615,-2.564,-2.5681,-2.5683,-2.5621,-2.5454,-2.5274,-2.5094,-2.4864,-2.4648,-2.4371,-2.3906,-2.3298,-2.2565,-2.1781,-2.0687,-1.901,-1.6312,-1.315,-0.9306,-0.441,0.0,0.3205,0.7706,0.984,1.2075,1.5008,1.6467,1.7709,1.8934,1.95,0.0,0.0,2.1126,2.196,2.3172,2.4036,2.4958,2.6104,2.6114,2.644,2.7139,2.7302,2.7697,2.8256,2.6894,2.5887,2.5095,2.2776,2.1696,2.1506,2.0774,2.0487,2.0494,2.0558,2.0533,2.0471,2.0464,2.0391,2.0302,-0.4015,-0.4151,-0.4278,-0.4262,-0.44,-0.4566,-0.4629,-0.4615,-0.4727,-0.5078,-0.5173,-0.5269,-0.555,-0.5982,-0.6308,-0.6426,-0.6799,-0.7759,-0.9406,-0.988,-1.0454,-1.1309,-1.1819,-1.2589,-1.3836,-1.5365,-1.6544,-1.7435,-1.8496,-1.9303,-1.9859,-2.0413,-2.0828,-2.1134,-2.189,-2.2248,-2.232,-2.2985,-2.3295,-2.3319,-2.3319,-2.3508,-2.3735,-2.3777,-2.4155,-2.4689,-2.4731,-2.4929,-2.5206,-2.5201,-2.5283,-2.5388,-2.5395,-2.5499,-2.5618,-2.5671,-2.5681,-2.5696,-2.5703,-2.5618,-2.5515,-2.5486,-2.5216,-2.4949,-2.4885,-2.4433,-2.3906,-2.3559,-2.2384,-2.1312,-2.094,-1.828,-1.6045,-1.5712,-1.0989,-0.6375,0.0,0.0,0.3803,0.9118,1.0312,1.2022,1.5357,1.6948,1.8135,1.8934,1.95,2.0245,2.1224,2.1369,2.2021,2.3304,2.3824,2.4744,2.6104,2.6094,2.6667,2.7776,2.8013,2.839,2.885,2.8278,2.7203,2.5694,2.41,2.2681,2.1361,2.0643,2.0366,2.0413,2.0437,2.0418,2.0405,2.0355,2.032,2.0296,-0.2508,-0.2628,-0.2723,-0.277,-0.2956,-0.3234,-0.3532,-0.3653,-0.3942,-0.4584,-0.4485,-0.4611,-0.5062,-0.5273,-0.5542,-0.5832,-0.6209,-0.6799,-0.7753,-0.8343,-0.9079,-0.9917,-1.0685,-1.2021,-1.3956,-1.5342,-1.6502,-1.7421,-1.8444,-1.9273,-1.9879,-2.0481,-2.0991,-2.1462,-2.1866,-2.2169,-2.2381,-2.2721,-2.2952,-2.3144,-2.3193,-2.3348,-2.3566,-2.3774,-2.4079,-2.4405,-2.4575,-2.479,-2.4994,-2.5111,-2.5187,-2.5252,-2.5382,-2.5479,-2.556,-2.5639,-2.5676,-2.5683,-2.5658,-2.5566,-2.5454,-2.528,-2.5146,-2.4924,-2.4412,-2.4137,-2.3674,-2.2427,-2.1602,-2.048,-1.8484,-1.6585,-1.438,-1.159,-0.7144,0.0,0.0,0.3653,0.7346,0.961,1.1729,1.3889,1.6198,1.739,1.8405,1.9344,1.9643,2.0295,2.1321,2.1417,2.2021,2.3363,2.4116,2.4926,2.5762,2.6229,2.6822,2.7525,2.7946,2.8412,2.892,2.7871,2.7065,2.6439,2.445,2.3239,2.2594,2.138,2.0952,2.0989,2.0561,2.0381,2.0349,2.0314,2.0295,2.0299,-0.0873,-0.0899,-0.0976,-0.1062,-0.1284,-0.1556,-0.2092,-0.2314,-0.2707,-0.355,-0.3452,-0.3506,-0.4177,-0.4281,-0.4501,-0.5011,-0.5508,-0.5828,-0.5806,-0.6563,-0.7581,-0.8915,-1.034,-1.2122,-1.4354,-1.552,-1.6544,-1.7516,-1.7006,-1.7056,-1.7591,-1.8278,-1.8849,-1.9296,-1.9592,-2.0635,-2.2029,-1.9428,-1.9228,-2.0703,-2.0863,-2.1028,-2.1427,-2.3163,-2.3961,-2.4155,-2.4442,-2.4657,-2.4847,-2.5044,-2.5106,-2.5134,-2.5357,-2.5453,-2.5515,-2.5576,-2.5642,-2.5663,-2.5606,-2.5532,-2.5406,-2.5168,-2.5008,-2.4738,-2.4082,-2.364,-2.2934,-2.1275,-2.0273,-1.8902,-1.6089,-1.4321,-1.1853,-0.7538,0.0,0.0,0.0,0.674,0.9932,1.0233,1.2798,1.5167,1.6791,1.7622,1.8525,1.954,1.9747,2.0194,2.1175,2.1321,2.2067,2.3508,2.4405,2.5082,2.5503,2.6264,2.6822,2.723,2.7747,2.8218,2.8581,2.7138,2.6594,2.665,2.4382,2.3531,2.3598,2.223,2.1737,2.1779,2.1184,2.0927,2.0874,2.0874,2.0877,2.0889,0.0379,0.025,0.0187,0.019,0.0125,0.0061,-0.024,-0.0296,-0.0524,-0.1073,-0.112,-0.1397,-0.2125,-0.2462,-0.2798,-0.3411,-0.4203,-0.4317,-0.3574,-0.4291,-0.6023,-0.8894,-1.1594,-1.3585,-1.4652,-1.5952,-1.6921,-1.7516,-1.2531,-1.0332,-1.0718,-1.1344,-1.1692,-1.1836,-1.2779,-1.6208,-2.0623,-1.0249,-0.8942,-1.3874,-1.4249,-1.4552,-1.54,-2.1154,-2.3696,-2.421,-2.4282,-2.4572,-2.4912,-2.5056,-2.5107,-2.5143,-2.5401,-2.5498,-2.5517,-2.5583,-2.5602,-2.5605,-2.5597,-2.5453,-2.534,-2.543,-2.4759,-2.4118,-2.4236,-2.2723,-2.1144,-2.0509,-1.7874,-1.5519,-1.474,-1.0556,-0.6857,-0.5743,0.0,0.0,0.4097,0.6297,0.8783,1.167,1.2877,1.4355,1.6778,1.7655,1.8375,1.8987,1.95,2.0055,2.061,2.114,2.2207,2.3882,2.4317,2.4855,2.5503,2.5944,2.6522,2.7304,2.7701,2.7869,2.7746,2.6885,2.6257,2.5707,2.4092,2.342,2.3389,2.2776,2.2524,2.2526,2.2602,2.2618,2.2609,2.2609,2.2628,2.262,0.0763,0.0663,0.0609,0.065,0.0543,0.0363,0.0115,-0.0,-0.0238,-0.0565,-0.0448,-0.0614,-0.1229,-0.1229,-0.1453,-0.2179,-0.2856,-0.3135,-0.2961,-0.2391,-0.4111,-0.8729,-1.1361,-1.3355,-1.4767,-1.2372,-1.1504,-1.2302,-0.6814,-0.431,-0.4659,-0.5088,-0.5541,-0.6079,-0.652,-0.8281,-1.0562,-0.6304,-0.5778,-0.8105,-1.215,-1.3796,-1.4552,-2.0984,-2.1427,-1.8634,-1.8857,-1.9116,-1.9409,-1.953,-2.1955,-2.4962,-2.513,-2.5283,-2.5409,-2.5505,-2.5545,-2.5466,-2.512,-2.4983,-2.4896,-2.4782,-2.3545,-2.2293,-2.19,-2.0054,-1.7801,-1.5492,-1.353,-1.1376,-0.847,-0.5769,-0.3368,-0.1355,0.0,0.5037,0.5923,0.897,1.1503,1.239,1.3725,1.5431,1.7501,1.7929,1.8471,1.9448,2.0003,2.0547,2.1091,2.186,2.2844,2.3982,2.4234,2.471,2.5378,2.548,2.5765,2.6185,2.6312,2.641,2.6495,2.5814,2.55,2.5447,2.45,2.4192,2.4257,2.3531,2.3351,2.3467,2.2996,2.2793,2.2793,2.2793,2.2793,2.2784,0.1621,0.1566,0.1534,0.1579,0.1451,0.1237,0.0957,0.0814,0.0589,0.0338,0.0448,0.0335,-0.0223,-0.0,-0.0112,-0.0838,-0.095,-0.0949,-0.089,0.0055,-0.1273,-0.5526,-0.7151,-0.8397,-0.9385,-0.6483,-0.5313,-0.6088,-0.0402,0.2198,0.1771,0.143,0.0992,0.0418,0.0038,-0.1487,-0.3518,-0.0078,0.0355,-0.1698,-0.6336,-0.8138,-0.8751,-1.5242,-1.5388,-1.2191,-1.2346,-1.2595,-1.2844,-1.3152,-1.5892,-1.9553,-2.1662,-2.3698,-2.5318,-2.5414,-2.5343,-2.4628,-2.1743,-2.1532,-2.2299,-2.3195,-2.2265,-2.0665,-1.8827,-1.676,-1.4301,-1.0969,-0.899,-0.6929,-0.3755,-0.1458,0.0627,0.2801,0.5614,0.7674,0.8078,1.0989,1.3014,1.2963,1.4596,1.6363,1.7938,1.8267,1.8792,1.9747,2.0156,2.0646,2.1369,2.242,2.3348,2.4067,2.4225,2.454,2.5148,2.5456,2.5681,2.5896,2.5779,2.5764,2.579,2.5105,2.4871,2.498,2.4838,2.492,2.5099,2.4544,2.4454,2.4568,2.3771,2.3466,2.3494,2.3743,2.3686,2.3484,0.3086,0.3086,0.3086,0.3086,0.3086,0.2974,0.2577,0.2521,0.2354,0.1853,0.1793,0.1621,0.1174,0.1342,0.1285,0.067,0.1621,0.246,0.3007,0.3329,0.2816,0.1353,0.1452,0.1866,0.2577,0.1668,0.0975,0.0568,0.6673,0.9346,0.8765,0.8285,0.8069,0.8038,0.7038,0.3384,-0.123,0.9609,1.0949,0.5663,0.458,0.4202,0.3628,-0.2683,-0.5222,-0.5405,-0.5405,-0.5556,-0.5821,-0.649,-0.6777,-0.7998,-1.439,-2.042,-2.5118,-2.5129,-2.4851,-2.2819,-1.49,-1.4499,-1.7136,-2.0511,-2.0931,-1.9388,-1.5189,-1.2924,-1.0821,-0.7556,-0.45,-0.2175,-0.1518,0.2047,0.5301,0.6334,0.8107,0.9703,1.0737,1.1747,1.26,1.3438,1.5259,1.6872,1.7993,1.8643,1.9239,1.9747,1.9798,2.0295,2.1369,2.2546,2.355,2.4261,2.4248,2.4406,2.48,2.5897,2.6573,2.6657,2.6545,2.6229,2.575,2.4955,2.4428,2.4152,2.5016,2.5521,2.5726,2.5845,2.5911,2.5834,2.5173,2.4902,2.5015,2.5797,2.5589,2.5015,0.3702,0.3758,0.3872,0.4271,0.4216,0.3987,0.3588,0.3538,0.3429,0.3091,0.3408,0.3503,0.3166,0.339,0.339,0.2998,0.3327,0.4634,0.734,0.9829,1.1054,1.0757,0.5086,0.1861,0.1778,0.5045,0.672,0.6553,1.2469,1.5284,1.5138,1.4909,1.4647,1.4293,1.3974,1.2677,1.0881,1.4157,1.436,1.2105,0.745,0.5413,0.4477,-0.1687,-0.1737,0.1535,0.1535,0.1347,0.1118,0.0925,-0.1809,-0.5487,-0.7504,-0.8613,-0.9179,-0.9269,-1.0154,-1.0494,-0.7717,-0.8251,-0.9583,-0.9577,-1.0167,-1.016,-0.7805,-0.5856,-0.3618,-0.0199,0.1685,0.3203,0.473,0.6971,0.8537,0.8499,1.0482,1.1877,1.153,1.3328,1.4816,1.5093,1.6299,1.7542,1.8608,1.8522,1.8773,1.9722,2.0497,2.1369,2.2402,2.2859,2.348,2.4261,2.4476,2.4872,2.557,2.5011,2.4658,2.4526,2.4637,2.4409,2.3912,2.4001,2.4299,2.4756,2.5354,2.6023,2.6689,2.6722,2.6787,2.6805,2.6034,2.574,2.5703,2.5381,2.511,2.4926,0.4438,0.4522,0.4611,0.5007,0.4952,0.4732,0.447,0.4484,0.4421,0.4226,0.4542,0.4692,0.4515,0.4645,0.471,0.4594,0.5229,0.6615,0.9082,1.2304,1.4354,1.4873,1.0705,0.8413,0.8446,1.1605,1.3073,1.2783,1.6625,1.8397,1.8175,1.8082,1.7828,1.7462,1.7297,1.698,1.6646,1.6409,1.6151,1.5603,1.1561,0.9812,0.9221,0.5471,0.6132,0.9098,0.9098,0.9079,0.9053,0.8953,0.5145,0.0486,0.0649,-0.0288,-0.1547,-0.2162,-0.3032,-0.3212,-0.0486,-0.1131,-0.1682,0.197,-0.0804,-0.3889,-0.1645,-0.0099,0.1697,0.4694,0.6174,0.7356,0.8566,1.0043,1.1072,1.0947,1.2431,1.353,1.3299,1.4845,1.6103,1.6415,1.7402,1.8301,1.8963,1.8841,1.9095,1.9984,2.0825,2.1736,2.2768,2.3275,2.3882,2.4574,2.4689,2.5003,2.5579,2.4828,2.4625,2.4923,2.433,2.4217,2.4471,2.4141,2.4477,2.5366,2.6069,2.6742,2.7326,2.7121,2.706,2.7069,2.6261,2.5938,2.5957,2.6107,2.5957,2.5678,0.5405,0.5437,0.5421,0.5474,0.5474,0.5441,0.5281,0.5407,0.5483,0.5338,0.5515,0.5632,0.5659,0.5653,0.5738,0.5892,0.7323,0.8619,0.9438,1.2234,1.4293,1.5282,1.7111,1.8447,1.9169,1.9325,1.9087,1.8458,1.9199,1.9265,1.863,1.8592,1.8475,1.8268,1.7841,1.7625,1.7625,1.7066,1.6886,1.6899,1.6225,1.6009,1.6096,1.5997,1.612,1.6325,1.6384,1.661,1.6846,1.6718,1.3254,0.9109,0.9599,0.6108,0.1584,0.0234,-0.0028,0.1309,0.6708,0.6432,0.6101,1.2424,0.7058,0.0962,0.3738,0.4735,0.5681,0.7881,0.9416,1.0447,1.0639,1.1751,1.2909,1.3515,1.4091,1.4761,1.5717,1.6367,1.695,1.7497,1.8517,1.9133,1.9032,1.9383,1.9885,2.0441,2.0945,2.1662,2.2665,2.3724,2.4492,2.5052,2.492,2.4968,2.5209,2.5143,2.5698,2.6783,2.5188,2.5164,2.6455,2.5059,2.4986,2.5954,2.6976,2.7541,2.7728,2.7241,2.7063,2.7008,2.6191,2.5894,2.608,2.7492,2.7492,2.6786,0.6258,0.6293,0.6445,0.6966,0.6848,0.6681,0.6647,0.7058,0.7287,0.7172,0.7941,0.8436,0.8268,0.8605,0.8822,0.8867,1.0277,1.1826,1.3377,1.5,1.6503,1.7745,1.865,1.9101,1.9124,1.9139,1.9101,1.8936,1.9213,1.9228,1.8988,1.9035,1.902,1.8997,1.8869,1.8817,1.8817,1.864,1.8419,1.821,1.8025,1.793,1.7862,1.7822,1.8004,1.8257,1.8615,1.8809,1.8926,1.9386,1.8723,1.7693,1.7294,1.7089,1.6692,1.5304,1.3884,1.2831,1.3221,1.2107,1.1131,1.2278,1.208,1.1214,0.9945,0.9661,1.0188,1.1972,1.2532,1.283,1.3344,1.3406,1.3809,1.5143,1.5454,1.5901,1.6887,1.7835,1.8503,1.8653,1.962,1.994,1.9083,1.9019,1.9588,2.0993,2.117,2.1721,2.2949,2.3638,2.4214,2.4768,2.5169,2.5546,2.5971,2.553,2.5275,2.5197,2.5407,2.5542,2.5665,2.5525,2.5938,2.6746,2.715,2.7695,2.833,2.8197,2.8301,2.8463,2.7595,2.7389,2.7567,2.7269,2.6656,2.5875,0.7758,0.7878,0.8051,0.835,0.835,0.829,0.829,0.859,0.8791,0.872,0.932,0.9756,0.9642,0.9936,1.0383,1.0856,1.2036,1.3408,1.4901,1.6016,1.7122,1.8288,1.8869,1.9199,1.9273,1.9493,1.9515,1.9339,1.9803,1.9945,1.9808,1.9808,1.9773,1.9687,1.9485,1.9485,1.9651,1.9427,1.9339,1.9353,1.9504,1.9557,1.9541,1.9703,2.0013,2.0415,2.0641,2.0983,2.1389,2.1941,2.208,2.2007,2.1919,2.2159,2.2202,2.082,1.9336,1.7847,1.6284,1.5229,1.4394,1.37,1.4505,1.496,1.3135,1.2705,1.2907,1.3784,1.3899,1.4125,1.4942,1.4857,1.5118,1.6443,1.6627,1.6977,1.8046,1.8666,1.9101,1.9371,1.9901,2.0089,1.9716,1.9847,2.0419,2.1627,2.17,2.2193,2.3377,2.3782,2.4297,2.4926,2.5297,2.5721,2.622,2.5911,2.5782,2.5777,2.5545,2.5784,2.649,2.6276,2.6605,2.7341,2.7731,2.8123,2.8492,2.8351,2.8423,2.8532,2.807,2.7966,2.8086,2.8106,2.7567,2.6693,0.9263,0.9436,0.9496,0.9528,0.9588,0.9655,0.9708,0.988,1.0029,1.0087,1.0393,1.0607,1.0656,1.0973,1.1621,1.2676,1.3502,1.4529,1.5794,1.6641,1.7505,1.8493,1.8977,1.9376,1.9752,2.0154,2.0139,1.9707,2.0413,2.0697,2.0583,2.0632,2.055,2.0385,2.0043,2.0112,2.0436,2.0043,2.0112,2.0538,2.0767,2.0971,2.1163,2.142,2.1865,2.2329,2.2429,2.2941,2.3619,2.3953,2.3957,2.3833,2.406,2.3676,2.2846,2.1404,2.0384,1.9275,1.737,1.6672,1.6293,1.5412,1.549,1.5599,1.4858,1.4663,1.4628,1.4584,1.4606,1.497,1.5963,1.6009,1.6302,1.7533,1.763,1.7938,1.8983,1.9138,1.9356,1.985,1.9927,2.0161,2.077,2.1007,2.1439,2.2279,2.2363,2.2782,2.3794,2.4147,2.4623,2.5214,2.5481,2.5811,2.622,2.622,2.6434,2.6923,2.5829,2.6179,2.7683,2.7069,2.7122,2.7713,2.8166,2.8358,2.8348,2.8127,2.8064,2.8107,2.8107,2.8128,2.8244,2.8836,2.8503,2.7577,0.9862,0.989,0.9918,0.9934,0.9919,0.9976,1.0092,1.0549,1.0895,1.1167,1.1786,1.2299,1.2589,1.3188,1.4064,1.5295,1.5768,1.6671,1.8204,1.8754,1.9396,2.0215,2.0431,2.0614,2.0797,2.1118,2.0942,2.022,2.0512,2.063,2.0614,2.1023,2.1179,2.1148,2.1101,2.124,2.1464,2.1132,2.1285,2.1764,2.1809,2.2099,2.2547,2.2691,2.2948,2.329,2.3821,2.4302,2.4649,2.4413,2.4282,2.4044,2.3009,2.2622,2.2117,2.0167,1.9474,1.895,1.7081,1.6514,1.6386,1.5832,1.5744,1.5876,1.6151,1.5876,1.5611,1.5599,1.5599,1.5924,1.6992,1.6501,1.6515,1.8487,1.846,1.8542,1.9533,1.9709,1.9901,2.0409,2.047,2.1046,2.2429,2.1397,2.1312,2.2878,2.2909,2.3238,2.4032,2.4784,2.5291,2.5465,2.5864,2.6132,2.622,2.622,2.6345,2.6674,2.6703,2.7068,2.7701,2.7596,2.7613,2.7683,2.7771,2.78,2.7811,2.7763,2.7887,2.8084,2.8084,2.824,2.8367,2.7803,2.7113,2.6422,1.0898,1.1089,1.1139,1.1079,1.1254,1.1504,1.1823,1.213,1.2513,1.2966,1.344,1.3772,1.3935,1.4675,1.5445,1.6065,1.6803,1.7596,1.8404,1.911,1.9783,2.0416,2.0714,2.0893,2.0991,2.1475,2.1565,2.1243,2.1383,2.1477,2.157,2.1836,2.2005,2.2079,2.1961,2.2122,2.2453,2.2116,2.2297,2.2803,2.2947,2.3264,2.3676,2.3869,2.4148,2.4511,2.4814,2.4938,2.4924,2.4663,2.4176,2.3566,2.2855,2.2237,2.1589,2.0518,1.9778,1.9037,1.7773,1.7175,1.6795,1.6324,1.6194,1.625,1.6466,1.6337,1.6194,1.6194,1.6207,1.6584,1.7634,1.7735,1.8032,1.9233,1.9244,1.942,2.0118,2.0592,2.0991,2.1472,2.1513,2.1783,2.2512,2.2233,2.2382,2.326,2.3313,2.3564,2.4204,2.4574,2.502,2.5503,2.5721,2.5937,2.622,2.622,2.6345,2.6606,2.6742,2.7038,2.7539,2.7642,2.7701,2.7701,2.7869,2.7926,2.7954,2.8102,2.8219,2.8324,2.8324,2.8402,2.8395,2.7592,2.7375,2.7345]},{"header":{"parameterUnit":"m.s-1","parameterCategory":1,"la1":30.6,"la2":28.766,"lo1":-90.7593,"lo2":-88.6598,"dy":0.0162,"dx":0.0183,"nx":116,"ny":114,"refTime":"2023-06-01T12:00:00:Z","depth":0,"parameterNumber":3,"parameterNumberName":"V-component_of_WINDS"},"data":[0.0,0.0,0.0,0.0,0.0,0.0,0.0,0.0,0.0,0.0,0.0,0.0,0.0,0.0,0.0,0.0,0.0,0.0,0.0,0.0,0.0,0.0,0.0,0.0,0.0,0.0,0.0,0.0,0.0,0.0,0.0,0.0,0.0,0.0,0.0,0.0,0.0,0.0,0.0,0.0,0.0,0.0,0.0,0.0,0.0,0.0,0.0,0.0,0.0,0.0,0.0,0.0,0.0,0.0,0.0,0.0,0.0,0.0,0.0,0.0,0.0,0.0,0.0,0.0,0.0,0.0,0.0,0.0,0.0,0.0,0.0,0.0,0.0,0.0,0.0,0.0,0.0,0.0,0.0,0.0,0.0,0.0,0.0,0.0,0.0,0.0,0.0,0.0,0.0,0.0,0.0,0.0,0.0,0.0,0.0,0.0,0.0,0.0,0.0,0.0,0.0,0.0,0.0,0.0,0.0,0.0,0.0,0.0,0.0,0.0,0.0,0.0,0.0,0.0,0.0,0.0,0.0,0.0,0.0,0.0,0.0,0.0,0.0,0.0,0.0,0.0,0.0,0.0,0.0,0.0,0.0,0.0,0.0,0.0,0.0,0.0,0.0,0.0,0.0,0.0,0.0,0.0,0.0,0.0,0.0,0.0,0.0,0.0,0.0,0.0,0.0,0.0,0.0,0.0,0.0,0.0,0.0,0.0,0.0,0.0,0.0,0.0,0.0,0.0,0.0,0.0,0.0,0.0,0.0,0.0,0.0,0.0,0.0,0.0,0.0,0.0,0.0,0.0,0.0,0.0,0.0,0.0,0.0,0.0,0.0,0.0,0.0,0.0,0.0,0.0,0.0,0.0,0.0,0.0,0.0,0.0,0.0,0.0,0.0,0.0,0.0,0.0,0.0,0.0,0.0,0.0,0.0,0.0,0.0,0.0,0.0,0.0,0.0,0.0,0.0,0.0,0.0,0.0,0.0,0.0,0.0,0.0,0.0,0.0,0.0,0.0,0.0,0.0,0.0,0.0,0.0,0.0,0.0,0.0,0.0,0.0,0.0,0.0,0.0,0.0,0.0,0.0,0.0,0.0,0.0,0.0,0.0,0.0,0.0,0.0,0.0,0.0,0.0,0.0,0.0,0.0,0.0,0.0,0.0,0.0,0.0,0.0,0.0,0.0,0.0,0.0,0.0,0.0,0.0,0.0,0.0,0.0,0.0,0.0,0.0,0.0,0.0,0.0,0.0,0.0,0.0,0.0,0.0,0.0,0.0,0.0,0.0,0.0,0.0,0.0,0.0,0.0,0.0,0.0,0.0,0.0,0.0,0.0,0.0,0.0,0.0,0.0,0.0,0.0,0.0,0.0,0.0,0.0,0.0,0.0,0.0,0.0,0.0,0.0,0.0,0.0,0.0,0.0,0.0,0.0,0.0,0.0,0.0,0.0,0.0,0.0,0.0,0.0,0.0,0.0,0.0,0.0,0.0,0.0,0.0,0.0,0.0,0.0,0.0,0.0,0.0,0.0,0.0,0.0,0.0,0.0,0.0,0.0,0.0,0.0,0.0,0.0,0.0,0.0,0.0,0.0,0.0,0.0,0.0,0.0,0.0,0.0,0.0,0.0,0.0,0.0,0.0,0.0,0.0,0.0,0.0,0.0,0.0,0.0,0.0,0.0,0.0,0.0,0.0,0.0,0.0,0.0,0.0,0.0,0.0,0.0,0.0,0.0,0.0,0.0,0.0,0.0,0.0,0.0,0.0,0.0,0.0,0.0,0.0,0.0,0.0,0.0,0.0,0.0,0.0,0.0,0.0,0.0,0.0,0.0,0.0,0.0,0.0,0.0,0.0,0.0,0.0,0.0,0.0,0.0,0.0,0.0,0.0,0.0,0.0,0.0,0.0,0.0,0.0,0.0,0.0,0.0,0.0,0.0,0.0,0.0,0.0,0.0,0.0,0.0,0.0,0.0,0.0,0.0,0.0,0.0,0.0,0.0,0.0,0.0,0.0,0.0,0.0,0.0,0.0,0.0,0.0,0.0,0.0,0.0,0.0,0.0,0.0,0.0,0.0,0.0,0.0,0.0,0.0,0.0,0.0,0.0,0.0,0.0,0.0,0.0,0.0,0.0,0.0,0.0,0.0,0.0,0.0,0.0,0.0,0.0,0.0,0.0,0.0,0.0,0.0,0.0,0.0,0.0,0.0,0.0,0.0,0.0,0.0,0.0,0.0,0.0,0.0,0.0,0.0,0.0,0.0,0.0,0.0,0.0,0.0,0.0,0.0,0.0,0.0,0.0,0.0,0.0,0.0,0.0,0.0,0.0,0.0,0.0,0.0,0.0,0.0,0.0,0.0,0.0,0.0,0.0,0.0,0.0,0.0,0.0,0.0,0.0,0.0,0.0,0.0,0.0,0.0,0.0,0.0,0.0,0.0,0.0,0.0,0.0,0.0,0.0,0.0,0.0,0.0,0.0,0.0,0.0,0.0,0.0,0.0,0.0,0.0,0.0,0.0,0.0,0.0,0.0,0.0,0.0,0.0,0.0,0.0,0.0,0.0,0.0,0.0,0.0,0.0,0.0,0.0,0.0,0.0,0.0,0.0,0.0,0.0,0.0,0.0,0.0,0.0,0.0,0.0,0.0,0.0,0.0,0.0,0.0,0.0,0.0,0.0,0.0,0.0,0.0,0.0,0.0,0.0,0.0,0.0,0.0,0.0,0.0,0.0,0.0,0.0,0.0,0.0,0.0,0.0,0.0,0.0,0.0,0.0,0.0,0.0,0.0,0.0,0.0,0.0,0.0,0.0,0.0,0.0,0.0,0.0,0.0,0.0,0.0,0.0,0.0,0.0,0.0,0.0,0.0,0.0,0.0,0.0,0.0,0.0,0.0,0.0,0.0,0.0,0.0,0.0,0.0,0.0,0.0,0.0,0.0,0.0,0.0,0.0,0.0,0.0,0.0,0.0,0.0,0.0,0.0,0.0,0.0,0.0,0.0,0.0,0.0,0.0,0.0,0.0,0.0,0.0,0.0,0.0,0.0,0.0,0.0,0.0,0.0,0.0,0.0,0.0,0.0,0.0,0.0,0.0,0.0,0.0,0.0,0.0,0.0,0.0,0.0,0.0,0.0,0.0,0.0,0.0,0.0,0.0,0.0,0.0,0.0,0.0,0.0,0.0,0.0,0.0,0.0,0.0,0.0,0.0,0.0,0.0,0.0,0.0,0.0,0.0,0.0,0.0,0.0,0.0,0.0,0.0,0.0,0.0,0.0,0.0,0.0,0.0,0.0,0.0,0.0,0.0,0.0,0.0,0.0,0.0,0.0,0.0,0.0,0.0,0.0,0.0,0.0,0.0,0.0,0.0,0.0,0.0,0.0,0.0,0.0,0.0,0.0,0.0,0.0,0.0,0.0,0.0,0.0,0.0,0.0,0.0,0.0,0.0,0.0,0.0,0.0,0.0,0.0,0.0,0.0,0.0,0.0,0.0,0.0,0.0,0.0,0.0,0.0,0.0,0.0,0.0,0.0,0.0,0.0,0.0,0.0,0.0,0.0,0.0,0.0,0.0,0.0,0.0,0.0,0.0,0.0,0.0,0.0,0.0,0.0,0.0,0.0,0.0,0.0,0.0,0.0,0.0,0.0,0.0,0.0,0.0,0.0,0.0,0.0,0.0,0.0,0.0,0.0,0.0,0.0,0.0,0.0,0.0,0.0,0.0,0.0,0.0,0.0,0.0,0.0,0.0,0.0,0.0,0.0,0.0,0.0,0.0,0.0,0.0,0.0,0.0,0.0,0.0,0.0,0.0,0.0,0.0,0.0,0.0,0.0,0.0,0.0,0.0,0.0,0.0,0.0,0.0,0.0,0.0,0.0,0.0,0.0,0.0,0.0,0.0,0.0,0.0,0.0,0.0,0.0,0.0,0.0,0.0,0.0,0.0,0.0,0.0,0.0,0.0,0.0,0.0,0.0,0.0,0.0,0.0,0.0,0.0,0.0,0.0,0.0,0.0,0.0,0.0,0.0,0.0,0.0,0.0,0.0,0.0,0.0,0.0,0.0,0.0,0.0,0.0,0.0,0.0,0.0,0.0,0.0,0.0,0.0,0.0,0.0,0.0,0.0,0.0,0.0,0.0,0.0,0.0,0.0,0.0,0.0,0.0,0.0,0.0,0.0,0.0,0.0,0.0,0.0,0.0,0.0,0.0,0.0,0.0,0.0,0.0,0.0,0.0,0.0,0.0,0.0,0.0,0.0,0.0,0.0,0.0,0.0,0.0,0.0,0.0,0.0,0.0,0.0,0.0,0.0,0.0,0.0,0.0,0.0,0.0,0.0,0.0,0.0,0.0,0.0,0.0,0.0,0.0,0.0,0.0,0.0,0.0,0.0,0.0,0.0,0.0,0.0,0.0,0.0,0.0,0.0,0.0,0.0,0.0,0.0,0.0,0.0,0.0,0.0,0.0,0.0,0.0,0.0,0.0,0.0,0.0,0.0,0.0,0.0,0.0,0.0,0.0,0.0,0.0,0.0,0.0,0.0,0.0,0.0,0.0,0.0,0.0,0.0,0.0,0.0,0.0,0.0,0.0,0.0,0.0,0.0,0.0,0.0,0.0,0.0,0.0,0.0,0.0,0.0,0.0,0.0,0.0,0.0,0.0,0.0,0.0,0.0,0.0,0.0,0.0,0.0,0.0,0.0,0.0,0.0,0.0,0.0,0.0,0.0,0.0,0.0,0.0,0.0,0.0,0.0,0.0,0.0,0.0,0.0,0.0,0.0,0.0,0.0,0.0,0.0,0.0,0.0,0.0,0.0,0.0,0.0,0.0,0.0,0.0,0.0,0.0,0.0,0.0,0.0,0.0,0.0,0.0,0.0,0.0,0.0,0.0,0.0,0.0,0.0,0.0,0.0,0.0,0.0,0.0,0.0,0.0,0.0,0.0,0.0,0.0,0.0,0.0,0.0,0.0,0.0,0.0,0.0,0.0,0.0,0.0,0.0,0.0,0.0,0.0,0.0,0.0,0.0,0.0,0.0,0.0,0.0,0.0,0.0,0.0,0.0,0.0,0.0,0.0,0.0,0.0,0.0,0.0,0.0,0.0,0.0,0.0,0.0,0.0,0.0,0.0,0.0,0.0,0.0,0.0,0.0,0.0,0.0,0.0,0.0,0.0,0.0,0.0,0.0,0.0,0.0,0.0,0.0,0.0,0.0,0.0,0.0,0.0,0.0,0.0,0.0,0.0,0.0,0.0,0.0,0.0,0.0,0.0,0.0,0.0,0.0,0.0,0.0,0.0,0.0,0.0,0.0,0.0,0.0,0.0,0.0,0.0,0.0,0.0,0.0,0.0,0.0,0.0,0.0,0.0,0.0,0.0,0.0,0.0,0.0,0.0,0.0,0.0,0.0,0.0,0.0,0.0,0.0,0.0,0.0,0.0,0.0,0.0,0.0,0.0,0.0,0.0,0.0,0.0,0.0,0.0,0.0,0.0,0.0,0.0,0.0,0.0,0.0,0.0,0.0,0.0,0.0,0.0,0.0,0.0,0.0,0.0,0.0,0.0,0.0,0.0,0.0,0.0,0.0,0.0,0.0,0.0,0.0,0.0,0.0,0.0,0.0,0.0,0.0,0.0,0.0,0.0,0.0,0.0,0.0,0.0,0.0,0.0,0.0,0.0,0.0,0.0,0.0,0.0,0.0,0.0,0.0,0.0,0.0,0.0,0.0,0.0,0.0,0.0,0.0,0.0,0.0,0.0,0.0,0.0,0.0,0.0,0.0,0.0,0.0,0.0,0.0,0.0,0.0,0.0,0.0,0.0,0.0,0.0,0.0,0.0,0.0,0.0,0.0,0.0,0.0,0.0,0.0,0.0,0.0,0.0,0.0,0.0,0.0,0.0,0.0,0.0,0.0,0.0,0.0,0.0,0.0,0.0,0.0,0.0,0.0,0.0,0.0,0.0,0.0,0.0,0.0,0.0,0.0,0.0,0.0,0.0,0.0,0.0,0.0,0.0,0.0,0.0,0.0,0.0,0.0,0.0,0.0,0.0,0.0,0.0,0.0,0.0,0.0,0.0,0.0,0.0,0.0,0.0,0.0,0.0,0.0,0.0,0.0,0.0,0.0,-2.7389,0.0,0.0,0.0,0.0,0.0,0.0,0.0,0.0,0.0,0.0,0.0,0.0,0.0,0.0,0.0,0.0,0.0,0.0,0.0,0.0,0.0,0.0,0.0,0.0,0.0,0.0,0.0,0.0,0.0,0.0,0.0,0.0,0.0,0.0,0.0,0.0,0.0,0.0,1.4243,1.4865,1.5577,1.6316,1.4098,1.1008,0.7276,0.0,0.0,0.0,0.0,0.0,0.0,0.0,0.0,0.0,0.0,0.0,0.0,0.0,0.0,0.0,0.0,0.0,0.0,0.0,0.0,0.0,0.0,0.0,0.0,0.0,0.0,0.0,0.0,0.0,0.0,0.0,0.0,0.0,0.0,0.0,0.0,0.0,0.0,0.0,0.0,0.0,0.0,0.0,0.0,0.0,0.0,0.0,0.0,0.0,0.0,0.0,0.0,0.0,0.0,0.0,0.0,0.0,0.0,0.0,0.0,0.0,0.0,0.0,0.0,0.0,0.0,0.0,0.0,0.0,0.0,0.0,-2.8938,0.0,0.0,0.0,0.0,0.0,0.0,0.0,0.0,0.0,0.0,0.0,0.0,0.0,0.0,0.0,0.0,0.0,0.0,0.0,0.0,0.0,0.0,0.0,1.9305,1.929,1.8478,1.9098,1.8967,0.0,0.0,0.0,0.0,0.0,0.0,1.5272,1.5898,1.5966,1.5495,1.7103,1.8464,1.9621,1.9264,1.6756,1.2626,1.3857,0.0,0.0,0.0,0.0,0.0,0.0,0.0,0.0,0.0,0.0,0.0,0.0,0.0,0.0,0.0,0.0,0.0,0.0,0.0,0.0,0.0,0.0,0.0,0.0,0.0,0.0,0.0,0.0,0.0,0.0,0.0,0.0,0.0,0.0,0.0,0.0,0.0,0.0,0.0,0.0,0.0,0.0,0.0,0.0,0.0,0.0,0.0,0.0,0.0,0.0,0.0,0.0,0.0,0.0,0.0,0.0,0.0,0.0,0.0,0.0,0.0,0.0,0.0,-3.2685,-3.3847,-3.4861,-3.4576,-3.4888,-3.5506,-3.3965,-3.2527,-3.122,0.0,0.0,0.0,0.0,0.0,0.0,0.0,0.0,0.0,0.0,0.0,0.0,0.0,0.0,0.0,0.0,0.0,0.0,0.0,0.0,0.0,0.0,1.8503,1.8936,1.8917,1.8792,1.8527,1.8049,0.0,0.0,0.0,0.0,0.0,1.6545,1.6374,1.6706,1.7527,1.9807,2.1754,2.3327,2.3932,2.3428,2.1869,1.8675,1.6923,1.6332,0.0,0.0,0.0,0.0,0.0,0.0,0.0,0.0,0.0,0.0,0.0,0.0,0.0,0.0,0.0,0.0,0.0,0.0,0.0,0.0,0.0,0.0,0.0,0.0,0.0,0.0,0.0,0.0,0.0,0.0,0.0,0.0,0.0,0.0,0.0,0.0,0.0,0.0,0.0,0.0,0.0,-2.3653,-2.4516,0.0,0.0,0.0,0.0,0.0,0.0,0.0,0.0,0.0,0.0,0.0,0.0,0.0,0.0,-3.1075,-3.4028,-3.5386,-3.5217,-3.6039,-3.6825,-3.7574,-3.7556,-3.8166,-3.9195,-3.8943,0.0,-3.3486,-3.1411,0.0,0.0,0.0,0.0,0.0,0.0,0.0,0.0,0.0,0.0,0.0,0.0,0.0,0.0,0.0,0.0,0.0,0.0,0.0,0.0,0.0,1.8375,1.8836,1.8993,1.9947,1.9794,1.805,1.8592,0.0,0.0,0.0,1.6757,1.7007,1.6691,1.7332,1.8979,2.1769,2.3661,2.4701,2.5706,2.6098,2.5912,2.4114,2.1644,1.8765,1.7946,0.0,0.0,0.0,0.0,0.0,0.0,0.0,0.0,0.0,0.0,0.0,0.0,0.0,0.0,0.0,0.0,0.0,0.0,0.0,0.0,0.0,0.0,0.0,0.0,0.0,0.0,0.0,0.0,0.0,0.0,0.0,0.0,0.0,0.0,0.0,0.0,0.0,0.0,0.0,-2.3898,-2.4465,-2.5077,-2.5227,-2.5187,0.0,0.0,0.0,0.0,0.0,0.0,0.0,0.0,0.0,-3.0137,-3.126,-3.2447,-3.3727,-3.5538,-3.6774,-3.7463,-3.8107,-3.9133,-4.04,-4.0294,-4.063,-4.1252,-4.1252,-4.0021,-3.7807,-3.5049,-3.3596,-3.2959,0.0,0.0,0.0,0.0,0.0,-3.2175,0.0,0.0,0.0,0.0,0.0,0.0,0.0,0.0,0.0,0.0,0.0,0.0,1.7498,1.8553,1.9223,1.9317,2.0685,2.0496,1.8104,1.8789,1.8494,1.6728,1.674,1.6865,1.7068,1.7367,1.8501,2.0543,2.3041,2.4755,2.5708,2.6576,2.7468,2.8332,2.7835,2.5277,2.1267,2.0535,1.9193,1.7396,0.0,0.0,0.0,0.0,0.0,0.0,0.0,0.0,0.0,0.0,0.0,0.0,0.0,0.0,0.0,0.0,0.0,0.0,0.0,0.0,0.0,0.0,0.0,0.0,0.0,0.0,0.0,0.0,0.0,0.0,0.0,0.0,0.0,0.0,0.0,0.0,0.0,-2.5222,-2.5703,-2.5991,-2.6975,-2.728,0.0,0.0,0.0,0.0,0.0,0.0,-2.9766,-3.0522,-3.1779,-3.3707,-3.4212,-3.5006,-3.6161,-3.7104,-3.8222,-3.946,-3.9899,-4.086,-4.232,-4.2175,-4.2292,-4.2512,-4.2512,-4.2189,-4.1399,-3.8348,-3.663,-3.5787,-3.4289,-3.3833,-3.3984,-3.3803,-3.396,-3.4395,0.0,0.0,0.0,0.0,0.0,0.0,0.0,0.0,0.0,0.0,0.0,1.7061,1.7306,1.9111,2.0258,2.0166,2.0235,1.9731,1.8377,1.7743,1.7148,1.6553,1.6639,1.6701,1.6722,1.8709,2.0657,2.2547,2.3415,2.4922,2.7006,2.7131,2.8222,3.0004,2.8418,2.7044,2.5958,2.5976,2.3985,2.0865,2.0967,0.0,0.0,0.0,0.0,0.0,0.0,0.0,0.0,0.0,0.0,0.0,0.0,0.0,0.0,0.0,0.0,0.0,0.0,0.0,0.0,0.0,0.0,0.0,0.0,0.0,0.0,0.0,0.0,0.0,0.0,0.0,0.0,0.0,0.0,0.0,0.0,0.0,0.0,-2.8201,-2.95,0.0,0.0,0.0,0.0,-3.006,-3.1831,-3.3275,-3.4127,-3.4705,-3.5443,-3.6393,-3.7647,-3.8394,-3.8548,-4.0075,-4.1061,-4.145,-4.1615,-4.2031,-4.2673,-4.2752,-4.2921,-4.316,-4.316,-4.3142,-4.2869,-4.0184,-3.8596,-3.7745,-3.645,-3.5948,-3.5948,-3.5948,-3.6394,-3.7071,0.0,0.0,0.0,0.0,0.0,0.0,0.0,0.0,1.4897,1.4251,1.5271,1.6417,1.7398,1.8877,1.9931,2.0258,2.0925,2.0487,1.8439,1.8365,1.7888,1.6821,1.6747,1.7101,1.7853,1.9549,2.0947,2.206,2.3865,2.5539,2.7056,2.7773,2.8799,3.0037,2.9398,2.8613,2.7671,2.6056,2.469,2.3457,2.1754,1.9786,0.0,0.0,0.0,0.0,0.0,0.0,0.0,0.0,0.0,0.0,0.0,0.0,0.0,0.0,0.0,0.0,0.0,0.0,0.0,0.0,0.0,0.0,0.0,0.0,0.0,0.0,0.0,0.0,0.0,0.0,0.0,0.0,0.0,0.0,0.0,0.0,0.0,-3.17,-3.2839,0.0,-3.3178,-3.3459,-3.3701,-3.3833,-3.5477,-3.6813,-3.7539,-3.8371,-3.9451,-4.0726,-4.0558,-4.0707,-4.1274,-4.1153,-4.1174,-4.1296,-4.1754,-4.212,-4.2341,-4.2814,-4.2814,-4.2377,-4.2977,-4.2886,-4.234,-4.2116,-4.146,-4.0484,-3.9491,-3.9232,-3.9375,-3.92,-3.9415,-3.9798,0.0,0.0,0.0,0.0,0.0,0.0,0.0,0.0,1.4445,1.4243,1.508,1.625,1.7647,1.9141,2.0227,2.0737,2.1174,2.0639,1.8743,1.8479,1.7969,1.7016,1.7261,1.8035,1.9343,2.0683,2.1766,2.261,2.428,2.557,2.6521,2.7488,2.8468,2.939,2.9339,2.9307,2.9158,2.6836,2.5811,2.5592,2.3595,2.2192,2.0803,0.0,0.0,0.0,0.0,0.0,0.0,0.0,0.0,0.0,0.0,0.0,0.0,0.0,0.0,0.0,0.0,0.0,0.0,0.0,0.0,0.0,0.0,0.0,0.0,0.0,0.0,0.0,0.0,0.0,0.0,0.0,0.0,0.0,0.0,0.0,-3.2591,-3.4142,-3.5835,-3.6753,-3.6531,-3.7075,-3.7487,-3.7596,-3.8946,-4.0121,-4.0849,-4.1429,-4.2215,-4.3258,-4.2482,-4.2192,-4.2454,-4.1644,-4.1364,-4.1622,-4.1769,-4.1925,-4.22,-4.2493,-4.231,-4.1797,-4.2399,-4.2356,-4.1991,-4.3032,-4.2946,-4.2075,-4.194,-4.1977,-4.2123,-4.1944,-4.1889,-4.1857,0.0,0.0,0.0,0.0,0.0,0.0,0.0,1.3607,1.3841,1.4,1.5235,1.6631,1.8042,1.9897,2.1209,2.1631,2.0831,1.9981,1.9264,1.7929,1.719,1.714,1.807,1.9395,2.1109,2.2158,2.3258,2.4437,2.4617,2.4994,2.5578,2.6334,2.7248,2.8222,2.8219,2.9138,3.0525,2.8724,2.773,2.7354,2.681,2.5727,2.4154,0.0,0.0,0.0,0.0,0.0,0.0,0.0,0.0,0.0,0.0,0.0,0.0,0.0,0.0,0.0,0.0,0.0,0.0,0.0,0.0,0.0,0.0,0.0,0.0,0.0,0.0,0.0,0.0,0.0,0.0,0.0,0.0,0.0,-3.0332,-3.3179,-3.5369,-3.5591,-3.8428,-3.9823,-3.844,-3.9932,-4.1062,-4.1181,-4.2172,-4.3155,-4.3996,-4.3802,-4.3649,-4.3653,-4.3384,-4.2897,-4.2107,-4.1754,-4.1954,-4.2698,-4.1748,-4.1696,-4.2396,-4.1847,-4.1556,-4.1519,-4.159,-4.1736,-4.1942,-4.2795,-4.2793,-4.2394,-4.3538,-4.398,-4.398,-4.398,-4.3687,-4.316,0.0,0.0,0.0,0.0,0.0,0.0,1.3074,1.3399,1.3795,1.4157,1.5612,1.6987,1.7964,1.9891,2.1203,2.1368,2.0606,1.983,1.9248,1.7886,1.7436,1.8078,1.8469,1.968,2.186,2.2451,2.3511,2.5033,2.4915,2.5703,2.7301,2.673,2.7282,2.8704,2.8618,2.9007,2.9726,2.9412,2.941,2.9563,2.8931,2.8089,2.6822,0.0,0.0,0.0,0.0,0.0,0.0,0.0,0.0,0.0,0.0,0.0,0.0,0.0,0.0,0.0,0.0,0.0,0.0,0.0,0.0,0.0,0.0,0.0,0.0,0.0,0.0,0.0,0.0,0.0,0.0,0.0,-3.0613,-3.2437,-3.2896,-3.5358,-3.7921,-4.0201,-4.1272,-4.2009,-4.2467,-4.3025,-4.3311,-4.3209,-4.4071,-4.4704,-4.4934,-4.487,-4.4829,-4.4829,-4.4545,-4.4247,-4.4039,-4.3762,-4.3409,-4.3053,-4.3483,-4.3465,-4.3117,-4.3006,-4.2643,-4.2096,-4.2096,-4.1806,-4.1331,-4.1534,-4.186,-4.2385,-4.3297,-4.3641,-4.3641,-4.3627,-4.3917,-4.4244,0.0,0.0,0.0,0.0,0.0,0.0,1.3252,1.3484,1.3762,1.3993,1.5531,1.6973,1.7878,1.9325,2.0411,2.0793,1.9736,1.8943,1.875,1.8114,1.8004,1.8518,1.9328,2.0702,2.2625,2.3399,2.4487,2.584,2.5691,2.623,2.7403,2.6913,2.7198,2.8148,2.8366,2.8783,2.9375,2.9863,3.043,3.0962,3.1029,3.049,2.9351,2.6745,2.524,2.4035,2.0215,1.8035,1.6453,1.3357,0.0,0.0,0.0,0.0,0.0,0.0,0.0,0.0,0.0,0.0,0.0,0.0,0.0,0.0,0.0,0.0,0.0,0.0,0.0,0.0,0.0,0.0,0.0,0.0,-3.3165,-3.5467,-3.6619,-3.8372,-4.0396,-4.2667,-4.327,-4.3798,-4.4517,-4.4633,-4.4633,-4.4551,-4.501,-4.5297,-4.5297,-4.5297,-4.5297,-4.5297,-4.5109,-4.5023,-4.5023,-4.472,-4.4327,-4.3875,-4.3597,-4.3239,-4.28,-4.2176,-4.1614,0.0,-4.1226,-4.084,-4.0167,-4.0554,-4.0634,0.0,0.0,0.0,0.0,0.0,-4.3417,-4.3837,0.0,0.0,0.0,0.0,0.0,0.0,1.3704,1.3712,1.3741,1.3648,1.5223,1.6691,1.7612,1.8371,1.9113,1.9943,1.8577,1.7805,1.8103,1.8442,1.8701,1.8885,2.0407,2.1936,2.33,2.4459,2.5555,2.6621,2.6559,2.6619,2.6783,2.6988,2.7128,2.7235,2.7861,2.8589,2.939,3.0172,3.0924,3.1639,3.2595,3.2422,3.1539,3.0529,2.9616,2.8463,2.5725,2.3412,2.1148,1.7704,0.0,0.0,0.0,0.0,0.0,0.0,0.0,0.0,0.0,0.0,0.0,0.0,0.0,0.0,0.0,0.0,0.0,0.0,0.0,0.0,0.0,0.0,0.0,0.0,-3.5847,-3.8699,-4.0632,-4.1702,-4.2674,-4.372,-4.4535,-4.5042,-4.5129,-4.5173,-4.5235,-4.5297,-4.5298,-4.5319,-4.5319,0.0,0.0,0.0,0.0,-4.5319,-4.5319,-4.5004,-4.483,-4.4673,-4.2982,-4.2128,-4.2046,-4.0542,-3.9872,-3.9917,-3.9911,-3.9505,-3.8917,-3.9723,-3.922,-3.8157,-4.0119,-4.1396,-4.2164,-4.2522,-4.2616,0.0,0.0,0.0,0.0,0.0,0.0,0.0,1.3604,1.3559,1.3581,1.3868,1.5123,1.6155,1.6561,1.7597,1.8406,1.8796,1.8,1.7666,1.8146,1.8251,1.8996,2.0538,2.0938,2.1919,2.3602,2.3858,2.4893,2.6774,2.6258,2.6688,2.7951,2.7253,2.7273,2.786,2.824,2.883,2.9567,3.028,3.0854,3.1305,3.156,3.1974,3.239,3.1541,3.0756,2.9952,2.8571,2.7112,2.5411,2.2622,2.0918,1.9012,1.3576,0.9491,0.0,0.0,0.0,0.0,0.0,0.0,0.0,0.0,0.0,0.0,0.0,0.0,0.0,0.0,0.0,0.0,0.0,0.0,0.0,-3.4289,-3.7026,-3.9723,-4.2388,-4.3473,-4.4188,-4.468,-4.4987,-4.5185,-4.5265,-4.5304,-4.5323,-4.5235,-4.5362,-4.5455,-4.5455,-4.5555,0.0,-4.5615,-4.5524,-4.5455,-4.5455,-4.5281,-4.4851,-4.4143,0.0,0.0,-4.262,-4.1705,-4.1303,-4.1284,-4.0713,-3.9969,-3.9187,-3.8762,-3.8028,-3.7378,-3.9837,-4.0893,-4.1161,-4.2447,-4.2902,-4.2926,0.0,0.0,0.0,0.0,0.0,0.0,1.3332,1.3398,1.3459,1.3682,1.4941,1.5923,1.607,1.6949,1.7578,1.7775,1.7301,1.7231,1.7745,1.8551,1.9561,2.0794,2.1461,2.2381,2.363,2.3665,2.4596,2.6535,2.6267,2.6872,2.8298,2.7656,2.7571,2.7904,2.8227,2.8541,2.8972,2.9987,3.0324,3.0173,3.0716,3.1166,3.1568,3.1701,3.1312,3.0604,2.9938,2.9054,2.7823,2.5347,2.428,2.3059,1.7691,1.3294,0.8615,0.0,0.0,0.0,0.0,0.0,0.0,0.0,0.0,0.0,0.0,0.0,0.0,0.0,0.0,-2.6807,-2.9142,0.0,-3.3295,-3.6462,-3.8799,-4.0852,-4.2781,-4.3877,-4.4613,-4.4915,-4.503,-4.4965,-4.4586,-4.5015,-4.515,-4.4687,-4.5208,-4.5545,-4.5596,-4.5658,-4.5505,-4.5104,-4.5032,-4.4793,-4.4353,-4.4292,-4.403,-4.3588,-4.3181,-4.2791,-4.2364,-4.157,-4.12,-4.1176,-4.0803,-3.9934,-3.867,-3.7482,-3.7284,-3.7825,-3.9151,-3.9801,-4.0138,-4.0913,-4.12,-4.1253,0.0,0.0,0.0,0.0,0.0,0.0,0.0,1.3309,1.3471,1.3472,1.466,1.5572,1.5691,1.6257,1.6668,1.6876,1.6639,1.6788,1.7433,1.8876,1.9969,2.0659,2.1815,2.275,2.3329,2.3482,2.4385,2.6109,2.6289,2.6975,2.8066,2.7811,2.7666,2.7654,2.7973,2.822,2.8442,2.9704,2.9799,2.9217,2.9983,3.0155,3.0044,3.0853,3.096,3.0632,3.0213,2.9667,2.8846,2.6961,2.6339,2.562,2.1425,1.6752,1.1362,0.3826,-0.2616,0.0,0.0,0.0,0.0,0.0,0.0,0.0,0.0,-2.1916,-2.2687,-2.5263,-2.6179,-2.7563,-3.1092,-3.2745,-3.4666,-3.7966,-3.9847,-4.1329,-4.2426,-4.3399,-4.4062,-4.4329,-4.4597,-4.4417,-4.3601,-4.4298,-4.4613,-4.4116,-4.4897,-4.5401,-4.5445,-4.5645,-4.538,-4.4576,-4.4531,-4.4189,-4.3505,-4.3305,-4.3117,-4.2943,-4.2073,-4.1583,-4.1473,-4.0764,-4.0455,-4.0459,-4.0463,-3.973,-3.8394,-3.6927,-3.7183,-3.8497,-3.8497,-3.8809,-3.9262,-3.9572,-3.9696,-3.977,0.0,0.0,0.0,0.0,0.0,0.0,0.0,0.0,1.3699,1.3739,1.4159,1.4607,1.4958,1.5341,1.5713,1.6089,1.6126,1.6651,1.7764,1.8734,1.9761,2.0905,2.1782,2.2304,2.2457,2.31,2.403,2.5324,2.5993,2.6666,2.7317,2.7286,2.7161,2.7019,2.7538,2.818,2.8948,2.9648,2.9722,2.9393,2.9481,2.9092,2.8436,2.8179,2.8857,2.9839,2.914,2.857,2.8121,2.7929,2.7889,2.7651,2.5977,2.2722,1.7741,0.8667,0.2136,-0.3942,-1.2197,-1.6193,-1.8315,-1.9388,-1.9878,-2.0828,0.0,-2.388,-2.4397,-2.7044,-2.8357,-2.9487,-3.1161,-3.2948,-3.4907,-3.7028,-3.8382,-3.9793,-4.1566,-4.1978,-4.2181,-4.2467,-4.3288,-4.3493,-4.264,-4.2824,-4.3252,-4.396,-4.4386,-4.4631,-4.4626,-4.5479,-4.5608,-4.4783,-4.4652,-4.456,-4.4538,-4.3647,-4.2808,-4.2035,-4.1152,-4.0391,-3.9688,-3.9591,-3.9553,-3.9553,-3.9664,-3.968,-3.9552,-3.8585,-3.8324,-3.85,-3.85,-3.8533,-3.8779,-4.0207,-4.0733,-4.0723,0.0,0.0,0.0,0.0,0.0,0.0,0.0,0.0,0.0,1.3339,1.4036,1.4553,1.4822,1.5359,1.577,1.5942,1.6011,1.6412,1.7332,1.7903,1.8885,2.0352,2.0928,2.1494,2.2101,2.2449,2.3245,2.4624,2.5111,2.5928,2.7034,2.7034,2.697,2.6939,2.733,2.7743,2.8115,2.8758,2.8727,2.8146,2.782,2.7317,2.6719,2.5966,2.5954,2.6392,2.6545,2.6486,0.0,2.5944,2.5892,2.5878,2.5222,2.2212,1.7275,0.8901,0.2625,-0.3516,-1.2261,-1.6716,-1.8942,-1.9092,-2.0314,-2.196,-2.3928,-2.4302,-2.5026,-2.7734,-2.8473,-2.9333,-3.1595,-3.3226,-3.4884,-3.6875,-3.8475,-3.9792,-4.0762,-4.098,-4.0745,-3.9927,-4.0405,-4.1057,-4.1749,-4.2489,-4.2865,-4.2729,-4.3385,-4.4034,-4.4596,-4.5025,-4.4635,-4.3335,-4.3228,-4.249,-4.1049,-4.0616,-4.0228,-3.9926,-3.9557,-3.9188,-3.8885,-3.8885,-3.8885,-3.8846,-3.84,-3.8526,-3.8946,-3.7561,-3.757,-3.8443,-3.7936,-3.8053,-3.8573,-3.9267,-3.9174,-3.8739,0.0,0.0,0.0,0.0,0.0,0.0,0.0,0.0,0.0,0.0,1.4042,1.4717,1.4975,1.5536,1.5871,1.5871,1.5926,1.6209,1.6739,1.7228,1.8076,1.9431,2.0111,2.0846,2.1652,2.207,2.2805,2.3909,2.4388,2.521,2.6435,2.6435,2.6521,2.6725,2.6987,2.7211,2.7408,2.7956,2.7719,2.6969,2.6582,2.5948,2.5116,2.4208,2.3736,2.3656,2.4403,2.4588,2.4436,2.3999,2.391,2.3964,2.3867,2.1483,1.7039,0.8372,0.053,-0.6779,-1.3331,-1.6935,-1.8808,-1.8762,-2.044,-2.2403,-2.3846,-2.4333,-2.5084,-2.7408,-2.7752,-2.8322,-3.0589,-3.2157,-3.3696,-3.5508,-3.7491,-3.8934,-3.918,-3.9305,-3.8904,-3.7573,-3.7498,-3.819,-3.9774,-4.1008,-4.1517,-4.1081,-4.2005,-4.2905,-4.3594,-4.3826,-4.3404,-4.2208,-4.1937,-4.0936,-3.9112,-3.884,-3.8641,-3.8475,-3.8241,-3.8105,-3.8105,-3.8111,-3.826,-3.8461,-3.7829,-3.7912,-3.8401,-3.7139,-3.7365,-3.845,-3.7805,-3.7805,-3.8133,-3.814,-3.7888,-3.7557,0.0,0.0,0.0,0.0,0.0,0.0,0.0,0.0,0.0,0.0,0.0,0.0,0.0,1.5724,1.5799,1.5799,1.5856,1.5998,1.6207,1.7049,1.7694,1.8125,1.9605,2.0529,2.0822,2.2249,2.3076,2.3251,2.3969,2.4627,2.5246,2.5246,2.5578,2.6203,2.6293,2.6692,2.7317,2.7517,2.7081,2.6236,2.6432,2.5389,2.3702,2.3006,2.2758,2.2811,2.3341,2.3221,2.2794,2.2894,2.2941,2.2968,2.3099,2.2322,1.9173,0.794,-0.4349,-1.4513,-1.543,-1.66,-1.7843,-1.8895,-2.0157,-2.165,-2.3473,-2.4059,-2.4561,-2.5828,-2.6329,-2.6742,-2.733,-2.9022,-3.0747,-3.2036,-3.4488,-3.6263,-3.6395,-3.6546,-3.6377,-3.5746,-3.5102,-3.5126,0.0,-3.7412,-3.8445,-3.9125,-4.024,-4.0887,-4.0919,-4.1661,-4.2085,-4.2097,-4.1283,-4.0839,-4.082,-3.9984,-3.9168,-3.838,-3.7556,-3.7139,-3.7148,-3.7129,-3.7631,-3.85,-3.8463,-3.8479,-3.8498,-3.8441,-3.8448,-3.8506,-3.8467,-3.7961,-3.7239,-3.7239,-3.7764,-3.8467,0.0,0.0,0.0,0.0,0.0,0.0,0.0,0.0,0.0,0.0,0.0,0.0,0.0,0.0,0.0,0.0,1.5827,1.5856,1.5926,1.6209,1.673,1.755,1.8247,1.8965,1.9722,2.0891,2.1724,2.2269,2.3,2.3732,2.4381,2.4365,2.448,2.4677,2.4879,2.5275,2.5785,2.5488,2.5724,2.6038,2.4132,2.3354,2.3156,2.1764,2.103,2.0779,0.0,2.1442,2.1429,2.1778,2.1852,2.1907,2.2717,2.1533,1.7435,0.5144,-0.472,-1.2395,-1.5724,-1.7977,-1.9502,-1.9807,-2.115,-2.2729,-2.3896,-2.4167,-2.4511,-2.5589,-2.4806,-2.4412,-2.6138,-2.7635,-2.9166,-3.0837,-3.3364,-3.5162,-3.5297,-3.5881,-3.5671,-3.3876,-3.4619,-3.4745,0.0,0.0,0.0,-3.8169,-3.8623,-3.9166,-3.9844,-4.0159,-4.0087,-3.953,-3.9782,-3.9138,-3.7463,-3.7735,-3.7472,-3.6673,-3.6382,-3.6246,-3.6226,-3.564,-3.5869,-3.6642,-3.5524,-3.5717,-3.6693,-3.5563,-3.5468,-3.5914,-3.5347,-3.5289,-3.5465,-3.4898,-3.5601,-3.6833,0.0,0.0,0.0,0.0,0.0,0.0,0.0,0.0,0.0,0.0,0.0,0.0,0.0,0.0,0.0,0.0,0.0,1.5799,1.5799,1.577,1.6079,1.6864,1.7283,1.7813,1.8389,1.9312,1.9943,2.0257,2.0941,2.1741,2.2636,2.2947,2.3309,2.3701,2.3848,2.4145,2.4525,2.4129,2.4132,2.4296,2.2529,2.1645,2.1283,2.0338,1.9638,0.0,1.9703,1.9955,2.0174,2.066,2.0766,2.0823,2.1571,1.8541,1.298,0.4023,-0.4389,-1.1693,-1.5934,-1.8645,-2.0355,-2.0879,-2.1769,-2.2737,-2.3555,-2.3553,-2.3575,-2.4264,-2.3208,-2.2663,-2.4305,-2.5553,-2.6905,-2.8536,-3.102,-3.2911,-3.3375,-3.399,-3.3954,-3.2812,-3.3784,-3.4017,-3.2785,-3.4376,0.0,-3.6785,-3.7747,-3.8354,-3.8453,-3.882,-3.8922,-3.8639,-3.8586,-3.8086,-3.7073,-3.6996,-3.6561,-3.5766,-3.5766,-3.5756,-3.5735,-3.4881,-3.4811,-3.5263,-3.3891,-3.3934,-3.4895,-3.3828,-3.3721,-3.4178,-3.3612,-3.3749,-3.4178,-3.3612,-3.412,-3.5118,0.0,0.0,0.0,0.0,0.0,0.0,0.0,0.0,0.0,0.0,0.0,0.0,0.0,0.0,0.0,0.0,0.0,0.0,1.5799,1.5668,1.5769,1.6176,1.6793,1.708,1.7009,1.7714,1.7892,1.7515,1.8153,1.9023,2.0162,2.1057,2.2085,2.3165,2.3079,2.3266,2.3653,2.3268,2.2424,2.134,2.1592,2.0378,1.8414,1.8798,1.8675,1.8351,1.8604,1.8843,1.9101,1.9657,1.9858,1.9873,1.9793,1.4146,0.7024,0.4533,-0.3538,-1.2476,-1.6096,-1.8532,-2.0466,-2.213,-2.1993,-2.1656,-2.2551,-2.2294,-2.1881,-2.1972,-2.1585,-2.1425,-2.1893,-2.2931,-2.4126,-2.5368,-2.7762,-2.9835,-3.0885,-3.1183,-3.1599,-3.247,-3.2661,-3.3025,-3.3854,-3.4028,0.0,-3.4999,0.0,-3.8201,-3.6852,-3.7604,-3.8421,-3.9174,-3.7692,-3.7677,-3.9282,-3.7657,-3.6458,-3.5684,-3.5704,-3.5697,-3.566,-3.4855,-3.4495,-3.4439,-3.3604,-3.3262,-3.3294,-3.3279,-3.3283,-3.3324,-3.3283,-3.3302,-3.3322,-3.33,-3.3339,-3.3515,0.0,0.0,0.0,0.0,0.0,0.0,0.0,0.0,0.0,0.0,0.0,0.0,0.0,0.0,0.0,0.0,0.0,0.0,1.561,1.558,1.5711,1.6052,1.6161,1.6468,1.6926,1.7583,1.7815,1.7515,1.8588,1.9202,1.9302,1.9715,2.0453,2.1502,2.0926,2.1087,2.1746,2.1055,2.099,2.1256,1.9899,1.9389,1.9334,1.8481,1.8276,1.8432,1.8735,1.9016,1.935,2.0136,2.0741,2.0939,1.9792,1.6567,1.1819,0.465,-0.2017,-0.8749,-1.6419,-1.9585,-2.1106,-2.2574,-2.2367,-2.1815,-2.1883,-2.1575,-2.1033,-2.0429,-1.9781,-1.9544,-2.024,-2.1732,-2.3347,-2.4972,-2.7982,-3.0475,-3.1392,-3.278,-3.3372,-3.2475,-3.3487,-3.3899,-3.3044,-3.4099,0.0,0.0,-3.5343,-3.606,-3.6489,-3.6356,-3.6356,-3.6549,-3.6735,-3.6748,-3.6598,-3.6195,-3.5886,-3.5631,-3.5673,-3.5695,-3.5667,-3.4816,-3.4419,-3.4342,-3.2881,-3.2641,-3.3195,-3.1962,-3.1854,-3.2361,-3.177,-3.1909,-3.2363,-3.1768,-3.2324,-3.3341,0.0,0.0,0.0,0.0,0.0,0.0,0.0,0.0,0.0,0.0,0.0,0.0,0.0,0.0,0.0,0.0,0.0,0.0,0.0,1.5669,1.5787,1.6393,1.6091,1.6188,1.6825,1.7225,1.7106,1.6446,1.7896,1.8547,1.8483,1.9148,1.9999,2.0862,2.0146,2.0145,2.0684,1.9855,1.9642,0.0,0.0,1.8668,1.8734,1.8161,1.8163,1.8469,1.866,1.9345,2.0259,2.0814,2.1167,2.1223,2.0402,1.8111,1.4146,0.6066,-0.0473,-0.7016,-1.6054,-1.9832,-2.1619,-2.3288,-2.2942,-2.1984,-2.1362,-2.0839,-2.0224,-1.9421,-1.8783,-1.8631,-1.94,-2.0787,-2.2324,-2.3736,-2.6615,-2.9136,-3.0481,-3.1966,-3.2911,-3.2788,-3.3957,-3.4426,-3.3643,-3.4449,-3.5064,0.0,-3.5487,-3.572,-3.5825,-3.591,-3.6021,-3.6119,-3.6228,-3.6067,-3.5608,-3.5987,-3.5987,-3.5608,-3.5631,-3.5662,-3.5635,-3.4775,-3.4195,-3.375,0.0,-3.1988,-3.2084,-3.1187,-3.1083,-3.149,-3.1064,-3.1155,-3.148,-3.1051,-3.1493,-3.2235,0.0,0.0,0.0,0.0,0.0,0.0,0.0,0.0,0.0,0.0,0.0,0.0,0.0,0.0,0.0,0.0,0.0,0.0,0.0,0.0,1.6159,1.7014,1.6452,1.6385,1.7011,1.6863,1.6322,1.5419,1.6815,1.7563,1.7654,1.8801,1.9814,2.0543,1.978,1.9631,1.9935,1.9061,1.8423,1.7969,1.8451,1.8325,1.7843,0.0,1.8443,1.8682,1.8704,1.9676,2.0999,2.1495,2.1594,2.1497,2.1288,1.9072,1.5125,0.7961,0.1267,-0.5885,-1.5122,-1.9224,-2.1511,-2.3981,-2.349,-2.2061,-2.0886,-2.0131,-1.9417,-1.8582,-1.8243,-1.8227,-1.8799,-1.9981,-2.1198,-2.2317,-2.4739,-2.711,-2.9,-3.0223,-3.1474,-3.3038,-3.3948,-3.4479,-3.4597,-3.4637,-3.5005,-3.5889,-3.62,-3.6025,-3.5209,-3.5846,-3.6358,-3.662,-3.5733,-3.5321,-3.5405,-3.6112,-3.6112,-3.5418,-3.5434,-3.5427,-3.5388,-3.4707,-3.3847,-3.2889,0.0,0.0,-3.0683,-3.0746,-3.0777,-3.0778,-3.0843,-3.0834,-3.0788,-3.0859,-3.0896,-3.0896,0.0,0.0,0.0,0.0,0.0,0.0,0.0,0.0,0.0,0.0,1.2659,1.3509,0.0,0.0,0.0,0.0,0.0,0.0,0.0,0.0,0.0,1.7339,1.7257,1.75,1.81,1.7207,1.6804,1.6992,1.7133,1.7065,1.6812,1.7321,1.8079,1.8963,1.7994,1.7835,1.8278,1.7487,1.7535,1.8087,1.828,1.8801,1.9513,1.9743,0.0,0.0,1.9866,1.956,1.9335,2.1688,2.3048,2.348,2.1938,1.9718,1.6305,0.8997,0.3574,-0.2438,-1.3299,-1.7012,-1.897,-2.3915,-2.3439,-2.1513,-2.0527,-1.951,-1.846,-1.7212,-1.7443,-1.7754,-1.7446,-1.8831,-2.0538,-2.2139,-2.4626,-2.6958,-2.8817,-3.0432,-3.166,-3.2175,-3.2706,-3.3203,-3.3592,-3.3436,-3.3551,0.0,0.0,-3.4622,-3.5473,-3.5382,-3.5449,-3.5718,-3.4238,-3.3769,-3.4437,-3.4641,-3.4634,-3.4436,-3.4511,-3.4535,-3.4519,-3.4375,-3.3478,-3.2068,0.0,0.0,-3.0616,-3.062,-3.0633,-3.0643,-3.0713,-3.0692,-3.0658,-3.0776,-3.082,-3.0838,0.0,0.0,0.0,0.0,0.0,0.0,0.0,0.8091,0.986,1.2091,1.3248,1.4531,1.6352,1.7079,0.0,0.0,0.0,0.0,0.0,0.0,0.0,1.8484,1.8318,1.8619,1.9482,1.8935,1.8551,1.8447,0.0,1.8933,1.8635,1.9018,1.958,2.0237,1.9541,1.9287,1.9306,1.835,1.8452,1.9194,1.8701,1.9314,2.0442,2.0271,0.0,0.0,2.0027,1.9737,1.9436,2.1258,2.2205,2.2539,2.2033,1.9894,1.6245,0.9508,0.4516,-0.096,-1.0794,-1.5349,-1.8136,-2.1535,-2.2435,-2.205,-2.0328,-1.9246,-1.8394,-1.7672,-1.7578,-1.7597,-1.768,-1.884,-2.0083,-2.0991,-2.3663,-2.6231,-2.7914,-2.9321,-3.0627,-3.1962,-3.1921,-3.2027,-3.2681,-3.2813,-3.3019,-3.3309,0.0,-3.3364,-3.4204,-3.3923,-3.3821,-3.3983,-3.3313,-3.3122,-3.3526,-3.3564,-3.3775,-3.4186,-3.38,-3.3863,-3.4303,-3.4306,-3.339,-3.1855,-3.2715,0.0,-3.0607,-3.0602,-3.0593,-3.0617,-3.0675,-3.0653,-3.0622,-3.0714,-3.0743,-3.0757,0.0,0.0,0.0,0.0,0.0,0.0,0.0,0.7364,0.9516,1.1808,1.3981,1.5881,1.7553,1.8007,1.859,0.0,0.0,0.0,0.0,0.0,0.0,0.0,0.0,0.0,2.0732,0.0,0.0,1.9853,2.0486,0.0,0.0,0.0,0.0,0.0,2.1224,2.0977,2.0692,1.9702,1.9843,0.0,0.0,2.0261,2.1532,0.0,0.0,0.0,0.0,2.0176,1.9811,2.0972,2.0976,2.0567,2.1199,1.9375,1.5874,1.0178,0.5539,0.0483,-0.7834,-1.2871,-1.6447,-1.9163,-2.1021,-2.1764,-2.0162,-1.9102,-1.8417,-1.8244,-1.7773,-1.7526,-1.8012,-1.8866,-1.9612,-1.9959,-2.2354,-2.4781,-2.6563,-2.7631,-2.9036,-3.1289,-3.1098,-3.1098,-3.1952,-3.235,-3.2666,-3.2943,0.0,0.0,-3.2683,-3.2317,-3.2245,-3.2584,-3.2383,-3.239,-3.2609,-3.2609,-3.2968,-3.366,-3.3012,-3.3075,-3.3747,-3.3763,-3.2946,-3.1574,-3.2444,0.0,0.0,-3.0598,-3.0598,-3.0617,-3.0656,-3.0656,-3.0617,-3.0656,-3.0688,-3.0691,0.0,0.0,0.0,0.0,0.0,0.0,0.0,0.5615,0.8311,1.1085,1.4806,1.7478,1.8327,1.8223,1.8555,0.0,0.0,0.0,0.0,0.0,0.0,0.0,0.0,0.0,0.0,0.0,0.0,2.1318,2.067,0.0,0.0,0.0,0.0,0.0,0.0,2.0859,2.0855,2.0396,0.0,0.0,0.0,0.0,0.0,0.0,0.0,0.0,0.0,2.1043,1.9475,2.1515,2.0483,1.8416,1.8667,1.7652,1.5599,1.159,0.7811,0.3295,-0.4413,-0.8183,-1.1625,-1.8593,-1.9451,-1.8838,-1.9848,-1.9028,-1.7935,-1.7572,-1.7386,-1.7321,-1.7378,-1.8013,-1.8842,-1.9833,-2.0865,-2.2364,-2.4641,-2.5704,-2.7092,-2.93,-3.0,-3.0668,-3.1719,-3.177,-3.2021,-3.2763,0.0,0.0,-3.1805,-3.1166,-3.1317,-3.2463,-3.1051,-3.0734,-3.1719,-3.1719,-3.1789,-3.1929,-3.1852,-3.1857,-3.1939,-3.2003,-3.1504,-3.0675,0.0,0.0,0.0,-3.0598,-3.0598,-3.0598,-3.0617,-3.0617,-3.0598,-3.0617,-3.0618,-3.0614,0.0,0.0,0.0,0.0,0.0,0.0,0.0,0.3213,0.6002,0.7446,1.2224,1.5906,1.7129,1.882,2.0082,0.0,0.0,0.0,0.0,0.0,0.0,0.0,0.0,0.0,0.0,0.0,2.2263,2.264,2.2362,0.0,0.0,0.0,0.0,0.0,0.0,2.2756,2.2626,2.2078,0.0,0.0,0.0,0.0,0.0,0.0,0.0,0.0,0.0,0.0,1.9828,2.0644,1.9834,1.8261,1.7216,1.6222,1.4865,1.1773,0.8527,0.4745,-0.0679,-0.5503,-1.0212,-1.5245,-1.7302,-1.8451,-1.9847,-1.9041,-1.8058,-1.8276,-1.7866,-1.7629,-1.8102,-1.8394,-1.8527,-1.8548,-2.0027,-2.1715,-2.3192,-2.4258,-2.5759,-2.8047,-2.8337,-2.8732,-2.9644,-2.9955,-3.0179,-3.0321,0.0,0.0,-2.9598,-2.9706,-3.0029,-3.0622,-3.0089,-3.0086,-3.0638,-3.0633,-3.0956,-3.1635,-3.1148,-3.1191,-3.1707,-3.1719,-3.1279,-3.0558,0.0,0.0,0.0,-3.0569,-3.0598,-3.0598,-3.0598,-3.0598,-3.0598,-3.0598,-3.0606,-3.0602,0.0,0.0,0.0,0.0,0.0,-0.4244,-0.3559,0.0437,0.3533,0.3849,0.9995,1.4854,1.6183,1.9081,2.1154,2.1596,0.0,0.0,0.0,0.0,0.0,0.0,0.0,0.0,0.0,0.0,2.3658,2.373,2.4058,2.4089,0.0,0.0,2.4272,2.4084,0.0,0.0,0.0,0.0,0.0,0.0,0.0,0.0,0.0,0.0,0.0,0.0,0.0,0.0,0.0,0.0,0.0,1.9104,1.7233,1.6297,1.5358,1.2497,0.9291,0.591,0.2519,-0.2744,-0.8376,-1.2837,-1.5412,-1.7491,-1.9914,-1.925,-1.8233,-1.8637,-1.8149,-1.7826,-1.8404,-1.8559,-1.8368,-1.7683,-1.9378,-2.0955,-2.1488,-2.271,-2.4261,-2.6214,-2.6432,-2.6768,-2.7623,-2.8342,-2.8699,0.0,0.0,0.0,0.0,-2.8646,-2.9038,-2.9332,-2.9494,-2.9698,-2.9899,-2.9958,-3.0367,-3.1117,-3.0611,-3.0698,-3.133,-3.1322,-3.1006,-3.0507,0.0,0.0,0.0,-3.055,-3.0559,-3.0569,-3.0569,-3.0569,-3.0598,-3.0598,-3.0598,-3.0598,0.0,0.0,0.0,0.0,0.0,0.0,-0.7895,-0.2718,0.1104,0.104,0.8949,1.5003,1.6077,1.8835,2.1165,2.2557,0.0,0.0,0.0,0.0,0.0,0.0,0.0,0.0,0.0,0.0,2.4543,2.4482,2.5418,2.5399,2.451,2.5506,2.551,2.4702,0.0,0.0,0.0,0.0,0.0,0.0,0.0,0.0,0.0,0.0,0.0,0.0,0.0,0.0,0.0,0.0,0.0,0.0,0.0,1.8317,1.7622,1.4273,1.0535,0.7038,0.4948,0.0471,-0.5246,-1.2235,-1.3957,-1.5193,-2.0014,-1.9699,-1.8375,-1.831,-1.7975,-1.771,-1.7789,-1.8239,-1.8368,-1.7629,-1.8801,-1.9691,-1.9388,-2.0834,-2.2299,-2.3302,-2.427,-2.5182,-2.603,-2.7264,-2.8049,0.0,0.0,0.0,0.0,-2.821,-2.8522,-2.9188,-2.9272,-2.9435,-2.9698,-2.9832,-2.9943,-3.0032,-3.0203,-3.0336,-3.041,-3.0414,-3.0417,0.0,0.0,0.0,0.0,-3.0509,-3.05,-3.0491,-3.0491,-3.053,-3.0598,-3.0598,-3.0598,-3.0598,0.0,0.0,0.0,0.0,0.0,0.0,0.0,-0.622,-0.2325,-0.1374,0.5564,1.1489,1.4265,1.7597,2.0206,2.1626,0.0,0.0,0.0,0.0,0.0,0.0,0.0,0.0,0.0,0.0,2.4592,2.4836,2.4956,2.4863,2.4589,2.4897,2.4595,2.3805,2.3861,2.3545,0.0,0.0,0.0,0.0,0.0,0.0,0.0,0.0,0.0,0.0,0.0,0.0,0.0,0.0,0.0,0.0,0.0,0.0,0.0,1.6479,1.2984,0.9249,0.6826,0.2888,-0.1991,-0.7879,-1.0864,-1.3346,-1.7206,-1.8213,-1.8313,-1.8249,-1.8291,-1.8208,-1.7788,-1.8535,-1.8831,-1.7688,-1.8634,-1.9524,-1.952,-2.0975,-2.2378,-2.3336,-2.4609,-2.537,0.0,0.0,0.0,0.0,0.0,0.0,0.0,-2.7173,-2.7687,-2.8154,-2.8732,-2.8886,-2.8614,-2.9251,-2.9626,-2.9801,-3.0007,-3.0109,-3.0136,-3.0273,0.0,0.0,0.0,0.0,0.0,-2.9371,-2.9294,-2.8782,-2.8781,-2.9157,-2.9708,-2.9708,-3.0095,-3.0598,0.0,0.0,0.0,0.0,0.0,0.0,0.0,-0.8215,-0.4314,-0.2931,0.4037,0.9887,1.2575,1.6019,1.868,2.0016,0.0,0.0,0.0,0.0,0.0,0.0,0.0,0.0,0.0,2.3854,2.4069,2.4316,2.4491,2.437,2.4051,2.4159,2.3841,2.3153,2.2603,2.2152,0.0,0.0,0.0,0.0,0.0,0.0,2.2689,0.0,0.0,0.0,0.0,0.0,0.0,0.0,0.0,0.0,0.0,0.0,0.0,0.0,1.5535,1.2529,0.8998,0.4504,-0.0364,-0.528,-0.904,-1.2442,-1.594,-1.7509,-1.8229,-1.8229,-1.824,-1.8141,-1.7811,-1.8293,-1.8476,-1.7655,-1.8317,-1.8925,-1.8914,-2.0263,-2.16,-2.249,-2.3432,-2.4023,0.0,0.0,0.0,0.0,0.0,0.0,0.0,0.0,-2.6364,-2.6563,-2.746,-2.7801,-2.75,-2.8398,-2.8949,-2.9101,-2.9631,-2.9756,-2.9556,-2.9704,0.0,0.0,0.0,0.0,0.0,-2.8349,-2.8305,-2.7962,-2.7914,-2.8251,-2.8811,-2.9101,-2.9574,-3.0115,0.0,0.0,0.0,0.0,0.0,0.0,0.0,0.0,-0.5161,-0.354,0.3952,0.9669,1.1015,1.4118,1.655,1.7763,0.0,0.0,0.0,0.0,0.0,0.0,0.0,0.0,2.2611,2.2901,2.3032,2.3041,2.384,2.3765,2.2898,2.3191,2.3017,2.2422,2.1096,2.0622,0.0,0.0,0.0,0.0,0.0,0.0,0.0,0.0,0.0,0.0,0.0,0.0,0.0,0.0,0.0,0.0,0.0,0.0,0.0,0.0,0.0,0.0,0.0,0.5886,0.0316,-0.4122,-0.826,-1.2222,-1.5887,-1.749,0.0,-1.8339,-1.8073,-1.7822,-1.776,-1.7646,-1.7505,-1.7384,-1.7756,-1.8022,-1.7864,-1.911,-2.0289,-2.1055,-2.1263,0.0,-2.2524,0.0,0.0,0.0,0.0,0.0,0.0,0.0,-2.4756,-2.4581,-2.5624,-2.6257,-2.6417,-2.7403,-2.7916,-2.7996,-2.9026,-2.9212,-2.8674,-2.8736,0.0,0.0,0.0,0.0,0.0,-2.7336,-2.7326,-2.7498,-2.7385,-2.7454,-2.7719,-2.8461,-2.8818,-2.904,0.0,0.0,0.0,0.0,0.0,0.0,0.0,0.0,0.0,0.0,0.2724,0.6792,0.9324,1.1697,1.3455,0.0,0.0,0.0,0.0,0.0,0.0,0.0,0.0,0.0,2.0808,2.121,2.1428,2.1361,2.153,2.1311,2.0808,2.0767,2.0256,1.9338,1.9011,1.8528,0.0,0.0,0.0,0.0,0.0,0.0,0.0,0.0,0.0,0.0,1.9476,2.0,0.0,0.0,0.0,0.0,0.0,0.0,0.0,0.0,1.9244,1.707,1.4549,0.0,0.4547,-0.1945,-0.6677,-1.0829,0.0,-1.7749,-1.9257,-1.897,-1.9031,-1.8775,-1.7575,-1.7774,-1.7649,-1.6273,-1.6616,-1.7343,-1.8152,-1.997,-2.1308,-2.1603,-2.2282,-2.2454,-2.1775,0.0,0.0,0.0,0.0,0.0,0.0,0.0,-2.3794,-2.3344,-2.3891,-2.4617,-2.5512,-2.6405,-2.6854,-2.6875,-2.7344,-2.7474,-2.7356,-2.7592,0.0,0.0,0.0,0.0,-2.4726,-2.5317,-2.486,-2.3777,-2.384,-2.4303,-2.4937,-2.5129,-2.56,-2.6254,0.0,0.0,0.0,0.0,0.0,0.0,0.0,0.0,0.0,0.0,0.0,0.0,0.0,0.0,0.0,0.0,0.0,0.0,0.0,0.0,0.0,0.0,0.0,1.9051,1.9221,1.9626,1.977,1.9653,1.9623,1.9463,1.9206,1.8844,1.8424,1.799,1.7116,1.6136,0.0,0.0,0.0,0.0,1.4169,0.0,0.0,0.0,0.0,0.0,1.607,1.706,0.0,1.9599,2.0502,2.1276,0.0,0.0,0.0,0.0,2.0991,1.9411,1.631,1.1898,0.6435,-0.0882,-0.6158,-1.0796,-1.5662,-1.8199,-1.9346,-1.8726,-1.8589,-1.8219,-1.7009,-1.7215,-1.7239,-1.6225,-1.6517,-1.7179,-1.8084,-1.929,-2.0229,-2.0675,-2.1187,-2.1436,0.0,0.0,0.0,0.0,0.0,0.0,0.0,0.0,-2.2829,-2.2773,-2.3056,-2.3687,-2.4593,-2.5455,-2.5899,-2.5962,-2.6497,-2.6617,-2.6358,-2.6533,0.0,0.0,0.0,0.0,-2.312,-2.3483,-2.3183,-2.249,-2.2525,-2.2833,-2.3301,-2.3686,-2.411,-2.4626,0.0,0.0,0.0,0.0,0.0,0.0,0.0,0.0,0.0,0.0,0.0,0.0,0.0,0.0,0.0,0.0,0.0,0.0,0.0,0.0,0.0,0.0,0.0,1.7165,1.7679,1.7972,1.8076,1.797,1.8009,1.7984,1.7799,1.7233,1.7001,1.7044,1.5333,1.3896,0.0,0.0,0.0,0.0,1.2064,0.0,0.0,0.0,0.0,0.0,0.0,0.0,0.0,1.5835,1.7346,1.9351,2.0825,0.0,0.0,0.0,0.0,0.0,1.739,1.315,0.8046,-0.0129,-0.611,-1.1329,-1.6428,-1.8693,-1.9386,-1.8188,-1.7759,-1.7302,-1.6361,-1.6378,-1.6501,-1.6333,-1.682,-1.7395,-1.7847,-1.8173,-1.8515,-1.9029,-1.9248,0.0,0.0,0.0,0.0,0.0,0.0,0.0,0.0,0.0,0.0,-2.2184,-2.2442,-2.2905,-2.3635,-2.4493,-2.4957,-2.51,-2.5858,-2.5943,-2.5449,-2.5409,-2.4669,0.0,0.0,0.0,-2.2123,-2.1898,-2.1896,-2.2035,-2.1928,-2.1934,-2.2067,-2.2748,-2.3038,-2.3215,0.0,0.0,0.0,0.0,0.0,0.0,0.0,0.0,0.0,0.0,0.0,0.0,0.0,0.0,0.0,0.0,0.0,0.0,0.0,0.0,0.0,1.2301,1.3725,1.4891,1.5796,1.6219,1.6502,1.6497,1.6824,1.6642,1.5996,1.5832,1.5264,1.4378,1.349,1.2831,1.2209,0.0,0.0,0.0,0.0,0.0,0.0,0.0,0.0,0.0,0.0,0.0,0.0,1.6262,1.7615,1.8183,2.0788,0.0,0.0,0.0,0.0,0.0,1.8437,1.644,1.2753,0.1632,-0.5817,-1.1429,-1.5311,-1.9032,-2.0907,-1.8217,-1.8059,-1.784,-1.5975,-1.5798,-1.5729,-1.5079,-1.6577,-1.7706,-1.7537,-1.8359,-1.8524,-1.7334,0.0,0.0,0.0,0.0,0.0,0.0,0.0,0.0,0.0,0.0,0.0,-2.0466,-2.0848,-2.1484,-2.2432,-2.3536,-2.4099,-2.4119,-2.4306,-2.4386,-2.4318,-2.3695,-2.3307,0.0,0.0,-2.1686,-2.0957,-2.0908,-2.053,-1.9968,-2.0069,-2.0108,-2.0139,-2.0264,-2.0302,-2.0421,0.0,0.0,0.0,0.0,0.0,0.0,0.0,0.0,0.0,0.0,0.0,0.0,0.0,0.0,0.0,0.0,0.0,0.0,0.0,0.0,0.9224,0.998,1.0939,1.2416,1.4413,1.4926,1.5129,1.5142,1.5377,1.5231,1.4709,1.4536,1.392,1.2919,1.2218,1.1616,1.1065,0.999,0.9481,0.0,0.0,0.0,0.0,0.0,0.0,0.0,0.0,0.0,0.0,0.0,1.4592,1.6923,1.8841,0.0,0.0,0.0,0.0,0.0,1.9212,1.7065,1.3906,0.5996,-0.3092,-1.1719,-1.8031,-2.047,-2.0714,-1.8251,-1.7802,-1.7371,-1.5846,-1.5753,-1.5853,-1.5712,-1.6278,-1.6863,-1.7115,-1.7302,-1.7304,0.0,0.0,0.0,0.0,0.0,0.0,0.0,0.0,0.0,0.0,0.0,0.0,0.0,-2.0082,-2.079,-2.1281,-2.2106,-2.2962,-2.3896,-2.3976,-2.3797,-2.3435,-2.3125,-2.2501,-2.1636,0.0,-2.0744,-2.0007,-2.0045,-1.9818,-1.9499,-1.9614,-1.9641,-1.9655,-1.9695,-1.9726,-1.9806,0.0,0.0,0.0,0.0,0.0,0.0,0.0,0.0,0.0,0.0,0.0,0.0,0.0,0.0,0.0,0.0,0.0,0.0,0.0,0.0,0.7416,0.7988,0.8842,1.0562,1.3165,1.3622,1.3935,1.4165,1.4294,1.4236,1.3884,1.3467,1.2783,1.195,1.1275,1.0559,0.9799,0.8928,0.8402,0.0,0.0,0.0,0.0,0.0,0.0,0.0,0.0,0.0,0.0,0.0,0.0,0.0,0.0,0.0,0.0,2.1098,2.1874,2.1865,1.9243,1.7169,1.4381,0.8594,-0.117,-1.1494,-1.969,-2.134,-2.0552,-1.8529,-1.7769,-1.7134,-1.5996,-1.5833,-1.6052,-1.6469,-1.6233,-1.6144,-1.6637,-1.6383,-1.6274,0.0,0.0,0.0,0.0,0.0,0.0,0.0,0.0,0.0,0.0,0.0,0.0,0.0,-1.875,-1.9423,-1.9685,-2.0367,-2.1689,-2.3603,-2.3462,-2.3302,-2.3123,-2.2612,-2.1806,-2.0759,-2.0441,-1.9942,-1.9372,-1.9446,-1.9475,-1.9489,-1.9578,-1.9638,-1.9673,-1.972,-1.9774,-1.9821,0.0,0.0,0.0,0.0,0.0,0.0,0.0,0.0,0.0,0.0,0.0,0.0,0.0,0.0,0.0,0.0,0.0,0.0,0.0,0.0,0.6416,0.5959,0.8047,1.0026,1.18,1.2288,1.3044,1.4014,1.4025,1.3884,1.361,1.2735,1.194,1.1216,1.0568,0.9747,0.883,0.809,0.7391,0.6676,0.6046,0.0,0.0,0.0,0.0,0.0,0.0,0.0,0.0,0.0,0.0,0.0,0.0,0.0,1.7575,1.9114,1.929,1.8792,1.7998,1.7745,1.5501,0.6318,-0.2196,-1.0147,-1.7187,-2.0454,-2.1379,-1.9188,-1.8502,-1.789,-1.6495,-1.5909,-1.5847,-1.6576,-1.6544,-1.639,-1.6198,0.0,0.0,0.0,0.0,0.0,0.0,0.0,0.0,0.0,0.0,0.0,0.0,0.0,0.0,0.0,0.0,-1.6431,-1.7235,-1.8393,-2.0244,-2.2687,-2.1945,-2.2384,-2.3753,-2.1571,-2.095,-2.1532,-2.0026,-1.936,-1.9305,-1.9372,-1.9405,-1.942,-1.962,-1.977,-1.9881,-1.9892,-1.9885,-1.9888,0.0,0.0,0.0,0.0,0.0,0.0,0.0,0.0,0.0,0.0,0.0,0.0,0.0,0.0,0.0,0.0,0.0,0.0,0.0,0.4284,0.4889,0.4933,0.6392,0.7829,0.9172,1.0477,1.1358,1.1747,1.1846,1.211,1.2442,1.1633,1.0973,1.0517,0.9577,0.8856,0.829,0.745,0.675,0.6209,0.5782,0.0,0.0,0.0,0.0,0.0,0.0,0.0,0.0,0.0,0.7292,0.9635,1.1477,1.3699,1.5898,1.6867,1.7852,1.8589,1.853,1.7543,1.5436,1.0834,0.4334,-0.3562,-1.3718,-1.74,-1.8803,-1.921,-1.8839,-1.7993,-1.6409,-1.5797,-1.5625,-1.5966,-1.5905,-1.5785,-1.5754,0.0,0.0,0.0,0.0,0.0,0.0,0.0,0.0,0.0,0.0,0.0,0.0,0.0,0.0,0.0,0.0,-1.5741,-1.6241,-1.687,-1.8217,-2.0241,-2.1039,-2.1728,-2.2291,-2.0953,-2.0516,-2.077,-1.9691,-1.9264,-1.9311,-1.9427,-1.9485,-1.9546,-1.9695,-1.9793,-1.9843,-1.9939,-1.996,-1.9971,0.0,0.0,0.0,0.0,0.0,0.0,0.0,0.0,0.0,0.0,0.0,0.0,0.0,0.0,0.0,0.0,0.0,0.0,0.184,0.2788,0.3508,0.3837,0.4933,0.5968,0.6945,0.8423,0.9526,1.0151,1.0312,1.061,1.0965,1.0517,1.0005,0.9488,0.8646,0.7966,0.7385,0.675,0.605,0.5395,0.512,0.4401,0.0,0.0,0.0,0.0,0.0,0.0,0.0,0.0,0.4854,0.7269,0.8904,1.0951,1.3076,1.4284,1.5273,1.6109,1.6717,1.5344,1.3616,1.3059,0.8306,0.1322,-0.8096,-1.2861,-1.5975,-1.8342,-1.8756,-1.8153,-1.6401,-1.5826,-1.5668,-1.561,-1.5345,-1.5111,0.0,0.0,0.0,0.0,0.0,0.0,0.0,0.0,0.0,0.0,0.0,0.0,0.0,0.0,0.0,0.0,0.0,-1.4832,-1.5034,-1.554,-1.6395,-1.7631,-1.9289,-2.0548,-2.1345,-2.0337,-2.0028,-2.0228,-1.9499,-1.9235,-1.9329,-1.9442,-1.955,-1.9669,-1.9786,-1.9855,-1.9909,-2.0011,-2.0069,-2.005,0.0,0.0,0.0,0.0,0.0,0.0,0.0,0.0,0.0,0.0,0.0,0.0,0.0,0.0,0.0,0.0,0.0,0.0,-0.0335,0.1335,0.2393,0.2456,0.3718,0.4652,0.5277,0.6154,0.7587,0.9577,0.985,0.9688,0.9082,0.9436,0.9026,0.8078,0.7824,0.7079,0.6,0.6,0.5281,0.4177,0.3904,0.3072,0.1959,0.0,0.0,0.0,0.0,0.0,0.0,0.0,0.2879,0.4348,0.7477,0.8373,0.8783,1.1334,1.1245,1.0625,1.1971,1.0957,0.9935,1.1691,0.8263,0.3523,-0.0105,-0.6903,-1.3335,-1.6512,-1.8179,-1.8474,-1.6576,-1.6095,-1.5911,-1.5624,-1.4976,0.0,0.0,0.0,0.0,0.0,0.0,0.0,0.0,0.0,0.0,0.0,0.0,0.0,0.0,0.0,0.0,0.0,0.0,0.0,-1.3396,-1.4382,-1.4929,-1.503,-1.6554,-1.8677,-2.1234,-1.9687,-1.9434,-2.0137,-1.9432,-1.9202,-1.939,-1.939,-1.9569,-1.9809,-1.9873,-1.9979,-2.0117,-2.0164,-2.0209,-2.0188,0.0,0.0,0.0,0.0,0.0,0.0,0.0,0.0,0.0,0.0,0.0,0.0,0.0,0.0,0.0,0.0,0.0,0.0,-0.1062,0.0056,0.0947,0.1507,0.2506,0.3506,0.4391,0.4831,0.6126,0.8237,0.8349,0.8442,0.8528,0.8343,0.7978,0.7379,0.675,0.6154,0.5445,0.4835,0.4174,0.3511,0.2899,0.2176,0.1285,0.0,0.0,0.0,0.0,0.0,0.0,0.0,0.0,0.0,0.4041,0.6267,0.8455,0.9212,1.0141,1.1516,1.4182,1.2521,1.0799,1.3863,1.1696,0.785,0.407,-0.2746,-0.966,-1.4571,-1.5919,-1.6367,-1.6868,-1.6591,-1.6088,-1.556,-1.5007,0.0,0.0,0.0,0.0,0.0,0.0,0.0,0.0,0.0,0.0,0.0,0.0,0.0,0.0,0.0,0.0,0.0,0.0,0.0,-1.3396,-1.37,-1.4194,-1.4864,-1.5315,-1.6869,-1.9333,-1.8909,-1.9141,-1.9834,-1.9255,-1.9051,-1.9148,-1.9475,-1.9688,-1.9821,-1.9866,-1.9928,-1.9971,-2.004,-2.006,-2.005,0.0,0.0,0.0,0.0,0.0,0.0,0.0,0.0,0.0,0.0,-0.5273,-0.4732,0.0,0.0,0.0,0.0,0.0,0.0,0.0,-0.1447,-0.0501,-0.0056,0.1059,0.2286,0.3511,0.3782,0.4601,0.6131,0.6681,0.7111,0.7379,0.7176,0.6907,0.6475,0.5832,0.5171,0.4446,0.3666,0.2945,0.2169,0.1391,0.0613,-0.0111,0.0,0.0,0.0,0.0,0.0,0.0,0.0,0.0,0.0,0.2044,0.4147,0.6126,0.667,0.7151,0.8154,1.0989,1.0001,0.9021,1.2434,1.1407,0.8783,0.5838,-0.1185,-0.8266,-1.2451,-1.4493,-1.5616,-1.597,-1.6414,0.0,-1.554,0.0,0.0,0.0,0.0,0.0,0.0,0.0,0.0,0.0,0.0,0.0,0.0,0.0,0.0,0.0,0.0,0.0,0.0,0.0,0.0,-1.3312,-1.3329,-1.3616,-1.4213,-1.459,-1.554,-1.7007,-1.7711,-1.8491,-1.9255,-1.9164,-1.9134,-1.918,-1.9546,-1.9713,-1.9762,-1.9828,-1.987,-1.9862,-1.9918,-1.992,-1.992,0.0,0.0,0.0,0.0,0.0,0.0,0.0,0.0,0.0,0.0,-0.6897,-0.6465,0.0,0.0,0.0,0.0,0.0,0.0,0.0,0.0,-0.2009,-0.1889,-0.0446,0.106,0.2569,0.2788,0.3174,0.3616,0.4984,0.5706,0.5837,0.5937,0.5773,0.534,0.4897,0.4119,0.3063,0.2441,0.1554,0.0501,-0.0445,-0.1225,-0.1836,-0.272,0.0,0.0,0.0,0.0,0.0,0.0,0.0,0.0,0.0938,0.2038,0.2678,0.3893,0.3184,0.2561,0.484,0.5241,0.5796,0.9069,0.8855,0.7511,0.6318,-0.0709,-0.7561,-0.9652,-1.2915,-1.5039,-1.4003,-1.533,-1.6253,0.0,0.0,0.0,0.0,0.0,0.0,0.0,0.0,0.0,0.0,0.0,0.0,0.0,0.0,0.0,0.0,0.0,0.0,0.0,0.0,0.0,-1.3154,-1.3174,-1.321,0.0,-1.4161,-1.4624,-1.4745,-1.6444,-1.7711,-1.8642,-1.9064,-1.9308,-1.939,-1.9578,-1.9655,-1.9656,-1.9738,-1.9757,-1.9763,-1.9774,-1.9767,-1.9767,0.0,0.0,0.0,0.0,0.0,0.0,0.0,0.0,0.0,0.0,0.0,0.0,0.0,0.0,0.0,0.0,0.0,0.0,0.0,0.0,-0.3392,-0.2397,-0.0892,0.0112,0.0447,0.1174,0.179,0.2402,0.3727,0.4391,0.445,0.4446,0.4058,0.3335,0.3224,0.2617,0.1675,0.0613,0.0056,-0.0279,-0.1561,-0.245,-0.3,-0.3669,-0.4101,0.0,0.0,0.0,0.0,0.0,0.0,0.0,-0.133,0.0162,0.1307,0.1564,0.1939,0.2956,0.5964,0.5982,0.6258,1.0884,1.0145,0.8735,1.0427,0.5707,0.0041,-0.3237,-0.6255,-0.8971,-1.1178,-1.1699,-1.2069,0.0,0.0,0.0,0.0,0.0,0.0,0.0,0.0,0.0,0.0,0.0,0.0,0.0,0.0,0.0,0.0,0.0,0.0,0.0,0.0,-1.2741,-1.2813,-1.3013,-1.3137,0.0,-1.3515,-1.3973,-1.4619,-1.6443,-1.7823,-1.8753,-1.886,-1.9033,-1.9251,-1.928,-1.9311,-1.9326,-1.945,-1.9493,-1.9489,-1.9545,-1.9567,-1.9567,0.0,0.0,0.0,0.0,0.0,0.0,0.0,0.0,0.0,0.0,0.0,0.0,0.0,0.0,0.0,0.0,0.0,0.0,0.0,0.0,-0.422,-0.2843,-0.2006,-0.1282,-0.067,-0.0056,0.056,0.1232,0.1898,0.273,0.3788,0.3342,0.3005,0.267,0.2228,0.1449,0.0391,-0.0779,-0.1612,-0.2334,-0.3663,-0.433,-0.4663,-0.5269,-0.5379,-0.5313,-0.6122,0.0,0.0,0.0,0.0,0.0,0.0,0.0,-0.0208,0.0698,0.1111,0.2057,0.5923,0.6052,0.6307,1.1299,1.182,1.1435,1.2883,0.9628,0.5706,0.3622,-0.1151,-0.5658,-0.8019,-0.9545,0.0,0.0,0.0,0.0,0.0,0.0,0.0,0.0,0.0,0.0,0.0,0.0,0.0,0.0,0.0,0.0,0.0,-1.2646,0.0,0.0,-1.2649,-1.2684,-1.285,-1.3013,-1.3102,-1.3102,-1.3295,-1.382,-1.4656,-1.6407,-1.7501,-1.8073,-1.8519,-1.8843,-1.9051,-1.9051,-1.9135,-1.9251,-1.9314,-1.936,-1.9316,-1.8951,-1.8846,-1.8818,0.0,0.0,0.0,0.0,0.0,0.0,0.0,0.0,0.0,0.0,0.0,0.0,0.0,0.0,0.0,0.0,0.0,0.0,0.0,0.0,0.0,-0.3616,-0.3448,-0.2839,-0.1673,-0.1228,-0.0726,0.0,-0.0056,0.0896,0.2811,0.2125,0.195,0.206,0.1228,0.0279,-0.0892,-0.2052,-0.3267,-0.4491,-0.5592,-0.6095,-0.6213,-0.6696,-0.648,-0.6105,-0.6982,-0.6977,-0.6529,-0.6426,0.0,0.0,0.0,0.0,-0.1952,-0.0246,0.0192,0.0976,0.5134,0.6417,0.7676,1.2254,1.3662,1.4125,1.4702,1.2268,0.9749,0.9206,0.293,-0.289,-0.4311,-0.6944,0.0,0.0,0.0,0.0,0.0,0.0,0.0,0.0,0.0,0.0,0.0,0.0,0.0,0.0,0.0,0.0,-1.2832,-1.2665,-1.2665,-1.2832,-1.2665,-1.2684,-1.2922,-1.2995,-1.3048,-1.3048,-1.3169,-1.3554,-1.4257,-1.563,-1.6583,-1.7176,-1.7736,-1.8145,-1.841,-1.8175,-1.8223,-1.8426,-1.8437,-1.8388,-1.8245,-1.7608,-1.7476,-1.7528,0.0,0.0,0.0,0.0,0.0,0.0,0.0,0.0,0.0,0.0,-1.0762,-1.021,0.0,0.0,0.0,0.0,0.0,0.0,-0.7246,0.0,0.0,-0.5441,-0.4824,-0.4271,-0.3773,-0.289,-0.2171,-0.1673,-0.1453,-0.1021,-0.0349,0.0057,0.0112,-0.028,-0.0615,-0.1395,-0.2449,-0.3608,-0.4491,-0.5206,-0.5873,-0.6426,-0.6745,-0.6691,-0.7015,-0.7551,-0.7241,-0.7568,-0.7996,-0.7241,-0.705,0.0,0.0,0.0,-0.4146,-0.3691,-0.1453,0.138,0.3794,0.8618,1.3662,1.661,1.5567,1.4422,1.6789,1.4464,1.1453,1.0188,0.5997,0.2108,0.0696,0.0,0.0,0.0,0.0,0.0,0.0,0.0,0.0,0.0,0.0,0.0,0.0,0.0,0.0,0.0,0.0,0.0,-1.2558,-1.2538,-1.2518,-1.2558,-1.2538,-1.2538,-1.2558,-1.2757,-1.2834,-1.285,-1.2559,-1.2388,-1.2284,-1.2679,-1.4341,-1.6887,-1.5911,-1.5869,-1.6388,-1.5287,-1.4849,-1.4892,-1.4947,-1.475,-1.4442,-1.4395,-1.4778,-1.5334,0.0,0.0,0.0,0.0,0.0,0.0,0.0,0.0,0.0,0.0,0.0,-1.1416,0.0,0.0,0.0,-0.9354,-0.9309,-0.8784,-0.7509,-0.6869,-0.6381,-0.6159,-0.5764,-0.521,-0.4501,-0.4265,-0.3712,-0.2837,-0.3161,-0.338,-0.3482,-0.2981,-0.2411,-0.189,-0.2174,-0.2992,-0.4316,-0.5089,-0.5756,-0.6362,-0.7122,-0.7348,-0.7295,-0.761,-0.7771,-0.7771,-0.7509,-0.783,-0.8262,-0.7408,-0.7244,-0.7217,-0.6352,0.0,0.0,0.0,-0.097,0.2701,0.6982,1.1868,1.5976,1.6918,1.6454,1.598,1.6862,1.4975,1.2791,1.1861,0.8944,0.5753,0.0,0.0,0.0,0.0,0.0,0.0,0.0,0.0,0.0,0.0,0.0,0.0,0.0,0.0,0.0,0.0,0.0,-1.1383,-1.1321,-1.1186,-1.1161,-1.1315,-1.1205,-1.1205,-1.1321,-1.1602,-1.1746,-1.1793,-1.1648,-1.1426,-1.117,-1.126,-1.2279,-1.3994,-1.4119,-1.4288,-1.4469,-1.4361,-1.4111,-1.3831,-1.4046,-1.3883,-1.3489,-1.3059,-1.3271,-1.3714,0.0,0.0,0.0,0.0,0.0,0.0,0.0,0.0,0.0,0.0,0.0,0.0,0.0,0.0,0.0,0.0,-0.9976,-0.9399,-0.8249,-0.7515,-0.7036,-0.6707,-0.6593,-0.6204,-0.5433,-0.5638,-0.5303,-0.4265,-0.486,-0.527,-0.5665,-0.5365,-0.4811,-0.4001,-0.386,-0.4528,-0.5792,-0.6392,-0.6999,-0.7616,-0.8309,-0.8309,-0.7937,-0.8415,-0.8362,-0.8043,-0.7937,-0.8256,-0.8573,-0.7723,-0.7512,-0.7561,-0.7164,-0.606,0.0,0.0,0.0,0.5037,1.0834,1.4962,1.7507,1.709,1.712,1.7101,1.6538,1.514,1.3773,1.2964,1.1036,0.8638,0.0,0.0,0.0,0.0,0.0,0.0,0.0,0.0,0.0,0.0,0.0,0.0,0.0,0.0,0.0,0.0,0.0,-1.0137,-1.0266,-1.0095,-1.0124,-1.0426,-1.0273,-1.0273,-1.0426,-1.0673,-1.0827,-1.0875,-1.0726,-1.0523,-1.0249,-1.0067,-1.0236,-1.0747,-1.2008,-1.2575,-1.2643,-1.293,-1.2761,-1.2336,-1.2635,-1.2543,-1.2183,-1.1651,-1.1847,-1.2313,0.0,0.0,0.0,0.0,0.0,0.0,0.0,0.0,0.0,0.0,0.0,0.0,-1.2012,-1.1301,-1.0753,-1.0415,-1.0897,-1.0702,-0.9562,-0.8474,-0.7741,-0.7467,-0.7413,0.0,-0.7331,-0.7128,-0.6799,-0.645,-0.645,-0.6339,-0.6085,-0.6181,-0.6633,-0.7314,-0.5995,-0.5742,-0.644,-0.741,-0.8171,-0.8718,-0.9047,-0.904,-0.8869,-0.8672,-0.8738,-0.8903,-0.8474,-0.889,-0.9406,-0.8633,-0.8252,-0.8065,-0.7529,-0.6601,-0.5717,0.0,0.0,0.0,1.4017,1.7321,1.9169,1.8687,1.7899,1.702,1.6289,1.5404,1.4342,1.2908,1.1759,1.0671,0.0,0.0,0.0,0.0,0.0,0.0,0.0,0.0,0.0,0.0,0.0,0.0,0.0,0.0,0.0,0.0,0.0,-0.9587,-0.9901,-0.9968,-1.0147,-1.0488,-1.0474,-1.0474,-1.0488,-1.0512,-1.0512,-1.0527,-1.001,-0.9593,-0.9258,-0.861,-0.8174,-0.7983,-0.9387,-1.0376,-1.0923,-0.9836,-0.925,-0.9066,-0.9282,-0.9272,-0.9144,-0.9381,-1.0109,-1.0993,0.0,0.0,0.0,0.0,0.0,0.0,0.0,0.0,0.0,0.0,0.0,0.0,0.0,-1.2754,-1.208,-1.1715,-1.1242,-1.0643,-0.9917,-0.9399,-0.904,-0.8883,-0.8771,-0.8495,-0.8013,-0.8237,-0.8025,-0.7433,-0.7906,-0.8207,-0.8305,-0.8184,-0.8619,-0.9391,-0.7467,-0.7187,-0.8231,-0.8744,-0.9117,-0.9347,-0.971,-0.9503,-0.9033,-0.9197,-0.9152,-0.8956,-0.885,-0.9152,-0.9458,-0.8685,-0.8246,-0.8051,-0.7808,-0.7005,-0.5589,-0.2588,0.2582,0.8364,1.3029,1.6702,1.9157,1.8945,1.8167,1.7223,1.6412,1.5689,1.484,1.3604,1.2555,0.0,0.0,0.0,0.0,0.0,0.0,0.0,0.0,0.0,0.0,0.0,0.0,0.0,0.0,0.0,0.0,0.0,0.0,0.0,-0.7772,-0.7848,-0.8119,-0.8616,-0.8725,-0.8934,-0.9281,-0.9281,-0.9228,-0.9155,-0.8947,-0.8658,-0.8241,-0.7977,-0.7812,-0.7734,-0.8326,-0.8659,-0.879,-0.8878,-0.8564,-0.8098,-0.8637,-0.8642,-0.845,-0.8829,-0.9417,-1.0001,0.0,0.0,0.0,0.0,0.0,0.0,0.0,0.0,0.0,-1.5603,0.0,0.0,0.0,0.0,-1.316,-1.2716,-1.1832,-1.1032,-1.0415,-1.0115,-0.9865,-0.9762,-0.9747,-0.9533,-0.911,-0.9429,-0.9332,-0.8803,-0.9287,-0.9566,-0.962,-0.9461,-0.9731,-1.0242,-0.8767,-0.8616,-0.951,-0.9806,-0.9909,-0.9873,-1.0182,-0.9969,-0.951,-0.9562,-0.9413,-0.9225,-0.933,-0.9418,-0.9464,-0.8824,-0.8294,-0.7869,-0.7573,-0.6772,-0.5121,-0.0954,0.3194,0.7384,1.1758,1.5546,1.8354,1.8767,1.8317,1.7476,1.6344,1.5743,1.5065,1.3696,1.2684,0.0,0.0,0.0,0.0,0.0,0.0,0.0,0.0,0.0,0.0,0.0,0.0,0.0,0.0,0.0,0.0,0.0,0.0,0.0,-0.6236,-0.6457,-0.685,-0.7432,-0.7647,-0.7947,-0.829,-0.8308,-0.828,-0.8184,-0.8213,-0.808,-0.7773,-0.7725,-0.7695,-0.7695,-0.7734,-0.7724,-0.7744,-0.8362,-0.8232,-0.7734,-0.8299,-0.85,-0.8506,-0.8896,-0.9401,-0.9928,0.0,0.0,0.0,0.0,0.0,0.0,0.0,0.0,-1.5957,-1.5836,0.0,0.0,0.0,0.0,0.0,-1.3276,-1.2628,-1.1972,-1.1316,-1.0661,-1.0269,-1.0115,-1.0364,-1.0517,-1.0661,-1.0762,-1.0762,-1.061,-1.0635,-1.0336,-0.9814,-0.9865,-0.9917,-1.0064,-0.9917,-0.9917,-1.0072,-1.0438,-1.0557,-1.0454,-1.0478,-1.0538,-1.0435,-0.9844,-0.9636,-0.9627,-0.9987,-0.9783,-0.9349,-0.9114,-0.8469,-0.7664,-0.6843,-0.5846,-0.4392,-0.1181,0.2269,0.6048,0.0,0.0,0.0,1.8204,1.8321,1.7659,1.5994,1.5605,1.5036,1.3094,1.2129,0.0,0.0,0.0,0.0,0.0,0.0,0.0,0.0,0.0,0.0,0.0,0.0,0.0,0.0,0.0,0.0,0.0,0.0,-0.5226,-0.5567,-0.6045,-0.6579,-0.7166,-0.751,-0.7695,-0.7695,-0.7773,-0.7802,-0.7792,-0.7869,-0.7898,-0.7898,-0.7744,-0.7666,-0.7666,-0.7549,-0.7618,-0.7898,-0.8091,-0.8043,-0.7831,-0.8082,-0.8593,-0.9197,-0.9419,-0.996,-1.0636,0.0,0.0,0.0,0.0,0.0,0.0,-1.6607,-1.6392,-1.6219,0.0,0.0,0.0,-1.5951,-1.5742,-1.5176,-1.3909,-1.3869,-1.353,-1.2579,-1.2609,-1.2609,-1.2463,-1.2511,-1.2365,-1.1913,-1.1765,-1.1408,-1.0864,-1.1174,-1.1032,-1.0541,-1.1049,-1.1309,-1.1209,-1.1209,-1.1209,-1.1209,-1.1209,-1.1108,-1.104,-1.1204,-1.1048,-1.0729,-1.018,-0.9893,-0.9792,-0.9983,-0.9701,-0.9176,-0.9013,-0.8421,-0.7483,-0.6405,-0.5811,-0.4999,-0.2348,0.1364,0.5202,0.7951,0.0,0.0,0.0,0.0,0.0,1.6097,1.5372,1.4494,1.2598,1.1578,0.0,0.0,0.0,0.0,0.0,0.0,0.0,0.0,0.0,0.0,0.0,0.0,0.0,0.0,0.0,0.0,0.0,-0.429,-0.4955,-0.5074,-0.596,-0.6579,-0.682,-0.7393,-0.7695,-0.7695,-0.7976,-0.8004,-0.7792,-0.7821,-0.7763,-0.7598,-0.7324,-0.7205,-0.7166,-0.6957,-0.7017,-0.7353,-0.7598,-0.7656,-0.7627,-0.7996,-0.8226,-0.844,-0.8833,-0.9145,-0.9349,0.0,0.0,0.0,0.0,0.0,-1.7612,-1.6892,-1.6607,-1.648,0.0,0.0,0.0,-1.6907,-1.6808,-1.6314,-1.5228,-1.5072,-1.4774,-1.4109,-1.3993,-1.3938,-1.3841,-1.389,-1.3685,-1.3135,-1.3046,-1.2646,-1.1983,-1.2203,-1.1931,-1.1217,-1.1669,-1.1828,-1.1728,-1.1728,-1.1728,-1.1669,-1.156,-1.1418,-1.1302,-1.1031,-1.0801,-1.0547,-0.9917,-0.9633,-0.9543,-0.9785,-0.9473,-0.8938,-0.8651,-0.7593,-0.6284,-0.5526,-0.4998,-0.4336,-0.2361,0.0414,0.353,0.6694,1.0521,1.3826,1.4586,0.0,0.0,1.4369,1.3993,1.345,0.0,0.9988,0.0,0.0,0.0,0.0,0.0,0.0,0.0,0.0,0.0,0.0,0.0,0.0,0.0,0.0,0.0,0.0,-0.2998,-0.3944,-0.4725,-0.5237,-0.5859,-0.6332,-0.6593,-0.7006,-0.7187,-0.7187,-0.7432,-0.7462,-0.7314,-0.7334,-0.7344,-0.7362,-0.7086,-0.7026,-0.7166,-0.6897,-0.6867,-0.7086,-0.7235,-0.7333,-0.7411,-0.7666,-0.781,-0.7886,-0.8319,-0.8491,-0.8586,0.0,0.0,-1.9874,-1.9043,-1.8669,-1.8216,-1.7444,-1.691,-1.681,0.0,-1.7226,-1.7333,-1.7751,-1.7678,-1.7408,-1.6854,-1.6267,-1.5883,-1.5607,-1.5078,-1.4754,-1.4665,-1.4761,-1.469,-1.4293,-1.4376,-1.4095,-1.3428,-1.3468,-1.2929,-1.1868,-1.1968,-1.1968,-1.1778,-1.1778,-1.1778,-1.1728,-1.1728,-1.1528,-1.1251,-1.0593,-1.0305,-1.0225,-0.9451,-0.9174,-0.9113,-0.9446,-0.9193,-0.8606,-0.7989,-0.6416,-0.4659,-0.4372,-0.383,-0.3005,-0.1935,-0.0455,0.1702,0.575,0.8005,0.9801,1.2175,1.401,0.0,1.1868,1.2084,1.1998,0.0,0.0,0.0,0.0,0.0,0.0,0.0,0.0,0.0,0.0,0.0,0.0,0.0,0.0,0.0,0.0,-0.1899,-0.2735,-0.292,-0.3667,-0.457,-0.5621,-0.5708,-0.5958,-0.6416,-0.649,-0.6496,-0.6525,-0.6632,-0.6637,-0.6626,-0.6639,-0.682,-0.7136,-0.6906,-0.6966,-0.7285,-0.6987,-0.6889,-0.6927,-0.6897,-0.6987,-0.7196,-0.7246,-0.7345,-0.7478,-0.7771,-0.7957,-0.8102,0.0,-2.0426,-2.0085,-1.9199,-1.9105,-1.8865,-1.8137,-1.7717,-1.7613,-1.7974,-1.8164,-1.8499,-1.8988,-1.8906,-1.8466,-1.7592,-1.7514,-1.7175,-1.6361,-1.6348,-1.6352,-1.6352,-1.589,-1.5638,-1.5567,-1.4967,-1.4488,-1.4105,-1.3973,-1.3542,-1.2929,-1.2929,-1.2745,-1.2323,-1.2323,-1.2076,-1.1728,-1.1728,-1.1528,-1.1277,-1.12,-1.1007,-1.0676,-1.0064,-0.9472,-0.898,-0.9169,-0.8778,-0.7925,-0.6577,-0.5494,-0.4583,-0.3936,0.0,0.0,-0.2809,-0.0817,0.1542,0.1993,0.5105,0.8463,0.9667,1.1119,0.0,1.1707,1.1172,1.0318,0.0,0.7287,0.6435,0.0,0.0,0.0,0.0,0.0,0.0,0.0,0.0,0.0,0.0,0.0,0.0,0.0,-0.2302,-0.2781,-0.2697,-0.3578,-0.4304,-0.4824,-0.5202,-0.559,-0.5993,-0.6321,-0.6547,-0.6664,-0.6934,-0.6935,-0.6669,-0.6419,-0.648,-0.679,-0.6313,-0.6283,-0.6565,-0.6129,-0.6199,-0.6573,-0.6137,-0.6374,-0.7047,-0.7047,-0.7092,-0.7107,-0.7177,-0.7207,-0.7231,-2.086,-2.0613,-2.0273,-1.9711,-1.971,-1.9603,-1.9031,-1.8752,-1.8721,-1.905,-1.9107,-1.9216,-1.9488,-1.9368,-1.9049,-1.851,-1.8286,-1.8029,-1.7681,-1.7436,-1.7295,-1.7206,-1.6873,-1.6409,-1.5841,-1.5825,-1.546,-1.468,-1.4736,-1.4329,-1.3609,-1.3319,-1.3057,-1.2774,-1.2565,-1.2295,-1.1962,-1.1808,-1.1746,-1.1788,-1.1099,-1.0561,-1.0136,-0.944,-0.8824,-0.8385,-0.8486,-0.7875,-0.6924,-0.5998,-0.4994,0.0,-0.3503,-0.2845,-0.2286,0.0,-0.0595,0.0862,0.1679,0.389,0.0,0.6654,0.0,0.0,0.0,0.6302,0.6074,0.3424,0.2978,0.3219,0.3486,0.2806,0.0,0.0,0.0,0.0,0.0,0.0,0.0,0.0,0.0,0.0,0.0,-0.2645,-0.2929,-0.2993,-0.3639,-0.4246,-0.4802,-0.4952,-0.5292,-0.5868,-0.5951,-0.6022,-0.6201,-0.6246,-0.6245,-0.6186,-0.6012,-0.606,-0.6252,-0.5983,-0.5952,-0.6137,-0.5765,-0.5742,-0.599,-0.571,-0.5859,-0.6283,-0.6656,-0.6626,-0.6437,-0.6688,-0.6709,-0.6607,-2.1392,-2.1128,-2.0802,-2.0349,-2.0393,-2.0431,-2.0148,-1.978,-1.9642,-1.9859,-1.9761,-1.9668,-1.9656,-1.9512,-1.9417,-1.9422,-1.887,-1.8733,-1.9119,-1.8546,-1.8092,-1.7949,-1.7779,-1.722,-1.6098,-1.6657,-1.6463,-1.5408,-1.5377,-1.4947,-1.4093,-1.3478,-1.3126,-1.2953,-1.2707,-1.2443,-1.2157,-1.1979,-1.1965,-1.1986,-1.0717,-1.0053,-0.9631,-0.8957,-0.8328,-0.7801,-0.7553,-0.6947,-0.6096,-0.5412,-0.4502,-0.3582,-0.3088,-0.2464,0.0,0.0,0.0,0.0,0.0,0.0,0.0,0.0,0.0,0.4905,0.0,0.0,0.0,-0.165,-0.1315,-0.028,0.0067,-0.0173,0.0,0.0,0.0,0.0,0.0,0.0,0.0,0.0,0.0,0.0,0.0,-0.2737,-0.2909,-0.3173,-0.3615,-0.4136,-0.4735,-0.4679,-0.5009,-0.5815,-0.5611,-0.5629,-0.5882,-0.5661,-0.5609,-0.5711,-0.5628,-0.5642,-0.5686,-0.5655,-0.5672,-0.5797,-0.5515,-0.546,-0.5491,-0.546,-0.5428,-0.5491,-0.6137,-0.6106,-0.5811,-0.6229,-0.6245,-0.6106,-2.2311,-2.2426,-2.2294,-2.1167,-2.1158,-2.1348,-2.1541,-2.0466,-1.9642,-1.9503,-1.9737,-1.9926,-1.9811,-1.9656,-1.971,-2.0042,-1.9495,-1.945,-2.0341,-1.9763,-1.9362,-1.9181,-1.8957,-1.829,-1.7144,-1.7002,-1.6773,-1.6421,-1.5325,-1.4741,-1.4581,-1.3672,-1.2958,-1.2565,-1.2735,-1.2392,-1.1784,-1.2272,-1.1927,-1.1019,-1.0539,-1.0441,-1.0502,-0.9863,-0.8844,-0.7677,-0.6703,-0.6284,-0.5955,0.0,-0.3833,-0.3675,0.0,-0.201,-0.1247,-0.1425,0.0,0.0,0.0,0.0,0.0,0.0,0.3102,0.0,0.2916,0.0,0.0457,-0.148,0.0,-0.2094,-0.1983,0.0,0.0,0.0,0.0,0.0,0.0,0.0,0.0,0.0,0.0,0.0,0.0,0.0,-0.2504,-0.2413,-0.3164,-0.3609,-0.3615,-0.4125,-0.476,-0.5514,-0.5789,-0.6132,-0.6501,-0.6467,-0.6188,-0.5711,-0.5411,-0.5298,-0.534,-0.5112,-0.5169,-0.5446,-0.5226,-0.5295,-0.5491,-0.5232,-0.5131,-0.5163,-0.5484,-0.5585,-0.5554,-0.5617,-0.5617,-0.5617,-2.3274,-2.3063,-2.2893,-2.2269,-2.2409,-2.2591,-2.2562,-2.2004,-2.1408,-2.0914,-2.065,-2.0539,-2.0811,-2.0498,-2.0241,-2.0382,-2.0035,-1.9797,-1.9818,-1.9688,-1.95,-1.9279,-1.9407,-1.8933,-1.7795,-1.8091,-1.7845,-1.7038,-1.6124,-1.5488,-1.5124,-1.3834,-1.3067,-1.283,-1.2613,-1.2447,-1.2352,-1.2298,-1.2204,-1.2041,-1.136,-1.0947,0.0,-0.9104,-0.7873,-0.6756,-0.6124,-0.5433,-0.4751,0.0,-0.3101,0.0,0.0,0.0,0.0,-0.0486,0.0,0.0,0.0,0.0,0.0,0.0,0.0,0.0,-0.0649,0.0,-0.2778,0.0,0.0,0.0,0.0,0.0,0.0,0.0,-0.3511,0.0,0.0,0.0,0.0,0.0,0.0,0.0,0.0,0.0,0.0,0.0,0.0,-0.3435,-0.3568,-0.3832,-0.4355,-0.5173,-0.5351,-0.5689,-0.6228,-0.611,-0.583,-0.5462,-0.5578,-0.5327,-0.4829,-0.5131,-0.5176,-0.5055,-0.496,-0.4992,-0.5093,-0.496,-0.4928,-0.4928,-0.5055,-0.5182,-0.5295,-0.546,-0.5491,-0.5522,-2.4579,-2.41,-2.3695,-2.3233,-2.3365,-2.3381,-2.2991,-2.2904,-2.2694,-2.2035,-2.1465,-2.1202,-2.1427,-2.1262,-2.1104,-2.0994,-2.0853,-2.0612,-2.0325,-2.0213,-2.0013,-1.9734,-2.0055,-1.9687,-1.8422,-1.8914,-1.8618,-1.7641,-1.6576,-1.5875,-1.5464,-1.3926,-1.3106,-1.2916,-1.2576,-1.251,-1.2617,-1.2392,-1.2406,-1.2381,-1.159,-1.0609,-0.955,-0.8128,-0.7025,-0.615,-0.5605,-0.4776,-0.3855,-0.2928,-0.2584,0.0,-0.118,0.0,-0.0825,0.0,0.0,0.0,0.1392,0.0,0.0,0.0,0.0,0.0,0.0,0.0,0.0,0.0,0.0,0.0,0.0,0.0,-0.8723,-0.7499,0.0,-0.5392,0.0,0.0,0.0,0.0,0.0,0.0,0.0,0.0,0.0,0.0,-0.2906,0.0,-0.3344,-0.3476,-0.3869,-0.4744,-0.4836,-0.514,-0.5712,-0.5533,-0.5321,-0.5101,-0.5403,-0.5117,-0.4357,-0.4848,-0.4914,-0.4646,-0.4646,-0.471,-0.4812,-0.4812,-0.4806,-0.4806,-0.4672,-0.4794,-0.5068,-0.5239,-0.5309,-0.5309,-2.6489,-2.5822,-2.5029,-2.404,-2.3716,-2.331,-2.2551,-2.279,-2.2844,-2.2175,-2.1941,-2.167,-2.1055,-2.1825,-2.2299,-2.2266,-2.2097,-2.2375,-2.3132,-2.2114,-2.1427,-2.1153,-2.1251,-2.0678,-1.9228,-1.9044,-1.8759,-1.8154,-1.642,-1.5494,-1.5464,-1.3926,-1.2949,-1.2518,-1.2702,-1.2577,-1.2281,-1.2911,-1.2323,-1.1043,-1.0558,-0.9075,-0.7247,0.0,-0.6895,-0.61,-0.5226,0.0,0.0,-0.297,-0.2348,0.0,0.0,0.0,0.0,0.0,0.0,0.0,0.0,0.0,0.0,0.2233,0.0,0.0,0.0,0.0,-0.401,0.0,0.0,0.0,-1.0561,-1.1261,-1.0987,-0.8872,-0.7956,0.0,0.0,0.0,0.0,0.0,0.0,0.0,0.0,0.0,0.0,-0.2059,-0.2055,-0.2188,-0.2504,-0.2857,-0.3341,-0.4089,-0.4439,-0.4744,-0.5048,-0.5043,-0.4895,-0.4618,-0.4649,-0.4393,-0.3925,-0.3925,-0.4054,-0.421,-0.421,-0.4441,-0.4812,-0.4812,-0.4832,-0.4858,-0.4403,-0.45,-0.4884,-0.4838,-0.4812,-0.4838,-2.692,-2.6419,-2.5803,-2.5018,-2.468,-2.4326,-2.3675,-2.3746,-2.3687,-2.3363,-2.3229,-2.3193,-2.3339,-2.3506,-2.376,-2.4249,-2.3631,-2.3147,-2.303,-2.2935,-2.2326,-2.1131,-2.1704,-2.1439,-2.0124,-1.9724,-1.928,-1.8722,-1.6915,-1.5842,-1.5464,-1.3926,-1.2939,-1.248,-1.2473,-1.252,-1.2599,-1.2299,-1.2084,-1.1825,-1.0254,-0.8733,-0.7311,0.0,0.0,-0.5496,-0.4615,-0.3677,0.0,-0.1789,-0.1409,-0.1078,-0.0281,-0.0055,0.0108,0.0907,0.145,0.0,0.0,0.0,0.2663,0.2172,0.0,0.0,0.0,0.0,0.0,0.0,0.0,0.0,0.0,-1.4194,-1.4232,-1.149,-1.0163,-0.8872,0.0,0.0,0.0,0.0,0.0,0.0,0.0,0.0,0.0,-0.2861,-0.2409,-0.2161,0.0,-0.2322,-0.2672,-0.324,-0.3369,-0.3591,-0.3986,-0.4343,-0.4314,-0.396,-0.4559,-0.4437,-0.3717,-0.4011,-0.4045,-0.3881,-0.3881,-0.4075,-0.4409,-0.4248,-0.4473,-0.4858,-0.428,-0.4307,-0.459,-0.4205,-0.4377,-0.4812,-2.7348,-2.6905,-2.6385,-2.5705,-2.5169,-2.4726,-2.4416,-2.4449,-2.4589,-2.4637,-2.4231,-2.4025,-2.4354,-2.4146,-2.404,-2.4341,-2.4068,-2.3689,-2.3433,-2.3248,-2.2775,-2.1784,-2.1961,-2.1682,-2.0822,-2.0156,-1.9453,-1.8803,-1.7116,-1.5919,-1.5167,-1.3844,-1.2939,-1.248,-1.2431,-1.2443,-1.2518,-1.1847,-1.1614,-1.1682,-0.9621,-0.8267,0.0,0.0,-0.566,-0.5167,0.0,-0.3292,-0.2127,-0.151,-0.0951,-0.0448,0.0336,0.0442,0.0488,0.1461,0.1917,0.2207,0.2634,0.2952,0.0,0.2106,0.1647,0.0,-0.0153,0.0,0.0,0.0,0.0,0.0,0.0,-1.4441,-1.5193,-1.3714,-1.2169,-1.0374,0.0,-0.6614,0.0,0.0,0.0,0.0,0.0,0.0,-0.3031,-0.2967,-0.2171,-0.1729,0.0,0.0,-0.2008,-0.2308,-0.2443,-0.262,-0.275,-0.3284,-0.3378,-0.3075,-0.3686,-0.3725,-0.3238,-0.3525,-0.3565,-0.342,-0.3488,-0.3719,-0.4038,-0.3951,-0.4242,-0.473,-0.4086,-0.4048,-0.4333,-0.4043,-0.4248,-0.4646,-2.7871,-2.7434,-2.6875,-2.6104,-2.5214,-2.4645,-2.4636,0.0,-2.5375,-2.5879,-2.4953,-2.4181,-2.4198,-2.3798,-2.3346,-2.2911,-2.3555,-2.4069,-2.4393,-2.3344,-2.2817,-2.3055,-2.2042,-2.1402,-2.118,-2.0308,-1.9382,-1.8434,-1.7004,-1.5753,-1.4718,-1.3662,-1.2939,-1.248,-1.248,-1.2406,-1.2158,-1.1604,-1.1044,-1.0308,-0.8601,-0.7633,-0.7149,-0.5828,0.0,-0.5171,-0.4398,-0.3292,-0.2127,-0.2015,-0.1064,0.0056,0.0056,0.0449,0.1009,0.1679,0.2348,0.2794,0.2406,0.2787,0.3088,0.1972,0.0,0.0,0.0,0.0,-0.0265,0.0,0.0,0.0,0.0,0.0,-1.4116,-1.5439,-1.3939,-1.1507,-0.8443,-0.7107,-0.6199,0.0,0.0,-0.4192,-0.4003,-0.2978,-0.2387,-0.2342,-0.1341,-0.0942,0.0,0.0,0.0,-0.1293,-0.1739,-0.1739,-0.1293,-0.1739,-0.201,-0.201,-0.2055,-0.2227,-0.2553,-0.2441,-0.2552,-0.2883,-0.3056,-0.3401,-0.3764,-0.3849,-0.4145,-0.45,-0.3756,-0.3723,-0.4108,-0.4318,-0.4388,-0.435,-2.9066,-2.8858,-2.8357,-2.7219,-2.5951,-2.5179,0.0,0.0,0.0,0.0,-2.5423,-2.5452,-2.5289,-2.5009,-2.4969,-2.5294,-2.488,-2.4623,-2.4639,-2.4248,-2.3603,-2.2607,-2.245,-2.1956,-2.1068,-2.0409,-1.9649,-1.8697,-1.7105,-1.5903,-1.511,-1.3807,-1.2939,-1.248,-1.248,-1.2406,-1.2158,-1.1116,-0.9969,-0.8833,-0.814,-0.7461,0.0,0.0,-0.5062,-0.4625,-0.3852,-0.2794,-0.1734,-0.1454,-0.0503,0.0561,0.0617,0.0785,0.1121,0.2179,0.2625,0.2847,0.3408,0.3666,0.3509,0.23,0.1954,0.1746,0.0,0.0,0.0,0.0,0.0,0.0,0.0,0.0,0.0,-1.633,-1.396,-1.1373,-0.9653,-0.8098,0.0,-0.6704,0.0,-0.4576,-0.3797,-0.2605,-0.1857,-0.1889,-0.0764,-0.0149,0.0,0.0,0.0,0.0179,0.0045,0.0045,0.0179,-0.0312,-0.0714,-0.1072,-0.1428,-0.1745,-0.209,-0.2026,-0.2163,-0.2388,-0.2499,-0.2874,-0.3416,-0.3331,-0.3658,-0.4172,-0.3532,-0.3467,-0.3761,-0.4026,-0.3961,-0.3826,-2.9958,-2.9484,-2.8939,-2.8687,0.0,0.0,-2.5863,-2.6025,0.0,-2.5976,-2.5571,0.0,-2.5383,-2.4736,-2.436,-2.4554,-2.4276,0.0,-2.4249,-2.3894,-2.3393,-2.2795,-2.2456,-2.1944,-2.1118,-2.0523,-1.9623,-1.8534,-1.7038,-1.5841,-1.4923,-1.3751,-1.2939,-1.248,-1.248,-1.2354,-1.2006,-1.0672,-0.9342,-0.8117,-0.7842,-0.7253,0.0,-0.5605,-0.4952,-0.4408,-0.3747,-0.2685,-0.1566,-0.1398,-0.0392,0.0729,0.0785,0.0842,0.1121,0.2347,0.2681,0.2903,0.3685,0.3744,0.3392,0.2513,0.223,0.1975,0.1249,0.1127,0.0842,0.0,0.0,0.0,0.0,0.0,0.0,-1.6719,-1.4993,-1.2742,-1.089,0.0,0.0,0.0,-0.5561,0.0,-0.3284,-0.2458,-0.1915,-0.1697,-0.084,0.0,0.0,0.0,0.0,0.1254,0.0895,0.0895,0.1252,0.0625,0.0179,-0.0089,-0.0357,-0.0794,-0.1377,-0.1308,-0.1488,-0.1834,-0.2015,-0.2318,-0.2695,-0.2805,-0.3097,-0.3453,-0.3105,-0.3175,-0.3438,-0.3602,-0.3635,-0.3597,-3.0901,-3.011,-2.9532,-3.0208,-2.8918,0.0,0.0,-2.6698,0.0,-2.7132,0.0,-2.4789,-2.507,-2.389,-2.2934,-2.2649,-2.2963,-2.3271,-2.3591,-2.2962,-2.2751,-2.3197,-2.2323,-2.1575,-2.1073,-2.0468,-1.9468,-1.8147,-1.6842,-1.5665,-1.4549,-1.3627,-1.2939,-1.248,-1.248,-1.2175,-1.156,-1.0328,-0.904,-0.7901,-0.7628,-0.7133,-0.648,-0.5605,-0.4952,-0.4408,-0.3805,-0.2796,-0.1733,-0.1621,-0.0671,0.0561,0.0617,0.0785,0.1121,0.2235,0.2625,0.2847,0.3516,0.3408,0.2965,0.2575,0.2352,0.2087,0.1571,0.1872,0.1987,0.0877,-0.0284,0.0,0.0,0.0,0.0,-1.6443,-1.6245,0.0,0.0,0.0,0.0,0.0,0.0,0.0,-0.3007,-0.2477,-0.1949,-0.1425,-0.0799,0.0,0.0,0.0,0.0,0.0,0.1429,0.0,0.2144,0.0,0.0984,0.085,0.085,0.0402,-0.0536,-0.0473,-0.0699,-0.121,-0.1608,-0.1809,-0.1935,-0.2374,-0.2606,-0.2699,-0.2643,-0.2808,-0.3072,-0.3109,-0.3241,-0.3401,-3.2624,-3.2621,-3.2318,-3.1149,-3.0614,-2.9961,-2.8788,-2.8153,-2.7682,-2.7442,-2.6505,-2.5895,-2.5817,-2.4536,-2.3566,-2.3421,-2.3304,0.0,0.0,0.0,0.0,-2.2726,-2.2147,-2.1336,-2.0374,-1.9917,-1.9072,-1.7772,-1.6445,-1.5506,-1.4892,-1.3758,-1.2939,-1.248,-1.248,-1.171,-1.032,-0.9814,0.0,-0.7901,-0.7628,-0.7133,-0.648,-0.5605,-0.4952,-0.4408,-0.3805,-0.3132,-0.2402,-0.1789,-0.1064,-0.0336,0.028,0.0561,0.0897,0.1567,0.2235,0.2736,0.3016,0.3016,0.2852,0.2575,0.2462,0.235,0.2087,0.2484,0.2763,0.2033,0.1344,-0.0208,-0.3571,0.0,0.0,0.0,0.0,0.0,0.0,0.0,0.0,0.0,0.0,-0.3586,0.0,-0.2255,-0.0685,0.0212,0.1361,0.0,0.0,0.0,0.0,0.0,0.0,0.0,0.0,0.0,0.0,0.1786,0.1786,0.1295,0.0447,0.0089,-0.0338,-0.0742,-0.1241,-0.165,-0.2011,-0.248,-0.2679,-0.2676,-0.2338,-0.2236,-0.2335,-0.2676,-0.261,-0.2435,-3.3786,-3.3437,-3.294,-3.2031,0.0,0.0,0.0,-2.882,0.0,-2.7157,-2.6094,-2.5149,-2.4567,-2.383,-2.3134,-2.2607,-2.2426,-2.242,-2.2586,-2.2019,-2.177,-2.2069,-2.1307,-2.0548,-1.9793,-1.935,-1.8714,-1.7797,-1.6396,-1.5462,-1.4982,-1.3758,-1.2939,-1.248,-1.195,-1.1082,-0.9961,0.0,0.0,-0.7901,-0.7628,-0.7133,-0.648,-0.5605,-0.4952,-0.4408,-0.3805,-0.3413,-0.3019,-0.2014,-0.1231,-0.0561,0.0112,0.0393,0.0673,0.1286,0.19,0.2571,0.3014,0.2959,0.2794,0.274,0.2517,0.2348,0.2348,0.2796,0.3132,0.2571,0.1953,0.0362,-0.3544,-0.9546,0.0,0.0,0.0,0.0,0.0,0.0,-0.8986,0.0,0.0,0.0,0.0,0.0,0.0,0.0,0.0,0.0,0.0,0.0,0.0,0.0,0.0,0.0,0.0,0.0,0.0,0.2769,0.2663,0.2186,0.1385,0.1162,0.0554,-0.0313,-0.0627,-0.1037,-0.1444,-0.1744,-0.2078,-0.2341,-0.1973,-0.1937,-0.2137,-0.2305,-0.2272,-0.2178,-3.4537,-3.38,-3.3158,-3.2755,-3.1399,0.0,-3.0576,-2.9293,-2.7951,-2.7047,-2.5556,-2.4306,-2.3508,-2.3056,-2.2475,-2.1734,-2.1585,-2.1647,-2.201,-2.1347,-2.1137,-2.1614,-2.0726,-1.9945,-1.9445,-1.8959,-1.8369,-1.7691,-1.6459,-1.5545,-1.5039,-1.3993,-1.317,-1.2559,0.0,0.0,0.0,0.0,-0.8725,-0.8002,-0.7628,-0.7192,-0.6647,-0.5664,-0.5062,-0.457,-0.3858,-0.3585,-0.3416,-0.2348,-0.1511,-0.0841,-0.0224,0.0168,0.0449,0.0952,0.1623,0.2294,0.2845,0.2847,0.2683,0.2683,0.2517,0.2348,0.2456,0.2961,0.3302,0.2959,0.2399,0.0942,-0.2537,-0.7619,0.0,0.0,0.0,0.0,0.0,0.0,0.0,0.0,0.0,0.0,0.1439,0.0,0.0,0.0,0.0,0.3248,0.4543,0.4513,0.0,0.0,0.0,0.0,0.5736,0.0,0.4424,0.0,0.3624,0.3057,0.2144,0.1964,0.1286,0.0199,-0.0118,-0.056,-0.1061,-0.1095,-0.1469,-0.1972,-0.1615,-0.164,-0.1907,-0.1998,-0.1972,-0.1989,0.0,-3.4431,0.0,0.0,0.0,0.0,-3.1079,-2.992,-2.882,-2.7834,-2.5885,-2.4558,-2.4455,-2.3038,-2.2055,-2.1955,-2.168,-2.1615,-2.1913,-2.16,-2.1505,-2.17,-2.1208,-2.0464,-1.9512,-1.903,-1.824,0.0,-1.6516,-1.5925,-1.5254,-1.4789,-1.4003,0.0,0.0,0.0,0.0,-0.9821,-0.9145,-0.8468,-0.7783,-0.7413,-0.7095,-0.5773,-0.5281,-0.5062,-0.3968,-0.3585,-0.3527,-0.285,-0.2179,-0.1567,-0.1009,-0.0336,0.0224,0.028,0.1176,0.2127,0.1845,0.2127,0.2464,0.2183,0.246,0.2794,0.2567,0.2961,0.3411,0.3516,0.3014,0.2382,0.1512,-0.3141,-0.8075,0.0,0.0,0.0,0.0,0.0,-0.8565,-0.0677,0.0,0.0,0.0,0.456,0.0,0.0,0.5318,0.4995,0.6804,0.6834,0.0,0.7247,0.0,0.7753,0.771,0.677,0.0,0.476,0.4738,0.4009,0.2595,0.1964,0.1349,0.0873,-0.008,-0.0913,-0.1587,-0.1303,-0.1411,-0.1687,-0.1302,-0.1177,-0.1252,-0.1595,-0.1553,-0.135,0.0,0.0,0.0,0.0,0.0,0.0,0.0,-2.9677,-2.8387,-2.6876,-2.5631,-2.464,-2.4003,-2.2805,-2.1886,-2.1443,-2.1237,-2.1317,-2.1698,-2.113,-2.0901,-2.1212,-2.0365,-1.9682,-1.9151,-1.8613,-1.8018,0.0,0.0,-1.6051,-1.5567,-1.4606,0.0,0.0,0.0,-1.0956,-1.0549,-0.9873,-0.9197,-0.8573,-0.8209,-0.7735,-0.7203,-0.6209,-0.5823,-0.5719,-0.457,-0.4135,-0.4021,-0.3466,-0.2571,-0.1679,-0.1065,-0.0449,0.0056,0.0056,0.0784,0.1513,0.1454,0.1959,0.2464,0.246,0.2625,0.2792,0.285,0.3183,0.3463,0.3352,0.3072,0.2959,0.34,-0.0831,-0.4277,0.0,0.0,0.0,0.0,0.0,0.0,0.27,0.0,0.4435,0.0,0.0,0.9636,1.1423,0.0,0.7908,0.8899,0.9224,0.0,0.8918,0.0,0.9313,0.8265,0.7873,0.7156,0.6031,0.5481,0.4763,0.4009,0.3018,0.2006,0.0962,0.008,-0.0505,-0.08,-0.0878,-0.0991,-0.1103,-0.1195,-0.1224,-0.1227,-0.1402,-0.1375,-0.1264,-3.4432,0.0,-3.2583,0.0,-3.1243,-3.0707,-3.0208,-2.9437,-2.828,-2.6398,-2.5572,-2.4691,-2.3441,-2.2427,-2.1617,-2.1071,-2.0942,-2.1083,-2.1458,-2.0866,-2.06,-2.0901,-2.0029,0.0,-1.9132,-1.8602,-1.8147,-1.7733,-1.6993,0.0,0.0,0.0,0.0,0.0,-1.141,-1.0956,-1.0753,-1.0028,-0.9347,-0.8725,-0.8415,-0.7836,-0.7144,-0.6485,-0.6209,-0.6046,-0.5062,-0.4625,-0.4408,-0.3968,-0.2963,-0.1903,-0.1288,-0.056,0.0112,0.0112,0.0617,0.1178,0.1119,0.1792,0.2464,0.2237,0.2458,0.2792,0.3072,0.335,0.3516,0.3461,0.3569,0.3898,0.4728,0.1602,-0.0579,0.0,0.0,0.0,0.0,0.0,0.0,0.0,0.7289,0.0,1.1027,1.1713,1.2838,0.0,0.0,0.0,1.1816,0.0,0.0,0.0,0.0,0.0,0.0,0.0,0.8439,0.7267,0.6471,0.5669,0.4844,0.3494,0.2182,0.1005,0.0247,-0.0122,-0.0241,-0.0481,-0.0602,-0.0601,-0.0988,-0.114,-0.1142,-0.1238,-0.1283,-0.1283,-3.2315,-3.1904,-3.1617,-3.1272,-3.1195,-3.081,-2.9691,-2.95,-2.8826,-2.704,-2.593,-2.4666,-2.3,-2.1838,-2.118,-2.1102,-2.0975,-2.1007,-2.1183,-2.1087,-2.0942,0.0,0.0,-2.0254,-1.969,-1.9273,-1.8616,-1.7585,0.0,0.0,-1.5988,0.0,0.0,-1.257,-1.1959,-1.1528,-1.1217,-1.0379,-0.9703,-0.9124,-0.8243,-0.7557,-0.7025,-0.6426,-0.6209,-0.61,-0.5496,-0.4952,-0.446,-0.4236,-0.3461,-0.2408,-0.179,-0.0672,0.0393,0.0393,0.0842,0.1234,0.0842,0.1569,0.2242,0.1177,0.1902,0.2959,0.3065,0.3239,0.3577,0.407,0.4886,0.5538,0.5751,0.4772,0.2821,-0.0416,0.0,0.0,0.0,0.0,0.0,0.9978,0.0,0.0,1.1904,1.3442,0.0,0.0,0.0,0.0,0.0,0.0,0.0,1.4997,1.4344,0.0,1.334,1.1253,0.9588,0.8473,0.7942,0.6711,0.4839,0.29,0.1703,0.1177,0.0484,0.0,-0.0294,-0.0294,-0.0294,-0.0335,-0.0601,-0.0707,-0.0751,-0.1155,-0.13,-0.1258,-3.2392,-3.1499,-3.0854,-3.0734,-3.0664,-3.0544,-3.0173,-3.0008,-2.9075,-2.676,-2.6153,-2.5229,-2.3463,-2.2504,-2.1986,0.0,-2.1764,-2.1658,0.0,-2.1509,-2.1293,-2.0975,-2.0679,-2.0289,-1.9762,-1.9325,-1.8784,-1.8094,0.0,0.0,0.0,-1.4433,-1.3437,-1.2463,-1.1909,-1.1427,-1.1023,-1.071,-1.0131,-0.9302,-0.8718,-0.809,-0.7456,-0.6972,-0.681,-0.6756,-0.6154,-0.5664,-0.5336,-0.4842,-0.379,-0.2627,-0.2402,-0.1342,-0.0056,0.028,0.0617,0.0842,0.0729,0.1344,0.1959,0.1624,0.2237,0.2961,0.307,0.335,0.3959,0.5391,0.5651,0.586,0.6563,0.6961,0.6639,0.4987,0.0,0.0,0.0,0.0,0.0,0.0,0.0,0.0,0.0,1.7913,0.0,0.0,0.0,0.0,0.0,0.0,0.0,0.0,1.4943,0.0,1.3129,1.1952,1.0783,0.9662,0.8677,0.7042,0.4718,0.3546,0.2504,0.1581,0.1203,0.0757,0.0352,0.0132,0.0044,0.0,-0.0346,-0.0516,-0.0517,-0.0654,-0.0701,-0.0658,-3.1646,-3.0864,-3.0227,-2.9771,-2.9934,-2.9965,-2.9542,-2.9355,-2.858,-2.664,-2.6034,-2.523,-2.3775,-2.3105,0.0,-2.2463,-2.232,-2.2136,-2.1911,-2.1738,-2.1464,-2.1039,-2.0795,-2.041,-1.9762,0.0,0.0,-1.8254,-1.7516,-1.6386,-1.5017,-1.4387,-1.3579,-1.2618,-1.1959,-1.1477,-1.1124,-1.0718,-1.0087,-0.9361,-0.8995,-0.8521,-0.7883,-0.7402,-0.7187,-0.7079,-0.6426,-0.5937,-0.5555,-0.512,-0.4122,-0.3014,-0.2734,-0.1845,-0.0784,0.0,0.0336,0.0505,0.0729,0.1288,0.179,0.1846,0.2404,0.3074,0.3519,0.4122,0.4944,0.6159,0.6735,0.7197,0.7847,0.8731,0.9475,0.9779,0.0,1.4001,1.5108,0.0,0.0,0.0,0.0,0.0,0.0,2.0541,0.0,0.0,0.0,0.0,0.0,0.0,0.0,1.7542,1.6348,0.0,1.4044,1.2969,1.1944,1.0832,0.9283,0.754,0.552,0.4401,0.3316,0.2336,0.1668,0.1256,0.0943,0.0539,0.0405,0.036,-0.0045,-0.0179,-0.0179,-0.0358,-0.0268,-0.0089,-3.0261,-3.0098,0.0,0.0,-2.9136,0.0,-2.8214,-2.7987,-2.7613,-2.6677,-2.5745,-2.4835,-2.393,-2.3631,-2.3282,-2.2822,0.0,0.0,0.0,-2.184,-2.157,-2.1103,-2.1055,0.0,-1.9782,-1.9681,-1.9169,-1.8228,-1.706,-1.5976,-1.4937,-1.4536,-1.3826,-1.2967,-1.2107,-1.1619,-1.1418,-1.0403,-0.9784,-0.9413,-0.9106,-0.8791,-0.8368,-0.761,-0.7343,-0.7182,-0.6534,-0.5882,-0.5336,-0.5179,-0.446,-0.3514,-0.2845,-0.2291,-0.1623,-0.0392,-0.0056,0.0112,0.0673,0.1288,0.179,0.1903,0.2517,0.3352,0.4349,0.5391,0.6263,0.6485,0.7966,0.928,0.9481,1.012,1.1379,1.3569,1.4004,1.5691,2.0351,0.0,0.0,0.0,0.0,0.0,0.0,2.1659,2.2842,0.0,0.0,0.0,0.0,0.0,1.9774,2.0092,1.8251,1.6774,1.58,1.4247,1.2977,1.1911,0.9751,0.818,0.7085,0.5357,0.4154,0.3328,0.2064,0.1485,0.1344,0.0943,0.0719,0.0674,0.036,0.0225,0.018,-0.0134,0.0045,0.0537,0.0,0.0,-3.0007,-2.9737,-2.9807,-2.9815,-2.9538,-2.8889,-2.8124,-2.7225,-2.6244,-2.53,-2.443,-2.4248,-2.3999,-2.3566,-2.3141,-2.2848,-2.2669,-2.2485,-2.2231,-2.1849,-2.1582,-2.1181,-2.063,-2.0189,-1.9464,-1.8436,-1.7284,-1.6343,-1.5652,-1.4698,-1.3884,-1.3266,-1.2157,-1.1469,-1.1057,-1.03,-0.9836,-0.951,-0.9159,-0.8896,-0.8672,-0.8156,-0.7622,-0.7133,-0.6972,-0.6381,-0.5681,-0.5626,-0.4853,-0.3855,-0.3685,-0.313,-0.224,-0.1063,-0.0336,0.0056,0.0168,0.0729,0.1289,0.129,0.2291,0.3569,0.4849,0.5673,0.647,0.7475,0.8482,0.9481,1.045,1.1951,1.3242,1.3811,1.6467,1.9074,2.0753,2.2797,0.0,0.0,2.4722,2.479,2.3932,2.3743,2.3755,0.0,0.0,0.0,0.0,0.0,2.0716,2.0143,1.8584,1.7467,1.6872,1.524,1.3663,1.2087,1.0185,0.9032,0.8386,0.6502,0.5108,0.4094,0.324,0.2322,0.1389,0.13,0.1032,0.0674,0.0629,0.0584,0.0629,0.0896,0.1074,0.1208,-3.0302,-3.0259,-3.0131,-2.9761,-2.9954,-3.0035,-2.9603,-2.877,-2.7998,-2.7418,-2.618,-2.5148,-2.465,-2.4513,-2.4375,-2.4154,-2.3656,-2.3253,-2.2972,-2.2797,-2.2512,-2.2164,-2.1965,-2.1535,-2.0764,-2.0481,-1.9687,-1.833,-1.7284,-1.6441,-1.584,-1.4858,-1.4093,-1.3515,-1.2491,-1.185,-1.1501,-1.0854,-1.0285,-0.9865,-0.9614,-0.9302,-0.8942,-0.8362,-0.7777,-0.7133,-0.681,-0.6218,-0.5576,-0.5517,-0.4908,-0.4187,-0.3852,-0.3244,-0.2521,-0.1566,-0.0839,-0.0224,0.0224,0.0729,0.1346,0.1958,0.3178,0.4512,0.5555,0.6263,0.7063,0.8324,0.9363,1.0442,1.172,1.3199,1.4709,1.5986,1.8391,2.0637,2.2162,2.3857,0.0,2.5452,2.5738,2.5725,2.5243,2.4873,2.4553,2.4313,0.0,0.0,2.2934,2.2161,2.128,2.0143,1.8927,1.782,1.681,1.5186,1.3623,1.2069,1.0894,0.9811,0.8795,0.7354,0.6064,0.4872,0.3995,0.3058,0.2159,0.1624,0.1256,0.0988,0.0764,0.0854,0.1033,0.1299,0.17,0.2144,-3.0507,-3.0461,-3.0202,-2.9525,-2.995,-3.0092,-2.9164,-2.8284,-2.7605,-2.7291,-2.5854,-2.4818,-2.4764,-2.4639,-2.4559,-2.4559,-2.4192,-2.372,-2.3189,-2.3038,-2.2772,-2.2358,-2.2303,-2.1816,-2.0813,-2.0583,-1.9748,-1.8224,-1.7271,-1.6484,-1.5876,-1.5062,-1.4419,-1.3905,-1.2909,-1.2374,-1.2255,-1.1501,-1.0846,-1.032,-1.032,-0.9917,-0.9204,-0.8606,-0.7919,-0.7182,-0.6534,-0.5832,-0.5242,-0.5128,-0.4794,-0.4353,-0.3624,-0.3074,-0.2577,-0.1903,-0.123,-0.0503,0.0336,0.1009,0.1792,0.2956,0.4343,0.5563,0.6199,0.7009,0.7919,0.9117,1.0434,1.1809,1.3087,1.4485,1.6236,1.8765,2.0058,2.1532,2.3794,0.0,2.564,2.5604,2.6493,2.665,2.5479,2.5357,2.5057,2.4343,2.3867,0.0,0.0,2.236,2.1486,2.0143,1.9291,1.805,1.6312,1.4925,1.3544,1.2083,1.1659,1.0632,0.9045,0.8094,0.6997,0.5736,0.4634,0.3826,0.3166,0.2092,0.1567,0.1478,0.1077,0.1166,0.1521,0.1611,0.2188,0.2898,-3.0498,-3.05,-3.0443,-3.0327,-3.0347,-3.0105,-2.9225,-2.8338,-2.7507,-2.6749,-2.5715,-2.5057,-2.5037,-2.4917,-2.4836,-2.4847,-2.4727,-2.4422,-2.3878,-2.3707,-2.3481,-2.306,-2.2825,-2.2364,-2.1615,-2.0483,-1.9543,-1.8779,-1.7706,-1.6854,-1.6225,-1.5522,-1.4994,-1.4525,-1.3283,-1.2716,-1.2628,-1.146,-1.0863,-1.0812,-1.0812,-1.0344,-0.971,-0.9607,-0.8554,-0.7079,-0.6858,-0.61,-0.5128,-0.4956,-0.4629,-0.4135,-0.3569,-0.3074,-0.2523,-0.1626,-0.1065,-0.0617,-0.0168,0.1174,0.2569,0.3016,0.4446,0.576,0.6032,0.7528,0.9117,0.9879,1.1777,1.3512,1.4325,1.6824,1.9121,2.0292,2.2041,2.3587,0.0,0.0,2.623,2.611,2.669,2.6845,2.6202,2.5484,2.4847,2.4343,2.3867,2.3187,2.2267,2.2128,2.1452,2.008,1.9552,1.8309,1.6312,1.6069,1.4858,1.2805,1.2181,1.1327,1.0216,0.8713,0.7736,0.7186,0.5619,0.4511,0.3815,0.2993,0.241,0.1966,0.1923,0.1921,0.2055,0.2499,0.2765,0.2943,-2.9405,-3.0041,-3.0366,-2.944,-3.0011,-3.0139,-2.8768,-2.8222,-2.7611,-2.6679,-2.5765,-2.5187,-2.516,-2.5077,-2.4998,-2.5013,-2.4902,-2.4727,-2.4403,-2.4229,-2.3963,-2.3649,-2.3312,-2.2608,-2.1491,-2.0452,-1.9579,-1.8846,-1.7733,-1.6828,-1.617,-1.5433,-1.4766,-1.4071,-1.3399,-1.2929,-1.2598,-1.2017,-1.1569,-1.1226,-1.1124,-1.0702,-1.0064,-0.9666,-0.8823,-0.7812,-0.7396,-0.6642,-0.5828,-0.5395,-0.5124,-0.4794,-0.3793,-0.3072,-0.2517,-0.2074,-0.1177,-0.0168,0.056,0.1732,0.2956,0.3947,0.4831,0.5869,0.7463,0.837,0.9445,1.1737,1.3044,1.4474,1.657,1.8339,2.0067,2.1798,2.3366,0.0,0.0,2.6409,2.6946,2.6951,2.6974,2.668,2.5922,2.5303,2.4648,2.3994,2.3724,2.3143,2.2175,2.2081,2.1452,2.0042,1.9097,1.8027,1.681,1.6073,1.5021,1.3648,1.281,1.1841,1.0598,0.9461,0.8534,0.7706,0.6551,0.5526,0.4546,0.3818,0.3178,0.2624,0.2252,0.2277,0.2544,0.281,0.3078,0.3306,-2.858,-2.942,-2.9828,-2.8613,-2.9406,-2.9686,-2.8145,-2.7853,-2.7484,-2.6521,-2.5786,-2.5345,-2.5302,-2.5245,-2.5207,-2.519,-2.5106,-2.4994,-2.4898,-2.471,-2.4416,-2.4003,-2.3361,-2.2443,-2.118,-2.0317,-1.9543,-1.8784,-1.7842,-1.7056,-1.6476,-1.568,-1.4926,-1.4278,-1.4104,-1.3658,-1.2976,-1.3353,-1.3092,-1.2378,-1.2106,-1.1656,-1.1035,-1.0012,-0.9138,-0.8376,-0.7824,-0.7187,-0.6426,-0.5782,-0.5508,-0.5285,-0.3959,-0.3125,-0.2569,-0.2125,-0.1064,0.0224,0.1398,0.2402,0.3345,0.4381,0.5316,0.6455,0.8469,0.9372,1.0573,1.3424,1.4662,1.6002,1.8673,1.9893,2.1165,2.3201,0.0,0.0,0.0,2.6782,2.7105,2.7368,2.6982,2.6403,2.5611,2.5166,2.4583,2.3809,2.3638,2.3231,2.2314,2.2175,2.1403,1.9901,1.8727,1.7809,1.7202,1.6016,1.5021,1.41,1.3235,1.2051,1.0615,1.0012,0.9092,0.7957,0.7222,0.636,0.5448,0.4573,0.3931,0.3449,0.2789,0.2801,0.3166,0.3166,0.34,0.3683,-2.8943,-2.869,-2.8534,-2.8964,-2.8672,-2.8164,-2.746,-2.7147,-2.6694,-2.5876,-2.5659,-2.5587,-2.5576,-2.5565,-2.555,-2.5476,-2.5456,-2.5457,-2.5434,-2.5303,-2.4847,-2.3948,-2.2633,-2.1635,-2.1023,-2.0054,-1.9295,-1.8784,-1.8404,-1.7986,-1.7576,-1.6897,-1.6467,-1.6291,-1.6065,-1.538,-1.444,-1.5934,-1.5967,-1.4943,-1.4311,-1.3749,-1.3095,-1.1426,-0.9755,-0.8277,-0.8125,-0.7337,-0.6327,-0.5555,-0.5222,-0.4944,-0.3796,-0.3244,-0.2738,-0.1061,-0.0391,0.0112,0.1566,0.3125,0.4184,0.3461,0.5887,0.8305,0.77,1.0656,1.3666,1.4228,1.6888,1.925,1.9829,2.1884,2.3716,2.4391,0.0,0.0,2.662,2.6227,2.606,2.668,2.6402,2.6031,2.5713,2.5214,2.4719,2.4302,2.3867,2.3377,2.2889,2.2374,2.1259,1.9512,1.8999,1.8224,1.7202,1.6528,1.5467,1.3912,1.3287,1.1973,1.0167,0.9852,0.9169,0.8229,0.7308,0.6826,0.6651,0.5363,0.4788,0.4685,0.4087,0.3886,0.3936,0.3936,0.3939,0.3988,-2.6884,-2.7629,-2.7923,-2.7082,-2.7631,-2.7751,-2.6445,-2.707,-2.7225,-2.5873,-2.5641,-2.5598,-2.5595,-2.5595,-2.5584,-2.5552,-2.5564,-2.5531,-2.5493,-2.5415,-2.4897,-2.3822,-2.2663,-2.1687,-2.0894,-2.009,-1.9337,-1.8675,-1.8471,-1.8127,-1.7698,-1.7315,-1.7052,-1.693,-1.6765,-1.6429,-1.6033,-1.6639,-1.6663,-1.6168,-1.4739,-1.41,-1.3749,-1.1453,-1.1035,-1.1644,-1.1163,-1.0433,-0.9571,-0.8952,-0.7506,-0.5878,-0.5113,-0.4288,-0.3007,-0.039,-0.0334,-0.0389,0.3419,0.4069,0.3999,0.5437,0.805,1.0514,1.1522,1.3718,1.5958,1.7665,1.9233,2.0737,2.2209,2.3139,2.3964,2.4826,0.0,2.5324,2.6174,2.5686,2.5536,2.6419,2.5949,2.543,2.5227,2.502,2.4623,2.3909,2.3421,2.292,2.242,2.167,2.066,1.942,1.9105,1.8452,1.7523,1.6311,1.5253,1.444,1.3191,1.2036,1.0907,1.0299,0.9597,0.8824,0.7901,0.7109,0.6443,0.5812,0.5123,0.4455,0.4106,0.4019,0.4019,0.4019,0.4019,0.4069,-2.5593,-2.6555,-2.7007,-2.5811,-2.6581,-2.6983,-2.5783,-2.6628,-2.6986,-2.5857,-2.5641,-2.5603,-2.5604,-2.5605,-2.5605,-2.5592,-2.5607,-2.5568,-2.5473,-2.5019,-2.4283,-2.3239,-2.234,-2.1316,-2.0126,-1.9662,-1.916,-1.8599,-1.8414,-1.8227,-1.7979,-1.7677,-1.7472,-1.7397,-1.7578,-1.7437,-1.7103,-1.7969,-1.8082,-1.7633,-1.6292,-1.5801,-1.5627,-1.3308,-1.3259,-1.44,-1.3955,-1.3331,-1.2677,-1.2157,-1.0669,-0.8808,-0.7459,-0.5362,-0.3109,-0.1332,-0.0664,0.0161,0.3298,0.5021,0.6342,0.7987,1.0205,1.2478,1.4446,1.6327,1.8222,2.0202,2.1179,2.2144,2.3708,2.3842,2.3937,2.4587,2.4562,2.4715,2.5427,2.4974,2.4999,2.6142,2.5537,2.4958,2.4918,2.4799,2.4379,2.3638,2.329,2.283,2.2128,2.1091,2.0118,1.9316,1.8672,1.7993,1.7203,1.5984,1.5279,1.4951,1.342,1.222,1.1415,1.0786,0.9923,0.903,0.8553,0.7738,0.6843,0.6577,0.5984,0.5222,0.4836,0.4668,0.4727,0.4777,0.4765,0.4778,-2.5596,-2.5596,-2.5596,-2.5596,-2.5596,-2.5609,-2.5593,-2.5599,-2.5615,-2.5695,-2.564,-2.5593,-2.5598,-2.5609,-2.5593,-2.5597,-2.5593,-2.5546,-2.5409,-2.4068,-2.2933,-2.2127,-2.1435,-2.0305,-1.8631,-1.8597,-1.8607,-1.8605,-1.8335,-1.8342,-1.8584,-1.8075,-1.7808,-1.7843,-1.87,-1.8482,-1.7594,-2.0259,-2.0701,-1.9588,-1.9449,-1.9354,-1.9112,-1.7431,-1.6437,-1.5924,-1.5924,-1.5582,-1.5067,-1.4749,-1.4533,-1.3853,-1.0696,-0.6487,-0.2973,-0.4149,-0.1248,0.2047,0.0813,0.608,1.1722,1.0848,1.2145,1.4086,1.566,1.8203,2.0459,2.1338,2.2623,2.367,2.3956,2.3995,2.3912,2.3639,2.3546,2.3717,2.4402,2.4085,2.4334,2.5813,2.5146,2.4664,2.4879,2.4517,2.4078,2.3638,2.3595,2.3143,2.2128,2.0841,1.9761,1.904,1.7698,1.6696,1.6105,1.5792,1.5497,1.5391,1.3892,1.2651,1.16,1.1176,1.0181,0.885,0.9105,0.885,0.8235,0.7717,0.7491,0.7408,0.6569,0.6209,0.6237,0.6492,0.6439,0.6237,-2.5534,-2.5526,-2.5528,-2.5524,-2.5533,-2.553,-2.553,-2.5577,-2.5611,-2.5635,-2.5456,-2.5325,-2.533,-2.5321,-2.5321,-2.5331,-2.527,-2.5004,-2.4388,-2.3156,-2.1812,-2.0338,-2.021,-1.9776,-1.8901,-1.8504,-1.8339,-1.8378,-1.8399,-1.8459,-1.8528,-1.8412,-1.8497,-1.8796,-1.9059,-1.9153,-1.9134,-1.9939,-2.0225,-2.0047,-1.8792,-1.842,-1.8469,-1.6751,-1.6883,-1.8001,-1.8001,-1.7605,-1.7053,-1.6947,-1.5579,-1.3666,-1.2306,-0.8842,-0.5114,-0.42,0.0222,0.5347,0.7751,1.0705,1.2833,1.1722,1.5287,1.9107,1.9197,2.1117,2.284,2.2773,2.3357,2.3927,2.4051,2.3724,2.3456,2.3511,2.2868,2.2816,2.4038,2.3202,2.3144,2.4996,2.4509,2.4144,2.4471,2.3921,2.36,2.3608,2.2965,2.2128,2.1166,2.0673,1.9965,1.904,1.8277,1.7497,1.6605,1.5628,1.467,1.3806,1.3031,1.2237,1.1341,1.0436,0.9879,0.9627,0.8854,0.833,0.8032,0.7852,0.7555,0.712,0.6672,0.6477,0.6468,0.6387,0.6261,0.6273,-2.5495,-2.5322,-2.5187,-2.5171,-2.5182,-2.5224,-2.5351,-2.5428,-2.5399,-2.5254,-2.512,-2.5013,-2.4966,-2.5061,-2.5109,-2.5091,-2.4866,-2.4473,-2.3815,-2.2544,-2.118,-1.9827,-1.9412,-1.8895,-1.8215,-1.7871,-1.783,-1.8087,-1.7906,-1.7922,-1.8175,-1.824,-1.8461,-1.8808,-1.8959,-1.9192,-1.9405,-1.9555,-1.9768,-1.9882,-1.9052,-1.8849,-1.8906,-1.7893,-1.8194,-1.9182,-1.9182,-1.8823,-1.8358,-1.8255,-1.6072,-1.3096,-1.1427,-0.8257,-0.459,-0.1674,0.2877,0.7612,1.0594,1.3605,1.5672,1.4712,1.754,2.0732,2.15,2.2636,2.3533,2.36,2.3661,2.3689,2.3695,2.3235,2.2828,2.2823,2.2542,2.2517,2.3151,2.3079,2.332,2.4337,2.4173,2.4067,2.4271,2.3371,2.2757,2.2688,2.1945,2.1267,2.0772,2.0233,1.9512,1.8602,1.7855,1.7104,1.6374,1.5589,1.4723,1.3815,1.2733,1.214,1.1935,1.0938,1.0516,1.0572,0.9747,0.9143,0.8747,0.8356,0.8016,0.7634,0.7406,0.7254,0.726,0.7302,0.726,0.7242,-2.5428,-2.5041,-2.4705,-2.4693,-2.4693,-2.4801,-2.5115,-2.5168,-2.4991,-2.4583,-2.4624,-2.4638,-2.4511,-2.4733,-2.4854,-2.4778,-2.4332,-2.3841,-2.3361,-2.1958,-2.0796,-2.0007,-1.8838,-1.7814,-1.7034,-1.6947,-1.7186,-1.7747,-1.706,-1.7044,-1.7679,-1.772,-1.7841,-1.8109,-1.8475,-1.8655,-1.8655,-1.9037,-1.917,-1.9185,-1.9682,-1.9858,-1.9788,-1.9843,-1.9642,-1.937,-1.9269,-1.9023,-1.8709,-1.8324,-1.5726,-1.2089,-0.8951,-0.5621,-0.2009,0.243,0.6367,0.9618,1.1054,1.5432,1.9497,1.904,1.913,2.0035,2.2643,2.3014,2.3,2.3725,2.3454,2.3056,2.2946,2.2574,2.2136,2.184,2.2332,2.2622,2.2136,2.3375,2.4207,2.3863,2.4024,2.4162,2.4142,2.2795,2.1701,2.126,2.0763,2.0556,2.0769,1.9643,1.8709,1.7952,1.6809,1.606,1.5753,1.5711,1.5365,1.477,1.2903,1.2341,1.2903,1.2155,1.1718,1.1623,1.1174,1.071,1.0161,0.9313,0.8924,0.8841,0.8573,0.8413,0.8411,0.8867,0.8867,0.8639,-2.4869,-2.478,-2.47,-2.47,-2.4693,-2.4718,-2.4808,-2.4817,-2.4404,-2.3276,-2.3561,-2.3824,-2.3676,-2.3805,-2.3913,-2.3875,-2.3218,-2.2358,-2.1305,-2.0365,-1.9322,-1.8215,-1.7544,-1.7199,-1.7144,-1.7157,-1.7199,-1.7352,-1.7073,-1.7086,-1.7323,-1.7214,-1.7201,-1.7256,-1.7366,-1.7394,-1.7394,-1.7612,-1.7787,-1.7973,-1.8104,-1.8087,-1.8018,-1.8057,-1.7848,-1.7477,-1.6688,-1.635,-1.6093,-1.4808,-1.2688,-1.0215,-0.8249,-0.3945,0.0948,0.3851,0.9453,1.4957,1.6109,1.8733,2.1157,2.1373,2.0923,2.0869,2.2468,2.2761,2.2616,2.228,2.215,2.2001,2.167,2.177,2.1886,2.1728,2.1867,2.2293,2.3243,2.3243,2.3366,2.4091,2.3591,2.3141,2.3047,2.1975,2.1098,2.063,2.0533,2.0523,2.0573,1.9747,1.9004,1.8244,1.7379,1.6749,1.6229,1.5568,1.4814,1.3967,1.3867,1.3367,1.2518,1.1903,1.1752,1.1908,1.1316,1.1119,1.116,1.0965,1.0581,1.0079,0.984,0.9364,0.889,0.8795,0.8597,0.8345,-2.4607,-2.461,-2.4595,-2.4598,-2.4598,-2.4598,-2.4598,-2.4598,-2.4153,-2.2866,-2.2924,-2.3124,-2.3277,-2.3408,-2.332,-2.3018,-2.2401,-2.1562,-2.051,-1.9778,-1.8933,-1.7894,-1.7366,-1.706,-1.6976,-1.6723,-1.6667,-1.6811,-1.6324,-1.6151,-1.6256,-1.6256,-1.6299,-1.6373,-1.6642,-1.6642,-1.6416,-1.674,-1.6811,-1.6676,-1.6439,-1.6193,-1.5966,-1.5672,-1.5081,-1.4295,-1.3792,-1.267,-1.1194,-0.954,-0.7442,-0.5131,-0.274,0.0629,0.4316,0.7836,1.2141,1.614,1.8006,1.958,2.0845,2.1401,2.1006,2.0781,2.1752,2.2006,2.1911,2.1532,2.1505,2.1544,2.1439,2.1617,2.1793,2.192,2.2368,2.2838,2.3203,2.3361,2.3588,2.3921,2.3508,2.2908,2.209,2.1283,2.0598,2.008,2.0059,2.007,2.0055,1.9604,1.8898,1.8027,1.7468,1.6944,1.6384,1.5956,1.5263,1.4289,1.3942,1.3494,1.292,1.2463,1.2406,1.2677,1.17,1.1363,1.1439,1.0671,1.0135,0.9824,0.9665,0.9425,0.9126,0.9064,0.889,0.8609,-2.429,-2.4265,-2.4262,-2.4187,-2.4184,-2.42,-2.4179,-2.4151,-2.3772,-2.2789,-2.2544,-2.2617,-2.2982,-2.3005,-2.2685,-2.1955,-2.1503,-2.0846,-1.9856,-1.9228,-1.8527,-1.7626,-1.7162,-1.6769,-1.6355,-1.5888,-1.5876,-1.6318,-1.5522,-1.5175,-1.5231,-1.5197,-1.5276,-1.5431,-1.5872,-1.5784,-1.533,-1.5872,-1.5784,-1.5128,-1.4744,-1.4279,-1.3744,-1.3191,-1.212,-1.0891,-1.0638,-0.852,-0.5616,-0.3955,-0.178,0.0832,0.4026,0.5958,0.7978,1.242,1.4473,1.5889,1.8465,1.9434,1.9854,2.0545,2.0462,2.033,2.083,2.1039,2.1087,2.1023,2.1055,2.1182,2.1475,2.1635,2.1831,2.224,2.308,2.3483,2.2926,2.3633,2.4009,2.3551,2.3332,2.2688,2.1321,2.0644,2.0167,1.9798,1.9526,1.9458,1.9527,1.9121,1.8471,1.7655,1.7268,1.6842,1.6384,1.6384,1.5961,1.5001,1.3951,1.3411,1.3502,1.3202,1.3228,1.3442,1.232,1.1819,1.1742,1.0377,0.9801,0.9678,0.9678,0.9617,0.9519,0.9718,0.9606,0.9294,-2.3376,-2.33,-2.3225,-2.2984,-2.2948,-2.2944,-2.2936,-2.2752,-2.2588,-2.252,-2.2401,-2.2302,-2.2252,-2.1948,-2.135,-2.0389,-2.0001,-1.9177,-1.7812,-1.7261,-1.6566,-1.5652,-1.5466,-1.5254,-1.4971,-1.4514,-1.4801,-1.5869,-1.5457,-1.5266,-1.5254,-1.4584,-1.4286,-1.4332,-1.4367,-1.4125,-1.3674,-1.4321,-1.4021,-1.3077,-1.304,-1.2503,-1.1675,-1.1129,-0.9919,-0.8362,-0.7056,-0.4231,-0.0968,0.016,0.2338,0.5056,0.7866,0.9836,1.1822,1.5266,1.6413,1.6988,1.897,1.9594,1.9702,2.0174,2.0243,2.0139,1.9945,2.0139,2.0345,2.033,2.033,2.0474,2.0797,2.1312,2.1916,2.2526,2.3,2.331,2.3486,2.3593,2.3508,2.3068,2.2144,2.1324,2.0824,2.004,1.9787,2.033,1.9309,1.8818,1.9202,1.8255,1.7545,1.7257,1.6797,1.6488,1.6384,1.6384,1.6144,1.5556,1.4954,1.4241,1.3511,1.3459,1.3468,1.3502,1.3321,1.326,1.3191,1.302,1.2562,1.2066,1.2066,1.1697,1.1174,1.0952,1.068,1.0408,-2.2976,-2.2863,-2.2838,-2.2716,-2.2695,-2.2701,-2.2712,-2.1659,-2.1032,-2.158,-2.1404,-2.1308,-2.1458,-2.0959,-2.0128,-1.8976,-1.8826,-1.8142,-1.6717,-1.6539,-1.6164,-1.5454,-1.5119,-1.4903,-1.4698,-1.3946,-1.3805,-1.4261,-1.4086,-1.4014,-1.3941,-1.3447,-1.3092,-1.2812,-1.2936,-1.258,-1.1938,-1.2513,-1.2106,-1.1122,-1.0822,-0.9875,-0.8617,-0.7756,-0.647,-0.482,-0.2882,-0.0381,0.2181,0.3302,0.5637,0.8403,0.9938,1.1762,1.3622,1.5252,1.6232,1.7066,1.8324,1.8991,1.9406,1.9803,1.9909,1.9889,1.9711,1.9818,1.9909,1.9909,2.0375,2.0849,2.1203,2.1803,2.2467,2.3125,2.3345,2.3351,2.3245,2.348,2.3518,2.3026,2.1988,2.122,2.0993,2.0373,2.0064,2.022,1.9648,1.9253,1.9081,1.8602,1.7929,1.7202,1.6944,1.6684,1.6384,1.6384,1.6144,1.5672,1.5439,1.4834,1.3881,1.3631,1.3511,1.3511,1.307,1.2948,1.2887,1.2512,1.2197,1.195,1.195,1.1764,1.1472,1.1218,1.113,1.1048]}]]